[[[{"header":{"parameterUnit":"kt","parameterCategory":2,"dx":1,"dy":1,"la1":29.587661999999998,"la2":31.0,"lo1":-88.76705300000003,"lo2":-86.6583820000003,"nx":115,"ny":88,"refTime":"2022-10-01T06:00:00:Z","depth":0,"parameterNumber":1,"parameterNumberName":"U-component_of_WINDS"},"data":[4.8248,4.8248,4.8248,4.8248,4.8248,4.8248,4.8248,4.8248,4.8248,4.8248,4.8248,4.8248,4.8248,4.8248,4.8248,4.8248,4.8248,4.8248,4.8248,4.8248,4.8248,4.8248,4.8248,4.8248,4.8248,4.8248,4.8248,4.8248,4.8248,4.8248,4.8248,4.8248,4.8248,4.8248,4.8248,4.8248,4.8248,4.8248,4.8248,4.8086,4.8011,4.7003,4.554,4.4141,4.275,4.0143,3.8177,3.7132,3.5328,3.3729,3.2494,3.2112,3.2052,3.2252,3.2483,3.2744,3.2817,3.2985,3.3006,3.3048,3.3048,3.3048,3.3048,3.3048,3.3058,3.3058,3.3069,3.3069,3.2951,3.2951,3.3022,3.2832,3.2927,3.2895,3.2916,3.2719,3.2295,3.214,3.1983,3.1666,3.1352,3.1017,3.0898,3.02,2.957,2.7904,2.6857,2.5393,2.2756,2.136,2.0038,1.9203,1.8432,1.8086,1.8086,1.8086,1.8086,1.8086,1.8221,1.8432,1.8432,1.8151,1.9133,2.1913,2.1995,2.1373,2.1652,2.2606,2.3431,2.5189,2.6734,2.838,3.0751,3.2145,3.2489,4.8215,4.8248,4.8194,4.8248,4.8248,4.8248,4.8248,4.8248,4.8248,4.8248,4.8248,4.8248,4.8248,4.8248,4.8248,4.8248,4.8248,4.8248,4.8248,4.8248,4.8248,4.8248,4.8248,4.8248,4.8248,4.8248,4.8248,4.8248,4.8248,4.8248,4.8248,4.8248,4.8248,4.8248,4.8248,4.8248,4.8248,4.8248,4.8086,4.7924,4.7258,4.6444,4.5665,4.4117,4.2116,3.9892,3.8336,3.6753,3.4594,3.353,3.3158,3.2716,3.2594,3.265,3.2828,3.2891,3.3006,3.3027,3.3048,3.3048,3.3048,3.3048,3.3048,3.3058,3.3058,3.3079,3.31,3.2983,3.2783,3.2798,3.2931,3.2994,3.3207,3.3345,3.3443,3.3412,3.2826,3.2356,3.1983,3.1531,3.0958,3.026,2.9639,2.8664,2.7273,2.5338,2.3808,2.2477,2.1221,1.9968,1.9203,1.8572,1.8086,1.8086,1.8086,1.8086,1.8086,1.8086,1.8086,1.8086,1.8086,1.8086,1.8783,2.0318,2.0388,2.0114,2.0254,2.0458,2.2274,2.4101,2.5192,2.6303,2.8819,3.097,3.1494,4.7497,4.7612,4.8011,4.8248,4.8248,4.8248,4.8248,4.8248,4.8248,4.8248,4.8248,4.8248,4.8248,4.8248,4.8248,4.8248,4.8248,4.8248,4.8248,4.8248,4.8248,4.8248,4.8248,4.8248,4.8248,4.8248,4.8248,4.8248,4.8248,4.8248,4.8248,4.8248,4.8248,4.8248,4.8248,4.8248,4.8248,4.8194,4.7887,4.7275,4.6351,4.579,4.5228,4.3828,4.1946,4.0388,3.8682,3.7025,3.509,3.3992,3.3481,3.3076,3.2931,3.2933,3.3037,3.3048,3.3048,3.3048,3.3048,3.3048,3.3048,3.3048,3.3048,3.31,3.311,3.3424,3.3445,3.3525,3.3308,3.3281,3.3414,3.3284,3.3439,3.3524,3.3556,3.3369,3.2796,3.2323,3.192,3.1242,3.02,2.9424,2.8319,2.7342,2.5123,2.3181,2.2553,2.1506,2.0038,1.8642,1.8432,1.8086,1.8086,1.8086,1.8086,1.8086,1.8086,1.8086,1.8086,1.8086,1.8086,1.8157,1.8157,1.8783,1.9063,1.8853,1.8853,1.8923,2.0388,2.2617,2.3592,2.4435,2.7098,2.9682,2.9924,4.668,4.69,4.7483,4.7779,4.7928,4.8111,4.8248,4.8248,4.8248,4.8248,4.8248,4.8248,4.8248,4.8248,4.8248,4.8248,4.8248,4.8248,4.8248,4.8248,4.8248,4.8248,4.8248,4.8248,4.8248,4.8248,4.8248,4.8248,4.8248,4.8248,4.8248,4.8248,4.8248,4.8248,4.8248,4.8248,4.8103,4.7903,4.765,4.7128,4.6311,4.5664,4.4589,4.3262,4.119,3.9675,3.8605,3.7109,3.5478,3.4244,3.365,3.3279,3.3069,3.3037,3.3048,3.3048,3.3048,3.3048,3.3048,3.3048,3.3048,3.3048,3.3069,3.3121,3.3341,3.3707,3.3967,3.4053,3.4053,3.4049,3.3995,3.3778,3.3588,3.3552,3.3487,3.303,3.2569,3.2117,3.1783,3.0673,2.9355,2.8172,2.7065,2.5331,2.3111,2.1786,2.0947,2.0318,1.8783,1.8292,1.8081,1.8086,1.8086,1.8086,1.8086,1.8086,1.8086,1.8086,1.8086,1.8086,1.8086,1.8086,1.8086,1.8086,1.8086,1.8292,1.8362,1.8086,1.8993,2.1081,2.2414,2.3598,2.5983,2.7053,2.7626,4.6121,4.6153,4.6253,4.6582,4.7197,4.7862,4.8111,4.8248,4.8111,4.8232,4.8144,4.8194,4.8248,4.8248,4.8248,4.8248,4.8248,4.8248,4.8248,4.8248,4.8248,4.8248,4.8248,4.8248,4.8248,4.8248,4.8248,4.8248,4.8248,4.8248,4.8248,4.8248,4.8248,4.8248,4.8248,4.8248,4.8023,4.7754,4.7535,4.7359,4.6758,4.5438,4.3877,4.3098,4.1066,3.8627,3.7885,3.6716,3.5219,3.4559,3.4042,3.3672,3.3276,3.3048,3.3048,3.3048,3.3048,3.3048,3.3048,3.3048,3.3048,3.3048,3.3069,3.3341,3.3664,3.4017,3.4384,3.4534,3.4108,3.4009,3.4271,3.4199,3.4011,3.3897,3.3595,3.3088,3.2598,3.2127,3.1646,3.0889,2.9294,2.658,2.5331,2.3105,2.0807,1.9413,1.8712,1.8783,1.8151,1.8151,1.8086,1.8086,1.8086,1.8086,1.8086,1.8086,1.8086,1.8086,1.8086,1.8086,1.8086,1.8086,1.8086,1.8086,1.8086,1.8086,1.8086,1.8162,1.8718,2.0149,2.1274,2.2571,2.3351,2.3969,2.4803,4.5288,4.5386,4.5318,4.5785,4.6501,4.718,4.723,4.705,4.7383,4.7496,4.7546,4.7978,4.8248,4.8194,4.8248,4.8248,4.8248,4.8248,4.8248,4.8248,4.8248,4.8248,4.8248,4.8248,4.8248,4.8248,4.8248,4.8248,4.8248,4.8248,4.8265,4.8281,4.8248,4.8248,4.8315,4.8306,4.7988,4.7853,4.7782,4.7666,4.7117,4.6281,4.4138,4.2585,4.167,3.9223,3.7405,3.6588,3.5562,3.4856,3.4229,3.3776,3.3215,3.3048,3.3048,3.3048,3.3048,3.3048,3.3048,3.3048,3.3048,3.3121,3.3341,3.3707,3.4092,3.4257,3.4558,3.4708,3.4283,3.3991,3.4333,3.454,3.4396,3.4251,3.3694,3.3205,3.2666,3.2127,3.1508,3.0898,2.8811,2.5886,2.3105,2.0807,1.8923,1.8362,1.8086,1.8086,1.8086,1.8086,1.8086,1.8086,1.8086,1.8086,1.8086,1.8086,1.8086,1.8086,1.8086,1.8086,1.8086,1.8086,1.8086,1.8086,1.8086,1.8086,1.8086,1.8162,1.8301,1.8691,1.9691,2.0578,2.1162,2.1823,2.3011,4.4532,4.4603,4.462,4.5086,4.5736,4.6018,4.6018,4.5868,4.6484,4.6897,4.7064,4.7629,4.7945,4.8194,4.8248,4.8248,4.8248,4.8248,4.8248,4.8248,4.8248,4.8248,4.8248,4.8248,4.8248,4.8248,4.8248,4.8248,4.8281,4.8248,4.8281,4.8531,4.8664,4.8648,4.8698,4.8743,4.8511,4.8392,4.8648,4.8318,4.7697,4.6684,4.5205,4.3139,4.1951,4.0042,3.8075,3.7074,3.5877,3.5208,3.4553,3.3812,3.3173,3.3048,3.3048,3.3048,3.3048,3.3048,3.3048,3.3048,3.3048,3.3131,3.3812,3.4251,3.4451,3.4513,3.4681,3.4591,3.4335,3.4005,3.4113,3.4064,3.3811,3.3567,3.3146,3.2666,3.2195,3.1586,3.082,3.0062,2.8802,2.5817,2.2268,1.9968,1.8712,1.8292,1.8086,1.8086,1.8086,1.8086,1.8086,1.8086,1.8086,1.8086,1.8086,1.8086,1.8086,1.8086,1.8086,1.8086,1.8086,1.8086,1.8086,1.8086,1.8086,1.8086,1.8092,1.8192,1.8353,1.8536,1.8711,1.8899,1.9201,2.0513,2.1696,4.3985,4.3969,4.3952,4.4353,4.477,4.4503,4.452,4.5069,4.582,4.6553,4.7064,4.7163,4.7629,4.8128,4.8248,4.8248,4.8248,4.8248,4.8248,4.8248,4.8248,4.8248,4.8248,4.8211,4.8311,4.8261,4.8381,4.8548,4.8365,4.856,4.8914,4.9164,4.9297,4.9397,4.9679,4.9917,4.9874,4.9442,4.9483,4.9178,4.8446,4.7177,4.6028,4.465,4.2863,4.1104,3.9624,3.8169,3.6676,3.5628,3.494,3.4063,3.3487,3.3048,3.3048,3.3048,3.3048,3.3048,3.3058,3.3142,3.3152,3.3456,3.4335,3.4879,3.4935,3.4593,3.4489,3.4347,3.3977,3.385,3.3782,3.3508,3.3293,3.294,3.2529,3.2127,3.1724,3.082,3.0053,2.8949,2.7619,2.4907,2.129,1.9688,1.8292,1.8086,1.8086,1.8086,1.8086,1.8086,1.8086,1.8086,1.8086,1.8086,1.8086,1.8086,1.8086,1.8086,1.8086,1.8086,1.8086,1.8086,1.8086,1.8086,1.8086,1.8102,1.8123,1.8224,1.8393,1.8594,1.8841,1.9016,1.9249,2.0186,2.0358,4.3985,4.3985,4.3985,4.4086,4.4236,4.4036,4.4287,4.5069,4.6184,4.6798,4.7114,4.7579,4.7945,4.8094,4.8248,4.8248,4.8248,4.8248,4.8248,4.8248,4.8248,4.8298,4.8281,4.8227,4.851,4.8881,4.9052,4.923,4.9441,4.9574,4.969,4.9896,5.0046,5.0262,5.0811,5.117,5.1296,5.0436,5.0167,4.9957,4.9165,4.8258,4.7088,4.5822,4.4428,4.3014,4.1607,3.9886,3.7981,3.6789,3.5418,3.3875,3.3372,3.3048,3.3048,3.3048,3.3048,3.3048,3.3173,3.3278,3.3707,3.3906,3.4659,3.4842,3.4487,3.4292,3.4113,3.3831,3.3214,3.3293,3.344,3.3019,3.2735,3.2607,3.2195,3.1861,3.1251,2.97,2.8725,2.7411,2.5886,2.268,1.9548,1.8642,1.8086,1.8086,1.8086,1.8086,1.8086,1.8086,1.8086,1.8086,1.8086,1.8086,1.8086,1.8086,1.8086,1.8086,1.8086,1.8086,1.8086,1.8086,1.8086,1.8086,1.8118,1.815,1.8166,1.8319,1.8578,1.88,1.8979,1.9196,1.9418,1.9611,1.9746,4.3985,4.3985,4.3985,4.4069,4.4237,4.4237,4.462,4.5386,4.6251,4.6814,4.713,4.7529,4.7895,4.8215,4.8248,4.8248,4.8248,4.8248,4.8248,4.8248,4.8248,4.8348,4.8598,4.8781,4.9047,4.9496,4.9713,4.9923,5.0422,5.0206,5.0306,5.0488,5.0571,5.1161,5.1826,5.2209,5.2165,5.1142,5.0734,5.0405,4.9767,4.9051,4.8138,4.6982,4.5277,4.3881,4.2675,3.9158,3.7423,3.6342,3.519,3.376,3.3184,3.3048,3.3048,3.3048,3.3048,3.3048,3.3184,3.3853,3.4345,3.4691,3.5063,3.5065,3.436,3.3916,3.3518,3.3156,3.2538,3.2479,3.2822,3.2411,3.2264,3.2058,3.193,3.1595,3.076,2.9217,2.7472,2.6233,2.4288,2.1227,1.9133,1.8221,1.8086,1.8086,1.8086,1.8086,1.8086,1.8086,1.8086,1.8086,1.8086,1.8086,1.8086,1.8086,1.8086,1.8086,1.8086,1.8086,1.8086,1.8086,1.8092,1.8113,1.816,1.8219,1.8329,1.8477,1.8752,1.9006,1.9201,1.9407,1.9476,1.9476,1.9476,4.3985,4.3985,4.3985,4.4287,4.482,4.4936,4.5369,4.6069,4.6236,4.66,4.718,4.7247,4.7629,4.8094,4.8248,4.8248,4.8248,4.8248,4.8348,4.8415,4.8514,4.8814,4.9114,4.9446,4.9729,5.0222,5.0405,5.0455,5.0621,5.0788,5.0704,5.0821,5.1327,5.1884,5.2584,5.2701,5.2331,5.1751,5.1111,5.0524,4.993,4.929,4.8633,4.7298,4.5413,4.3881,4.2294,3.922,3.7112,3.603,3.4815,3.3624,3.3121,3.3048,3.3048,3.3048,3.3048,3.3079,3.3184,3.4429,3.4973,3.5203,3.5387,3.5345,3.4737,3.4026,3.343,3.2744,3.2067,3.1733,3.1595,3.1595,3.1595,3.1595,3.1664,3.132,3.0484,2.9156,2.7073,2.5408,2.2972,2.0528,1.9063,1.8086,1.8086,1.8086,1.8086,1.8086,1.8086,1.8086,1.8086,1.8086,1.8086,1.8086,1.8086,1.8086,1.8086,1.8086,1.8086,1.8086,1.8086,1.8086,1.8108,1.8139,1.8224,1.8361,1.8493,1.8636,1.89,1.9159,1.9381,1.9476,1.9476,1.9476,1.9476,4.3985,4.3985,4.3985,4.4287,4.4953,4.5469,4.6153,4.6684,4.6767,4.7163,4.7845,4.7862,4.8011,4.8128,4.8248,4.8248,4.8261,4.8298,4.8564,4.8814,4.9047,4.9463,4.9863,5.0139,5.0462,5.1011,5.1211,5.1477,5.1793,5.1943,5.1843,5.1893,5.2268,5.2384,5.2701,5.2701,5.2566,5.2255,5.1724,5.1117,5.0405,4.9573,4.8812,4.644,4.5413,4.3942,4.1927,3.9256,3.7151,3.6155,3.4793,3.3425,3.3111,3.3048,3.3048,3.3048,3.309,3.3246,3.3707,3.4544,3.5256,3.5418,3.569,3.5391,3.4787,3.4114,3.3293,3.2529,3.193,3.1536,3.1526,3.1536,3.1536,3.1536,3.1536,3.1389,3.0484,2.8327,2.631,2.4643,2.1646,1.9063,1.8086,1.8086,1.8086,1.8086,1.8086,1.8086,1.8086,1.8086,1.8086,1.8086,1.8086,1.8086,1.8086,1.8097,1.8108,1.8113,1.816,1.8134,1.816,1.8086,1.8097,1.8277,1.8425,1.8514,1.8678,1.8879,1.9096,1.9307,1.9386,1.9476,1.9476,1.9476,1.9476,4.3985,4.3986,4.4536,4.5136,4.575,4.6234,4.685,4.7429,4.7496,4.7795,4.8232,4.8248,4.8248,4.8248,4.8248,4.8365,4.8614,4.8415,4.8947,4.9363,4.9652,4.9962,5.0578,5.0871,5.1137,5.1793,5.2001,5.2301,5.2651,5.2534,5.2684,5.2701,5.2601,5.2684,5.2701,5.2701,5.2642,5.2331,5.1354,5.0271,4.9482,4.8347,4.6621,4.4732,4.4367,4.2906,4.1607,3.8626,3.7387,3.6217,3.4292,3.3425,3.3048,3.3048,3.3163,3.3341,3.3372,3.3602,3.4094,3.4356,3.4952,3.5304,3.5601,3.548,3.4856,3.4114,3.3293,3.2607,3.1861,3.1526,3.1536,3.1536,3.1536,3.1536,3.1536,3.1536,3.0071,2.7211,2.506,2.4226,2.1436,1.8362,1.8086,1.8086,1.8086,1.8086,1.8086,1.8086,1.8086,1.8086,1.8086,1.8086,1.8086,1.8086,1.8086,1.8102,1.8123,1.8182,1.825,1.8351,1.8456,1.8345,1.8335,1.8504,1.874,1.8779,1.8921,1.9117,1.9254,1.9365,1.9439,1.9476,1.9476,1.9476,1.9476,4.4068,4.4334,4.5587,4.6417,4.6981,4.708,4.7529,4.8078,4.8144,4.8215,4.8248,4.8248,4.8248,4.8248,4.8298,4.8614,4.9285,4.8564,4.9208,4.9813,4.9929,5.0395,5.1177,5.166,5.191,5.2501,5.2534,5.2551,5.2701,5.2701,5.2634,5.2634,5.2634,5.2634,5.2567,5.2584,5.2701,5.2272,5.0567,4.9049,4.7253,4.5807,4.3942,4.2783,4.1178,3.9948,3.9701,3.7162,3.5616,3.5355,3.3989,3.3247,3.3121,3.3048,3.3194,3.3393,3.3487,3.378,3.4136,3.4283,3.4429,3.5005,3.5408,3.5413,3.4917,3.4113,3.3381,3.2639,3.1892,3.1577,3.1536,3.1536,3.1536,3.1536,3.1536,3.1536,3.0209,2.7073,2.4845,2.3871,2.1786,1.8993,1.8086,1.8086,1.8086,1.8086,1.8086,1.8086,1.8086,1.8086,1.8086,1.7886,1.7957,1.7928,1.7993,1.7875,1.7786,1.7791,1.7965,1.8212,1.8616,1.8793,1.8662,1.88,1.8868,1.9022,1.909,1.9265,1.936,1.9444,1.9476,1.9476,1.9476,1.9476,1.9476,4.5705,4.7375,4.6936,4.6864,4.7097,4.7662,4.8011,4.8248,4.8248,4.8248,4.8248,4.8248,4.8248,4.8248,4.8298,4.8631,4.9285,4.8581,4.9513,5.0355,5.0688,5.0961,5.1743,5.2301,5.2418,5.2684,5.2701,5.2651,5.2667,5.2601,5.2318,5.181,5.2351,5.2351,5.2168,5.2368,5.2701,5.2508,5.067,4.8436,4.623,4.5049,4.3272,4.1546,4.0243,3.9405,3.7993,3.6388,3.5514,3.5065,3.4136,3.3435,3.3121,3.3058,3.3173,3.3309,3.3383,3.3696,3.4146,3.4377,3.4628,3.4984,3.5241,3.5356,3.4951,3.4169,3.3371,3.2952,3.2104,3.1636,3.1536,3.1536,3.1536,3.1536,3.1536,3.1536,3.076,2.7488,2.5053,2.3801,2.1856,1.9273,1.8151,1.8157,1.8086,1.8086,1.8086,1.8086,1.8086,1.8086,1.7891,1.7365,1.7435,1.7434,1.7184,1.698,1.7236,1.7387,1.7542,1.7894,1.8612,1.8874,1.8948,1.9001,1.8974,1.91,1.9222,1.9386,1.9476,1.9476,1.9476,1.9476,1.9476,1.9476,1.9476,4.844,4.898,4.8759,4.8186,4.7666,4.7995,4.8248,4.8248,4.8248,4.8248,4.8248,4.8248,4.8248,4.8248,4.8248,4.8648,4.9085,4.8564,4.9297,5.0455,5.0378,5.0678,5.1884,5.2201,5.2451,5.2567,5.2684,5.2601,5.2234,5.2118,5.2034,5.1651,5.1876,5.1901,5.1677,5.2318,5.2601,5.2314,5.1396,4.9347,4.6832,4.5202,4.3745,4.1546,4.1423,4.0317,3.891,3.7745,3.675,3.5065,3.4387,3.3697,3.3247,3.3069,3.3184,3.3299,3.3362,3.3707,3.4238,3.4353,3.4701,3.5026,3.5182,3.5266,3.5273,3.4665,3.3995,3.3369,3.2415,3.1842,3.1595,3.1536,3.1536,3.1536,3.1536,3.1536,3.0691,2.7627,2.5192,2.3592,2.1925,1.9898,1.8362,1.8221,1.8086,1.8086,1.8086,1.8097,1.8108,1.8118,1.7727,1.7223,1.7193,1.7067,1.6628,1.6402,1.6939,1.7535,1.7687,1.8232,1.8864,1.908,1.9191,1.9185,1.9099,1.9162,1.9423,1.94,1.9249,1.9325,1.9476,1.9476,1.9476,1.9476,1.9325,5.1543,5.0342,5.0612,4.9898,4.8646,4.8269,4.8248,4.8248,4.8248,4.8248,4.8248,4.8248,4.8248,4.8248,4.8248,4.8664,4.8969,4.8681,4.9025,5.0239,4.9996,5.0345,5.1285,5.1427,5.2151,5.2009,5.2484,5.2251,5.2018,5.1751,5.146,5.131,5.131,5.1244,5.1044,5.1643,5.2434,5.2459,5.2165,5.0633,4.8122,4.5928,4.4428,4.3272,4.2722,4.1927,4.0576,3.9331,3.8054,3.5821,3.4756,3.3844,3.3257,3.311,3.3341,3.3686,3.397,3.4042,3.4356,3.4384,3.4659,3.5057,3.5172,3.5423,3.5398,3.5067,3.4373,3.3713,3.2735,3.1989,3.1595,3.1526,3.1536,3.1536,3.1536,3.1536,3.0907,2.818,2.5886,2.4149,2.2274,2.0318,1.8362,1.8221,1.8086,1.8086,1.8092,1.8118,1.8145,1.8187,1.7941,1.7663,1.757,1.7111,1.6605,1.6596,1.7055,1.782,1.8287,1.8764,1.9099,1.9307,1.9418,1.9262,1.9127,1.9158,1.8796,1.872,1.9022,1.8871,1.8574,1.8801,1.9249,1.9325,1.9174,5.4216,5.4327,5.1792,5.0556,5.0041,4.8861,4.8248,4.8248,4.8248,4.8248,4.8248,4.8248,4.8248,4.8248,4.8331,4.8614,4.9252,4.8564,4.8992,4.994,5.0006,5.0139,5.0961,5.1543,5.1876,5.1527,5.2026,5.2584,5.2184,5.166,5.1161,5.0878,5.0661,5.0395,5.0162,5.0811,5.1194,5.1049,5.0392,4.9703,4.8627,4.6531,4.4489,4.3778,4.3197,4.2797,4.1871,4.064,3.9082,3.7574,3.5943,3.4468,3.3752,3.3267,3.3466,3.4136,3.4293,3.4345,3.4471,3.4447,3.4785,3.5193,3.5193,3.5423,3.5518,3.5262,3.463,3.327,3.2388,3.1724,3.1517,3.1526,3.1536,3.1536,3.1536,3.132,3.0484,2.8673,2.6233,2.4427,2.2553,2.0668,1.8642,1.8086,1.8118,1.8123,1.8171,1.8197,1.8356,1.8366,1.8385,1.8108,1.7759,1.7141,1.6647,1.6562,1.6926,1.7517,1.8062,1.8673,1.9041,1.94,1.9244,1.9077,1.8952,1.8422,1.7817,1.7589,1.7968,1.8044,1.767,1.7822,1.8271,1.8574,1.8574,5.6095,5.561,5.3929,5.2285,5.0752,4.9791,4.9005,4.8302,4.8248,4.8248,4.8248,4.8248,4.8248,4.8248,4.8248,4.8431,4.8664,4.8365,4.8626,4.9092,4.9341,4.9458,5.0029,5.0978,5.102,5.1377,5.196,5.2501,5.2084,5.136,5.0754,5.0405,5.0355,5.0046,4.9679,5.0262,5.0928,5.0707,5.0121,4.971,4.9711,4.8753,4.6789,4.5676,4.4778,4.3497,4.2321,4.0739,3.9752,3.8279,3.6613,3.5504,3.4732,3.4216,3.3988,3.4638,3.4806,3.4869,3.5011,3.5063,3.5126,3.5455,3.5439,3.5554,3.5627,3.5507,3.5065,3.3923,3.2892,3.1852,3.1517,3.1526,3.1536,3.1536,3.1536,3.1536,3.076,2.8327,2.6449,2.4782,2.2693,2.0674,1.8718,1.8134,1.8155,1.8197,1.825,1.8403,1.8594,1.8641,1.8694,1.8439,1.812,1.7289,1.6372,1.627,1.6395,1.6947,1.7485,1.8241,1.8725,1.9174,1.9179,1.8649,1.82,1.7665,1.7215,1.6912,1.6988,1.7144,1.7068,1.714,1.7519,1.7746,1.7817,5.7519,5.6196,5.5919,5.4033,5.1335,5.0805,4.9738,4.841,4.8248,4.8248,4.8248,4.8248,4.8248,4.8248,4.8248,4.8265,4.8331,4.8298,4.8315,4.8344,4.8664,4.8731,4.9413,5.0378,5.0828,5.1327,5.2001,5.2101,5.151,5.0811,5.0472,5.0322,5.004,4.9696,4.9585,5.0368,5.0645,5.0465,5.0534,5.0219,5.0226,4.9703,4.8751,4.642,4.5535,4.4039,4.1939,4.1099,4.0054,3.8138,3.7096,3.6303,3.5702,3.5031,3.4869,3.5182,3.5277,3.5381,3.5544,3.568,3.5742,3.5763,3.5721,3.5753,3.5763,3.5674,3.5203,3.4347,3.3264,3.2323,3.1595,3.1536,3.1536,3.1536,3.1536,3.1536,3.1104,2.9286,2.7134,2.4921,2.2769,2.0686,1.9228,1.8234,1.8329,1.8435,1.8483,1.861,1.8789,1.8884,1.8948,1.8763,1.8425,1.7442,1.6279,1.6149,1.6082,1.6613,1.714,1.7892,1.8195,1.8801,1.8574,1.7594,1.6993,1.6761,1.6609,1.6457,1.6381,1.6074,1.6381,1.6613,1.6841,1.6917,1.7064,5.8131,5.7825,5.6402,5.4658,5.2811,5.1388,4.9881,4.841,4.8248,4.8248,4.8248,4.8248,4.8248,4.8248,4.8248,4.8248,4.8248,4.8248,4.8248,4.8315,4.8698,4.8747,4.8931,4.9996,5.0678,4.9918,5.1085,5.1701,5.1327,5.0811,5.0372,5.0173,4.9275,4.8847,4.8714,4.928,4.9817,4.9991,5.0387,5.0391,4.9672,4.9515,4.8332,4.621,4.517,4.387,4.2943,4.1657,4.0583,3.8953,3.7396,3.6766,3.6435,3.6028,3.5627,3.5617,3.5606,3.5659,3.5753,3.5742,3.5742,3.5763,3.5753,3.5753,3.5763,3.5695,3.5149,3.4329,3.3567,3.2881,3.1664,3.1536,3.1536,3.1536,3.1536,3.1536,3.1113,2.9501,2.7358,2.5145,2.3075,2.0959,1.9499,1.834,1.8597,1.8751,1.8793,1.881,1.8906,1.9032,1.9116,1.9072,1.8808,1.8014,1.6903,1.6466,1.6158,1.6533,1.6912,1.7215,1.7367,1.7438,1.7135,1.631,1.5931,1.5623,1.5467,1.5543,1.5467,1.5007,1.5163,1.5694,1.5931,1.6087,1.6462,5.8304,5.8253,5.7448,5.6145,5.445,5.2811,5.1141,4.9631,4.8663,4.8248,4.8248,4.8248,4.8248,4.8248,4.8248,4.8248,4.8248,4.8248,4.8248,4.8348,4.8531,4.8564,4.8593,4.9496,5.0135,4.9702,5.0428,5.1127,5.1227,5.0828,5.0322,5.0239,4.9757,4.8942,4.8427,4.9052,4.9142,4.8809,4.8626,4.8237,4.7405,4.7405,4.658,4.5358,4.3861,4.3368,4.3226,4.1594,4.0081,3.8985,3.7652,3.6691,3.6312,3.5968,3.5763,3.5763,3.5763,3.5763,3.568,3.5643,3.5601,3.5732,3.5591,3.5653,3.57,3.5763,3.5217,3.4466,3.3782,3.3028,3.1733,3.1526,3.1536,3.1536,3.1536,3.1536,3.132,3.0613,2.8784,2.5586,2.3759,2.1751,1.9776,1.8721,1.8599,1.8916,1.8969,1.9016,1.9106,1.9174,1.9285,1.9343,1.9083,1.8427,1.7296,1.6613,1.6234,1.6078,1.6381,1.6457,1.6457,1.6078,1.5775,1.5467,1.5239,1.4856,1.4856,1.4704,1.4704,1.4628,1.4704,1.4856,1.5087,1.5319,1.5775,5.8304,5.8304,5.8304,5.7346,5.5713,5.4327,5.2601,5.061,4.9327,4.8663,4.8248,4.8248,4.8248,4.8248,4.8248,4.8248,4.8248,4.8248,4.8248,4.8248,4.8248,4.8248,4.8415,4.8797,4.9135,4.9285,4.9813,5.0445,5.0745,5.0362,5.0123,5.0089,4.9807,4.9541,4.8797,4.9446,4.8999,4.7934,4.7989,4.7773,4.6945,4.6856,4.655,4.5359,4.3935,4.3461,4.3266,4.089,3.9283,3.8903,3.8222,3.7125,3.6018,3.5653,3.5648,3.57,3.57,3.5659,3.569,3.5591,3.5475,3.57,3.5533,3.5465,3.5742,3.5763,3.549,3.4866,3.4124,3.3087,3.1999,3.1586,3.1526,3.1536,3.1536,3.1536,3.1458,3.1458,2.9328,2.6269,2.4635,2.3261,1.9503,1.8775,1.8826,1.9027,1.9137,1.9169,1.9227,1.9285,1.9337,1.945,1.9028,1.82,1.722,1.6538,1.585,1.5391,1.5543,1.5623,1.5543,1.5315,1.5163,1.4856,1.4628,1.4628,1.4704,1.4628,1.4628,1.4628,1.4628,1.4704,1.4704,1.4704,1.4931,5.8304,5.8304,5.8304,5.7346,5.5971,5.5539,5.3649,5.1123,5.045,4.9524,4.8447,4.8248,4.8248,4.8248,4.8248,4.8248,4.8248,4.8248,4.8248,4.8248,4.8248,4.8248,4.8211,4.8448,4.8481,4.8581,4.9152,4.9552,4.9752,4.9685,4.9518,4.9646,4.9652,4.9385,4.9535,5.0412,5.1087,5.053,5.057,4.989,4.8642,4.8292,4.7715,4.6564,4.5869,4.5926,4.4102,4.1383,3.9065,3.9478,3.9765,3.8128,3.5591,3.5256,3.5377,3.5648,3.558,3.545,3.5659,3.5669,3.568,3.5711,3.57,3.5742,3.5742,3.5763,3.549,3.4856,3.4056,3.3224,3.2401,3.1802,3.1526,3.1536,3.1536,3.1536,3.1536,3.1458,2.9726,2.5592,2.5009,2.2977,2.0407,1.8948,1.9037,1.9133,1.9133,1.9191,1.9281,1.9227,1.9258,1.9202,1.8574,1.7897,1.7144,1.631,1.5471,1.486,1.5011,1.5011,1.4935,1.486,1.4704,1.4628,1.4628,1.4628,1.4628,1.4628,1.4628,1.4628,1.4628,1.4628,1.4628,1.4628,1.4628,5.8304,5.8304,5.8304,5.7927,5.7192,5.6196,5.4398,5.2356,5.1176,4.9791,4.8518,4.8248,4.8248,4.8248,4.8248,4.8248,4.8248,4.8248,4.8248,4.8248,4.8248,4.8248,4.8248,4.8248,4.8248,4.8244,4.8564,4.8914,4.9302,4.9368,4.9563,4.9846,4.9962,4.9907,5.0029,5.0571,5.0513,5.0107,5.0075,4.9578,4.8226,4.8077,4.7523,4.7283,4.8292,4.776,4.5577,4.3275,4.1858,4.1564,4.0328,3.8423,3.603,3.5594,3.5575,3.5721,3.5606,3.5533,3.57,3.5512,3.558,3.568,3.5492,3.5533,3.57,3.5763,3.549,3.4856,3.4114,3.3293,3.2598,3.1861,3.1526,3.1536,3.1536,3.1536,3.1536,3.1536,2.9951,2.7684,2.5738,2.3859,2.1278,1.9657,1.919,1.9038,1.9006,1.9085,1.9207,1.9106,1.8978,1.8558,1.7973,1.7296,1.6538,1.5699,1.478,1.4704,1.478,1.4704,1.4704,1.4704,1.4628,1.4628,1.4628,1.4628,1.4628,1.4628,1.4628,1.4628,1.4628,1.4628,1.4628,1.4628,1.4628,5.8487,5.8507,5.8355,5.8304,5.8151,5.7038,5.5506,5.3824,5.2127,5.0574,4.9005,4.8393,4.8248,4.8248,4.8248,4.8248,4.8248,4.8248,4.8248,4.8248,4.8248,4.8248,4.8248,4.8248,4.8248,4.8248,4.8315,4.8598,4.9318,4.9368,4.9679,5.0339,5.0505,5.0695,5.0704,5.0921,5.0432,4.9793,4.9757,4.9381,4.8748,4.8616,4.8377,4.8542,5.0072,4.9294,4.6562,4.6179,4.5822,4.4943,4.2401,4.0098,3.8283,3.7119,3.6747,3.6632,3.6008,3.523,3.5262,3.5141,3.5214,3.5492,3.536,3.5308,3.5575,3.569,3.536,3.4635,3.4006,3.3293,3.2529,3.1852,3.1526,3.1536,3.1536,3.1536,3.1536,3.1467,3.0643,2.8526,2.6373,2.4323,2.2088,2.0262,1.8894,1.8816,1.8784,1.8784,1.8964,1.8937,1.8763,1.8148,1.758,1.6832,1.6006,1.5087,1.4628,1.4628,1.4628,1.4628,1.4628,1.4628,1.4628,1.4628,1.4628,1.4628,1.4628,1.4628,1.4628,1.4628,1.4628,1.4628,1.4628,1.4628,1.4628,5.9025,5.8974,5.8558,5.8355,5.8253,5.8151,5.7038,5.5454,5.3824,5.2145,5.0397,4.9022,4.8356,4.8248,4.8248,4.8248,4.8248,4.8248,4.8248,4.8248,4.8248,4.8248,4.8248,4.8248,4.8248,4.8248,4.8248,4.8598,4.9218,4.9335,4.9696,5.0355,5.0954,5.1394,5.1543,5.2143,5.2317,5.2031,5.2215,5.2156,5.2003,5.2079,5.202,5.2036,5.1688,5.0398,4.8306,4.8869,4.931,4.8444,4.6448,4.425,4.2144,3.9775,3.8597,3.8757,3.5802,3.4638,3.4405,3.4586,3.4677,3.5141,3.512,3.5228,3.5245,3.545,3.5273,3.4232,3.3837,3.3293,3.2529,3.1852,3.1526,3.1536,3.1536,3.1536,3.1536,3.1485,3.0504,2.8537,2.6407,2.4274,2.2159,2.0155,1.9081,1.8851,1.8647,1.8745,1.88,1.8858,1.8517,1.8023,1.7433,1.6644,1.5623,1.486,1.4628,1.4628,1.4628,1.4628,1.4628,1.4628,1.4628,1.4628,1.4628,1.4628,1.4628,1.4628,1.4628,1.4628,1.4628,1.4628,1.4628,1.4628,1.4628,5.9399,5.9075,5.8873,5.864,5.8304,5.8304,5.7365,5.5816,5.5144,5.3301,5.1035,5.0041,4.922,4.8356,4.8248,4.8248,4.8248,4.8248,4.8248,4.8248,4.8248,4.8248,4.8248,4.8248,4.8248,4.8248,4.8248,4.8398,4.8664,4.9152,4.9696,5.0372,5.1127,5.1751,5.2268,5.2534,5.2701,5.2701,5.2701,5.2701,5.2701,5.2701,5.2701,5.2583,5.202,5.1041,4.9779,4.9477,4.93,4.8591,4.7095,4.5297,4.3371,4.1038,3.9521,3.8887,3.6655,3.4534,3.4374,3.4322,3.4478,3.4659,3.4701,3.4701,3.4795,3.5151,3.5014,3.4151,3.3777,3.3302,3.2519,3.1852,3.1526,3.1526,3.1517,3.1536,3.1563,3.1738,3.0805,2.8679,2.6771,2.4664,2.2358,2.0298,1.9016,1.8889,1.8793,1.8798,1.8857,1.8905,1.812,1.7438,1.7089,1.6346,1.5387,1.4935,1.4628,1.4628,1.4628,1.4628,1.4628,1.4628,1.4628,1.4628,1.4628,1.4628,1.4628,1.4628,1.4628,1.4628,1.4628,1.4628,1.4628,1.4628,1.4628,5.9903,5.958,5.9227,5.8893,5.8538,5.8406,5.7723,5.6608,5.599,5.4502,5.239,5.1229,5.0095,4.9129,4.841,4.8248,4.8248,4.8248,4.8248,4.8248,4.8248,4.8248,4.8248,4.8248,4.8248,4.8248,4.8248,4.8294,4.861,4.9135,4.9829,5.0661,5.1261,5.1876,5.2617,5.2701,5.2701,5.2701,5.2701,5.2701,5.2701,5.2701,5.2701,5.2566,5.1843,5.1176,5.0729,4.9513,4.8797,4.8797,4.7478,4.6571,4.571,4.3526,4.1728,4.0425,3.7538,3.5368,3.4247,3.4,3.4031,3.4209,3.4241,3.4241,3.4293,3.468,3.4526,3.3684,3.3581,3.3185,3.2447,3.1871,3.1656,3.1607,3.1616,3.1625,3.1508,3.1669,3.0754,2.8749,2.6851,2.4824,2.2453,2.0259,1.9,1.8883,1.8862,1.8633,1.8534,1.8448,1.8078,1.6698,1.6633,1.623,1.5315,1.4704,1.4628,1.4628,1.4628,1.4628,1.4628,1.4628,1.4628,1.4628,1.4628,1.4628,1.4628,1.4628,1.4628,1.4628,1.4628,1.4628,1.4628,1.4628,1.4628,6.0605,6.0455,5.953,5.9176,5.9025,5.8609,5.8304,5.7927,5.6608,5.5765,5.478,5.2232,5.0805,5.0237,4.8861,4.8248,4.8248,4.8248,4.8248,4.8248,4.8248,4.8248,4.8248,4.8248,4.8248,4.8248,4.8248,4.8598,4.9152,4.9335,5.0002,5.1185,5.1368,5.1727,5.2634,5.2584,5.2634,5.2701,5.2701,5.2701,5.2701,5.2701,5.2701,5.2566,5.1472,5.0805,5.067,4.9485,4.8905,4.8814,4.8694,4.94,4.9872,4.7828,4.5517,4.2872,3.9147,3.594,3.3698,3.3289,3.3403,3.374,3.378,3.3844,3.3833,3.4188,3.3998,3.3291,3.3284,3.3164,3.2315,3.194,3.194,3.1872,3.167,3.1636,3.1516,3.1448,3.0696,2.8869,2.6672,2.4414,2.232,2.0264,1.9084,1.89,1.8879,1.8664,1.7999,1.8008,1.727,1.6198,1.5952,1.5842,1.5163,1.4628,1.4628,1.4628,1.4628,1.4628,1.4628,1.4628,1.4628,1.4628,1.4628,1.4628,1.4628,1.4628,1.4628,1.4628,1.4628,1.4628,1.4628,1.4628,1.4628,6.0984,6.0605,6.0305,5.9953,5.9601,5.9045,5.8842,5.8721,5.7876,5.6833,5.5506,5.344,5.1758,5.061,4.8968,4.8248,4.8248,4.8248,4.8248,4.8248,4.8248,4.8248,4.8248,4.8248,4.8248,4.8248,4.8248,4.8294,4.8631,4.9135,4.9602,5.0062,5.0488,5.1127,5.1727,5.1918,5.2201,5.2634,5.2701,5.2684,5.2701,5.2701,5.2701,5.2508,5.1413,5.0524,5.0065,4.9682,4.9446,4.9446,4.9446,5.0125,5.1187,4.9345,4.7308,4.5362,4.0946,3.7385,3.5781,3.3979,3.3131,3.3278,3.3288,3.3288,3.332,3.3717,3.3923,3.3891,3.3913,3.3754,3.3243,3.2598,3.2283,3.2525,3.154,3.1072,3.158,3.1374,3.1014,3.0282,2.7825,2.499,2.2753,2.0554,1.9446,1.9259,1.9254,1.8803,1.8048,1.7939,1.7601,1.5988,1.5747,1.5374,1.486,1.4628,1.4628,1.4628,1.4628,1.4628,1.4628,1.4628,1.4628,1.4628,1.4628,1.4628,1.4628,1.4628,1.4628,1.4628,1.4628,1.4628,1.4704,1.4628,1.5087,6.1511,6.1184,6.0806,6.0455,6.0074,5.9621,5.9247,5.9075,5.8741,5.7876,5.6557,5.4936,5.323,5.1546,5.0058,4.9273,4.9076,4.8447,4.8248,4.8248,4.8248,4.8248,4.8248,4.8248,4.8248,4.8248,4.8248,4.8248,4.8261,4.8698,4.9102,4.9402,4.9813,5.0395,5.0978,5.1094,5.1477,5.2184,5.2268,5.2434,5.2651,5.2701,5.2566,5.2314,5.1278,5.0405,4.9799,4.953,4.9539,4.9755,4.977,5.0449,5.1573,5.0556,4.9076,4.7175,4.3719,4.041,3.7861,3.5997,3.461,3.3531,3.332,3.3341,3.3362,3.3656,3.4023,3.4301,3.4214,3.4251,3.4215,3.376,3.3367,3.3253,3.217,3.154,3.1739,3.1454,3.1241,3.1051,2.8955,2.5672,2.3124,2.0747,1.9471,1.9476,1.9471,1.8875,1.8042,1.772,1.7164,1.5726,1.5316,1.5243,1.4628,1.4628,1.4628,1.4628,1.4628,1.4628,1.4628,1.4628,1.4628,1.4628,1.4628,1.4628,1.4628,1.4628,1.4628,1.4628,1.4628,1.4704,1.5011,1.5243,1.5623,6.2183,6.2007,6.1063,6.0706,6.0635,6.0042,5.9589,5.9227,5.9044,5.8782,5.8131,5.6557,5.4931,5.3347,5.2264,5.1334,5.0539,4.9183,4.8464,4.8248,4.8248,4.8248,4.8248,4.8248,4.8248,4.8248,4.8248,4.8248,4.8248,4.8227,4.8598,4.9268,4.9318,4.9646,5.0206,5.0322,5.0671,5.1477,5.156,5.1876,5.2601,5.2701,5.2373,5.1649,5.1058,5.0389,4.9723,4.9158,4.9123,4.9755,4.977,5.0356,5.167,5.1683,5.0588,4.8456,4.7188,4.44,4.0031,3.9002,3.7521,3.484,3.4369,3.4058,3.394,3.3853,3.4073,3.4395,3.4444,3.4708,3.5095,3.4817,3.4595,3.407,3.3379,3.2545,3.1978,3.1662,3.1328,3.0818,2.9587,2.7097,2.3267,2.0804,1.9676,1.9476,1.9476,1.8937,1.7717,1.7201,1.6529,1.5374,1.4772,1.4628,1.4628,1.4628,1.4628,1.4628,1.4628,1.4628,1.4628,1.4628,1.4628,1.4628,1.4628,1.4628,1.4628,1.4628,1.4628,1.4628,1.4628,1.5239,1.585,1.5931,1.631,6.2007,6.161,6.1333,6.1234,6.112,5.9993,5.973,6.008,5.908,5.8954,5.9227,5.7683,5.6319,5.5265,5.4903,5.3454,5.144,5.084,4.9809,4.8302,4.8248,4.8248,4.8248,4.8248,4.8248,4.8248,4.8248,4.8248,4.8248,4.8248,4.8348,4.8444,4.8531,4.8914,4.9546,4.963,5.0229,5.1344,5.1477,5.1843,5.2584,5.2701,5.2137,5.1101,5.0805,5.0211,4.9111,4.9351,4.9585,4.977,4.977,5.0171,5.1083,5.065,5.0293,5.0003,4.811,4.592,4.4131,4.2587,4.053,3.7784,3.7385,3.6503,3.4772,3.4262,3.4481,3.4889,3.4973,3.5141,3.546,3.4946,3.4636,3.4672,3.2891,3.214,3.2564,3.1659,3.1048,3.0888,3.0625,2.9008,2.4869,2.1686,1.9611,1.9471,1.9476,1.9022,1.82,1.7443,1.6765,1.5779,1.5011,1.4704,1.4628,1.4628,1.4628,1.4628,1.4628,1.4628,1.4628,1.4628,1.4628,1.4628,1.4628,1.4628,1.4628,1.4628,1.4628,1.4704,1.5163,1.5855,1.6613,1.6765,1.7144,6.0899,6.0628,6.0406,6.0336,6.0224,5.9424,5.9238,5.9434,5.8619,5.8458,5.8617,5.8172,5.752,5.6737,5.5988,5.4574,5.2428,5.1392,5.0102,4.8776,4.833,4.8248,4.8248,4.8248,4.8248,4.8248,4.8248,4.8248,4.8248,4.8248,4.8248,4.8248,4.8248,4.8394,4.8902,4.8881,4.9596,5.0994,5.1061,5.1577,5.2551,5.2701,5.202,5.0864,5.0745,5.0168,4.9023,4.9123,4.9493,4.9755,4.977,5.0079,5.0913,5.0511,5.048,5.0773,4.9354,4.7832,4.627,4.5108,4.3268,4.0475,3.9186,3.8019,3.6589,3.519,3.4649,3.5078,3.5172,3.535,3.5659,3.5252,3.5039,3.5076,3.3506,3.2496,3.3016,3.1937,3.1066,3.0947,3.12,2.9804,2.5771,2.3165,2.1383,1.9676,1.9476,1.9103,1.8347,1.7594,1.6841,1.6082,1.5471,1.5011,1.4628,1.4628,1.4628,1.4628,1.4628,1.4628,1.4628,1.4628,1.4628,1.4628,1.4628,1.4628,1.4704,1.478,1.5163,1.5319,1.5855,1.6613,1.7443,1.7594,1.7897,5.948,5.9317,5.8929,5.8744,5.8786,5.8611,5.8347,5.8071,5.7945,5.7575,5.7233,5.802,5.8152,5.7713,5.6288,5.5042,5.38,5.1472,4.9971,4.9282,4.8476,4.8094,4.8045,4.8161,4.8248,4.8248,4.8248,4.8248,4.8248,4.8248,4.8248,4.8248,4.8248,4.8265,4.8265,4.8281,4.8909,5.0322,5.0289,5.0937,5.2384,5.2551,5.1921,5.0649,5.0697,5.0108,4.8872,4.8737,4.9045,4.9616,4.9647,5.0001,5.0573,5.0727,5.0681,5.0665,5.0665,4.9717,4.7263,4.7006,4.5899,4.3103,4.0411,3.8934,3.8964,3.6446,3.4904,3.4942,3.5046,3.5162,3.5632,3.5575,3.5492,3.5382,3.4252,3.3467,3.3027,3.2117,3.1324,3.0937,3.1269,2.9977,2.6398,2.512,2.3662,2.0397,1.966,1.9116,1.8559,1.7822,1.7068,1.6462,1.6011,1.5551,1.5011,1.4704,1.4628,1.4628,1.4628,1.4704,1.4856,1.478,1.478,1.5239,1.5007,1.5083,1.5163,1.5395,1.6006,1.6082,1.6609,1.7438,1.8049,1.8347,1.8649,5.9244,5.8865,5.8722,5.8744,5.868,5.7958,5.797,5.8448,5.7749,5.703,5.6349,5.649,5.696,5.7411,5.7084,5.6233,5.4896,5.2781,5.0825,4.9076,4.7839,4.7313,4.738,4.7928,4.8248,4.8248,4.8248,4.8248,4.8248,4.8248,4.8248,4.8248,4.8248,4.8248,4.8248,4.8248,4.8909,5.0222,4.9863,4.9996,5.0837,5.146,5.118,4.9974,5.0381,5.0108,4.8872,4.8737,4.8874,4.9028,4.8984,4.9121,4.9245,4.9275,4.926,4.926,4.9275,4.9173,4.9066,4.9628,4.8698,4.5948,4.3154,4.073,3.881,3.7551,3.6388,3.4864,3.4455,3.4369,3.4712,3.4719,3.4687,3.4687,3.398,3.336,3.3034,3.2334,3.1601,3.1042,3.1269,3.0442,2.778,2.5998,2.4217,2.1823,2.0127,1.9275,1.9137,1.8498,1.8049,1.7519,1.6689,1.5931,1.5703,1.5087,1.4704,1.4628,1.4628,1.5011,1.5471,1.5627,1.5779,1.6306,1.6457,1.6381,1.6453,1.6685,1.6836,1.6912,1.7443,1.8039,1.8337,1.871,1.9249,5.7891,5.7474,5.7474,5.7474,5.7431,5.6921,5.7006,5.741,5.6921,5.6412,5.6011,5.5989,5.6287,5.6688,5.6709,5.62,5.5206,5.2751,5.0921,4.9411,4.7505,4.6617,4.6648,4.7366,4.7679,4.7695,4.8028,4.8248,4.8248,4.8248,4.8248,4.8248,4.8248,4.8248,4.8248,4.8248,4.8743,4.9863,4.9417,4.9342,4.9689,4.9946,4.9366,4.7997,4.8222,4.7961,4.6944,4.6944,4.6959,4.6944,4.6944,4.7098,4.7318,4.7364,4.7488,4.7839,4.7929,4.8083,4.8411,4.881,4.8671,4.7642,4.5326,4.3065,4.1041,3.9892,3.8331,3.6151,3.575,3.5269,3.4453,3.4374,3.4374,3.4374,3.3804,3.339,3.3157,3.2467,3.1776,3.1477,3.1396,3.0613,2.825,2.7156,2.5603,2.2494,2.1409,2.0324,1.9515,1.894,1.8523,1.8251,1.7594,1.6912,1.6538,1.6078,1.577,1.5766,1.577,1.5922,1.631,1.6466,1.6613,1.6993,1.7068,1.7068,1.7068,1.7367,1.7594,1.767,1.8271,1.8664,1.8683,1.9031,1.9386,5.6281,5.5989,5.5989,5.5989,5.5989,5.5989,5.5989,5.5989,5.5989,5.5989,5.5989,5.5989,5.5989,5.5989,5.5989,5.5718,5.5145,5.2453,5.0786,5.0003,4.7525,4.6227,4.5935,4.6582,4.6897,4.6964,4.7662,4.8045,4.8045,4.8144,4.8248,4.8248,4.8248,4.8248,4.8248,4.8248,4.8552,4.9292,4.9046,4.9008,4.9093,4.8622,4.7664,4.6215,4.5971,4.5416,4.4612,4.4665,4.4689,4.4542,4.4597,4.4797,4.5251,4.5282,4.5585,4.6182,4.6285,4.6378,4.6522,4.6522,4.7109,4.8261,4.6506,4.4742,4.3556,4.2046,4.013,3.7629,3.7157,3.6484,3.4472,3.4167,3.4188,3.4144,3.3719,3.3389,3.3254,3.2432,3.1778,3.173,3.1526,3.0575,2.8994,2.8386,2.664,2.3351,2.2104,2.1582,1.9792,1.9106,1.8813,1.8463,1.8322,1.7968,1.7443,1.7215,1.6912,1.7068,1.6988,1.6988,1.722,1.7296,1.7372,1.7443,1.7551,1.7462,1.7457,1.7905,1.8222,1.8358,1.8728,1.9136,1.8974,1.9137,1.9148,5.6013,5.5989,5.5989,5.5989,5.5989,5.5989,5.5989,5.5989,0.0,0.0,0.0,5.5989,5.5989,5.5989,5.5989,5.5965,5.5673,5.3541,5.163,4.9944,4.8396,4.6742,4.522,4.5919,4.6253,4.6286,4.695,4.7247,4.728,4.7895,4.8248,4.8248,4.8248,4.8248,4.8248,4.8248,4.8444,4.8874,4.8878,4.9154,4.9755,4.9397,4.8193,4.6288,4.637,4.5635,4.4002,4.4442,4.4434,4.3933,4.3902,4.3685,4.3322,4.3291,4.3337,4.3445,4.3461,4.3955,4.5013,4.5091,4.5677,4.7079,4.5308,4.3417,4.1517,4.1642,4.0138,3.6178,3.5739,3.4846,3.2993,3.3069,3.3299,3.3299,3.3172,3.302,3.2781,3.2156,3.1664,3.1454,3.1242,3.0808,3.0352,2.9157,2.7152,2.464,2.304,2.1098,1.9209,1.8846,1.8858,1.8841,1.8487,1.8251,1.7963,1.757,1.714,1.7107,1.7116,1.7367,1.7897,1.8044,1.8271,1.8609,1.8857,1.861,1.8654,1.862,1.878,1.8774,1.8843,1.8973,1.8868,1.8968,1.8826,5.6823,5.5989,5.5989,5.5989,0.0,5.5989,5.5689,5.5241,5.5777,5.5989,5.5989,5.5989,5.5989,5.5989,5.5989,5.5989,5.5899,5.3792,5.239,5.1321,4.8662,4.6862,4.5868,4.5606,4.5452,4.5485,4.6184,4.6567,4.6617,4.7247,4.7405,4.6965,4.7686,4.7775,4.7381,4.7719,4.7793,4.7624,4.8364,4.8795,4.8726,4.8085,4.7011,4.562,4.4987,0.0,0.0,0.0,0.0,0.0,0.0,0.0,0.0,0.0,0.0,4.0666,3.9427,3.907,4.001,4.0087,4.0983,4.3028,4.2333,4.1184,3.9847,4.1398,4.0924,3.7487,3.6319,3.5137,3.3376,3.2481,3.2073,3.2104,3.2502,3.2734,3.2555,3.2329,3.1982,3.1587,3.1284,3.1033,3.094,3.0057,2.8712,2.6772,2.4692,2.2711,2.0585,1.9332,1.8719,1.8763,1.8611,1.8538,1.8538,1.8172,1.787,1.7493,1.7414,1.7419,1.7419,1.7344,1.7488,1.785,1.8219,1.8359,1.8349,1.8277,1.8273,1.8273,1.8273,1.8264,1.8258,1.8356,1.8372,5.7806,5.6138,5.6072,5.5831,5.5458,5.566,5.5188,5.4219,5.5264,5.5689,5.5689,5.5904,5.5989,5.5989,5.5989,5.5989,5.5878,5.4245,5.3185,5.2473,4.9246,4.7282,4.6353,4.5448,4.4868,4.4587,4.5386,4.587,4.5852,4.6515,4.6456,4.5808,4.6921,4.7128,4.6374,0.0,0.0,0.0,4.7896,4.8415,4.7913,4.672,4.5653,4.472,4.3325,0.0,4.2177,4.227,4.2301,4.2162,4.155,0.0,0.0,0.0,0.0,0.0,0.0,0.0,0.0,0.0,0.0,0.0,3.8373,3.8219,3.8173,4.0353,4.0711,3.8073,3.7164,3.5856,3.3496,3.2115,3.1281,3.1038,3.1584,3.2079,3.2022,3.209,3.1946,3.14,3.116,3.0954,3.0636,3.0744,3.005,2.8137,2.6217,2.4206,2.2381,1.9983,1.8417,1.844,1.8625,1.8814,1.8857,1.8664,1.8247,1.7904,1.7612,1.7189,1.6686,1.6613,1.6604,1.6766,1.7189,1.7688,1.7778,1.7665,1.7764,1.7763,1.7732,1.7612,1.7482,1.7694,1.7901,5.8569,5.651,5.6444,5.5313,5.3523,5.464,5.4425,5.3308,5.422,5.46,5.4687,5.5583,5.5989,5.5989,5.5989,5.5989,5.5944,5.5742,5.4195,5.172,5.1157,4.868,4.4753,4.5178,4.4568,4.3137,4.4404,4.5019,4.5119,4.5852,4.6136,4.6022,4.6206,4.6144,4.5789,4.6197,4.6355,4.6285,4.7587,4.858,4.9149,4.713,4.5403,4.4087,4.256,4.121,4.0118,4.0612,4.0643,4.0072,3.9964,3.9719,3.9193,3.825,3.6921,0.0,3.4261,0.0,0.0,0.0,0.0,0.0,0.0,0.0,0.0,3.7446,3.713,3.4032,3.6156,3.5978,3.1658,3.2007,3.1901,3.0578,3.0523,3.0586,3.0615,3.0388,3.0199,3.0011,3.0038,2.9977,2.9833,3.0098,2.9723,2.7984,2.5925,2.4297,2.3494,2.0416,1.8094,1.8393,1.8467,1.8554,1.8647,1.8284,1.7766,1.7645,1.7179,1.6668,1.6456,1.6466,1.6656,1.7,1.7137,1.7459,1.7925,1.7808,1.7761,1.7852,1.7862,1.7494,1.6826,1.6988,1.7338,5.713,5.5016,5.5595,5.4465,5.243,5.2707,5.2527,5.2032,5.267,5.2905,5.2968,5.3967,5.4372,5.4349,5.4372,5.4669,5.5071,5.4583,5.3951,5.3062,5.1502,4.9643,4.7598,4.7248,4.6122,4.4374,4.5428,4.5423,4.4453,4.5069,4.5103,4.4599,4.5405,4.479,4.2837,4.4126,4.5269,4.6123,4.6752,4.7329,4.7911,4.672,4.5481,4.4261,4.2954,4.1956,4.1404,4.1683,4.1698,4.1389,4.0968,4.0424,3.9732,3.6613,3.4714,0.0,0.0,0.0,0.0,0.0,0.0,0.0,0.0,0.0,0.0,0.0,3.441,3.3454,3.5623,3.5616,3.2197,3.2042,3.1363,2.9579,2.9558,2.9717,2.9965,2.9809,2.9701,2.9554,2.9844,2.9872,2.9535,2.9918,2.9916,2.9261,2.7237,2.5493,2.4293,2.1647,1.9083,1.8056,1.7838,1.787,1.7891,1.7615,1.7194,1.6794,1.6535,1.6187,1.5477,1.5454,1.5537,1.5702,1.615,1.6674,1.6861,1.6909,1.6975,1.7211,1.7858,1.7899,1.6659,1.6826,1.7156,5.6912,5.431,5.3712,5.2553,5.12,5.102,5.109,5.1333,5.1869,5.19,5.1762,5.2795,5.2797,5.1989,5.152,5.2033,5.3182,5.2247,5.2566,5.3581,5.1273,4.9979,4.948,4.8384,4.6833,4.5108,4.582,4.5345,4.3783,4.4526,4.4146,4.2637,4.3841,4.3006,4.0243,4.2159,4.4067,4.5794,4.6101,4.6523,4.6853,4.5977,4.5129,4.4363,4.2961,4.2255,4.2255,4.2255,4.2255,4.2239,4.1056,4.0208,3.9622,3.4794,0.0,0.0,0.0,0.0,0.0,0.0,0.0,0.0,0.0,2.9649,2.5757,0.0,3.2181,0.0,3.5009,3.5262,3.314,3.2303,0.0,0.0,2.8534,2.8495,2.863,2.8892,2.893,2.8653,2.9342,2.971,2.9372,2.9647,2.985,2.9632,2.7931,2.6282,2.5157,2.2951,2.0894,1.9568,1.9301,1.8951,1.9112,1.8715,1.8433,1.7487,1.7447,1.7206,1.6262,1.6206,1.6282,1.618,1.6751,1.7306,1.7493,1.7547,1.7712,1.7696,1.8767,1.9281,1.7914,1.7949,1.8032,5.9716,5.5877,5.0606,4.8627,4.9147,5.0141,5.1039,5.1891,5.2776,5.2588,5.1844,5.3155,5.1975,4.8859,4.7031,0.0,4.9719,4.8856,4.9682,5.1845,5.083,4.944,4.7779,4.6756,4.5294,4.3552,4.4191,4.3934,4.2981,4.4329,4.3391,4.0232,4.0715,4.0518,3.9662,4.0895,4.271,4.4959,4.6269,4.6971,4.6981,4.5018,4.3873,4.3791,4.186,4.0779,4.0779,4.0829,4.0829,4.0686,3.8326,3.6878,3.6753,0.0,0.0,0.0,0.0,0.0,0.0,0.0,0.0,0.0,0.0,0.0,0.0,0.0,0.0,0.0,3.4067,0.0,3.3707,3.2856,0.0,0.0,0.0,2.6122,2.5692,2.6921,2.7502,2.6737,0.0,0.0,2.9159,2.919,2.8909,2.7923,2.6324,2.551,2.6178,2.4337,2.3188,2.3502,2.3834,2.3804,2.3272,2.2973,2.2242,2.1244,2.114,2.0799,2.0589,2.0634,2.0825,2.0626,2.1096,2.1194,2.1418,2.1308,2.1469,2.1047,2.1231,2.1298,2.0922,2.0868,2.0434,5.4128,5.0122,4.7366,4.6343,4.6502,4.6113,4.7321,4.9562,4.96,4.8961,4.8014,4.913,4.7384,4.3475,4.2222,0.0,0.0,0.0,4.5717,4.8632,4.7675,4.7659,4.8441,4.8593,4.7917,4.6664,4.7046,4.6465,4.4859,4.5189,4.2027,3.5797,0.0,0.0,3.6497,3.9571,4.209,4.3946,4.6009,4.7062,4.6996,4.5511,4.4081,4.2822,4.1405,4.0624,4.0624,4.0624,3.9869,3.8218,3.6738,3.4995,0.0,0.0,0.0,0.0,0.0,0.0,0.0,0.0,0.0,0.0,0.0,2.4752,2.2632,0.0,0.0,0.0,2.8899,2.9711,3.0093,3.1525,0.0,0.0,0.0,0.0,0.0,0.0,0.0,2.5827,2.6324,2.6905,2.7446,2.8279,2.8646,2.8132,2.7857,2.7298,2.6344,0.0,2.4365,2.3229,2.3349,2.3492,2.3243,2.3211,2.3132,2.282,2.2494,2.21,2.1823,2.1558,2.1324,2.1263,2.1416,2.1537,2.1603,2.3008,2.3715,2.2422,2.215,2.1878,2.1015,2.1018,2.0979,4.7856,0.0,0.0,0.0,0.0,4.2628,4.3945,4.6717,4.6354,4.5361,4.4028,4.4831,0.0,0.0,0.0,0.0,0.0,0.0,4.2001,4.5423,4.542,4.657,4.8707,4.8893,4.851,4.7802,4.8084,4.6892,4.4473,4.3391,3.9174,3.2031,0.0,0.0,0.0,0.0,4.0942,4.2759,4.5551,4.7062,4.7062,4.5899,4.4423,4.2674,4.1355,4.0624,4.0609,3.9869,3.8465,3.6381,3.4173,0.0,0.0,0.0,0.0,0.0,0.0,0.0,0.0,0.0,0.0,0.0,0.0,0.0,0.0,0.0,0.0,0.0,0.0,0.0,2.7557,3.0074,3.0437,0.0,0.0,0.0,0.0,0.0,0.0,0.0,0.0,0.0,2.569,2.6748,2.7474,0.0,0.0,2.7833,2.668,2.6393,2.5836,2.4444,2.4546,0.0,2.44,2.4462,2.4593,2.4778,2.4332,2.3774,2.3433,2.3369,2.3224,2.2781,2.2823,2.2937,2.3129,2.4468,2.4943,2.3993,2.3551,2.3122,2.2357,2.2443,2.2585,0.0,0.0,0.0,0.0,0.0,0.0,0.0,0.0,4.364,4.2399,0.0,4.0948,0.0,0.0,0.0,0.0,3.4056,3.5899,0.0,0.0,4.4827,4.6708,4.7806,4.6232,4.5457,4.544,4.5772,4.3929,4.0054,3.7738,0.0,0.0,0.0,0.0,0.0,0.0,3.901,4.1144,4.5016,4.7062,4.7014,4.5881,4.4765,4.3641,4.1686,4.0594,4.0501,3.8049,3.6321,3.5532,2.9927,0.0,0.0,0.0,0.0,0.0,0.0,0.0,0.0,0.0,0.0,0.0,0.0,0.0,0.0,0.0,0.0,0.0,0.0,0.0,0.0,2.8753,0.0,0.0,0.0,0.0,0.0,0.0,0.0,0.0,0.0,0.0,2.4136,2.4427,2.4966,2.5979,0.0,0.0,0.0,0.0,2.7747,2.88,2.9086,2.9083,2.9018,2.8529,2.8038,2.7851,0.0,0.0,2.6606,2.7476,2.7721,2.6915,2.6515,2.6734,2.6788,2.6035,2.5648,2.5953,2.5548,2.5638,2.6045,2.5872,2.5915,0.0,0.0,0.0,0.0,0.0,0.0,0.0,0.0,0.0,3.83,0.0,3.7112,0.0,0.0,0.0,0.0,0.0,0.0,0.0,0.0,3.8693,4.062,4.2701,4.3428,4.3423,0.0,4.2454,3.9712,0.0,0.0,0.0,0.0,0.0,0.0,0.0,0.0,3.8807,4.066,4.4108,4.5899,4.585,4.4813,4.3788,4.2773,4.2033,4.0287,3.7416,3.5594,3.3494,0.0,0.0,0.0,0.0,0.0,0.0,0.0,0.0,0.0,0.0,0.0,0.0,0.0,0.0,0.0,0.0,0.0,0.0,0.0,0.0,0.0,0.0,0.0,2.705,0.0,0.0,0.0,0.0,0.0,0.0,0.0,0.0,0.0,2.322,2.4361,2.51,2.5051,2.5806,2.6442,2.657,0.0,0.0,0.0,0.0,0.0,0.0,0.0,2.7612,2.8266,2.7563,2.6911,2.6823,2.6949,2.6989,2.6732,0.0,0.0,2.4389,2.3404,2.2932,2.312,2.2983,2.2979,2.3473,2.3641,2.3786,0.0,0.0,0.0,0.0,0.0,0.0,0.0,0.0,0.0,3.4233,3.2787,0.0,0.0,0.0,0.0,0.0,0.0,0.0,0.0,0.0,0.0,0.0,3.8567,3.9984,0.0,0.0,0.0,0.0,0.0,0.0,0.0,0.0,0.0,0.0,0.0,0.0,3.836,4.0151,4.3569,4.5606,4.5833,4.4472,4.328,4.2415,4.1665,3.9707,3.631,0.0,0.0,0.0,0.0,0.0,0.0,0.0,0.0,0.0,0.0,0.0,0.0,0.0,0.0,0.0,0.0,0.0,0.0,0.0,0.0,0.0,0.0,0.0,0.0,0.0,2.4923,0.0,0.0,0.0,0.0,0.0,0.0,0.0,0.0,0.0,0.0,0.0,2.4665,2.4751,2.5183,2.5511,2.5583,2.575,2.5762,0.0,0.0,0.0,0.0,0.0,0.0,0.0,0.0,0.0,0.0,0.0,0.0,0.0,0.0,2.5159,2.2996,2.2,2.1511,2.1671,0.0,0.0,0.0,0.0,0.0,0.0,0.0,0.0,0.0,0.0,0.0,0.0,0.0,0.0,0.0,2.7797,0.0,0.0,2.3532,0.0,0.0,0.0,0.0,0.0,0.0,0.0,0.0,0.0,0.0,0.0,0.0,0.0,0.0,0.0,0.0,0.0,0.0,0.0,0.0,0.0,0.0,3.7787,3.941,4.3465,4.6015,4.6859,4.4779,4.3226,4.2563,4.0658,3.8921,3.7443,0.0,0.0,0.0,0.0,0.0,0.0,0.0,0.0,0.0,0.0,0.0,0.0,0.0,0.0,0.0,0.0,0.0,0.0,0.0,0.0,0.0,0.0,0.0,0.0,0.0,0.0,2.3461,2.5967,2.7128,0.0,0.0,0.0,0.0,0.0,0.0,0.0,0.0,0.0,2.5012,2.3881,2.3363,2.4512,2.5103,2.526,2.4911,2.5902,2.646,2.56,2.575,2.5641,0.0,0.0,0.0,0.0,0.0,0.0,0.0,0.0,0.0,0.0,0.0,0.0,0.0,0.0,0.0,0.0,0.0,0.0,0.0,0.0,0.0,0.0,0.0,0.0,0.0,0.0,0.0,0.0,0.0,0.0,0.0,0.0,0.0,0.0,0.0,0.0,0.0,0.0,0.0,0.0,0.0,0.0,0.0,0.0,0.0,0.0,0.0,0.0,0.0,0.0,0.0,0.0,0.0,0.0,3.8464,4.2105,4.3216,4.437,4.5625,4.2062,4.0118,3.9897,3.8858,3.7396,0.0,0.0,0.0,0.0,0.0,0.0,0.0,0.0,0.0,0.0,0.0,0.0,0.0,0.0,0.0,0.0,0.0,0.0,0.0,0.0,0.0,0.0,0.0,0.0,0.0,0.0,0.0,0.0,2.5174,2.5447,2.4616,0.0,0.0,0.0,0.0,0.0,0.0,0.0,0.0,0.0,0.0,2.29,2.3861,2.4139,2.4228,2.4108,2.443,2.4739,2.4899,2.4388,2.4276,2.5042,0.0,0.0,0.0,0.0,0.0,0.0,0.0,0.0,0.0,0.0,0.0,0.0,0.0,0.0,0.0,0.0,0.0,0.0,0.0,0.0,0.0,0.0,0.0,0.0,0.0,0.0,0.0,0.0,0.0,0.0,0.0,0.0,0.0,0.0,0.0,0.0,0.0,0.0,0.0,0.0,0.0,0.0,0.0,0.0,0.0,0.0,0.0,0.0,0.0,0.0,0.0,0.0,0.0,3.8272,4.2658,4.352,4.4549,4.5705,4.2613,4.0498,3.9649,3.861,3.6705,0.0,0.0,0.0,0.0,0.0,0.0,0.0,0.0,0.0,0.0,0.0,0.0,0.0,0.0,0.0,0.0,0.0,0.0,0.0,0.0,0.0,0.0,0.0,0.0,0.0,0.0,0.0,0.0,2.274,2.3437,2.3769,0.0,0.0,0.0,0.0,0.0,0.0,0.0,0.0,0.0,0.0,2.2543,2.2904,2.3311,0.0,0.0,2.3541,2.3882,2.4056,2.3506,2.329,2.3872,2.3291,0.0,0.0,0.0,0.0,0.0,0.0,0.0,0.0,0.0,0.0,0.0,0.0,0.0,0.0,0.0,0.0,0.0,0.0,0.0,0.0,0.0,0.0,0.0,0.0,0.0,0.0,0.0,0.0,0.0,0.0,0.0,0.0,0.0,0.0,0.0,0.0,0.0,0.0,0.0,0.0,0.0,0.0,0.0,0.0,0.0,0.0,0.0,0.0,0.0,0.0,0.0,0.0,3.7519,4.1783,4.4334,4.6036,4.6963,4.5102,4.3,4.0968,3.9328,3.6507,0.0,0.0,0.0,0.0,0.0,0.0,0.0,0.0,0.0,0.0,0.0,0.0,0.0,0.0,0.0,0.0,0.0,0.0,0.0,0.0,0.0,0.0,0.0,0.0,0.0,0.0,0.0,0.0,0.0,0.0,0.0,0.0,0.0,0.0,0.0,0.0,0.0,0.0,0.0,0.0,0.0,2.2218,2.1861,2.2639,2.3091,0.0,2.3254,2.3616,2.3171,2.2946,2.2508,2.1775,0.0,0.0,0.0,0.0,0.0,0.0,0.0,0.0,0.0,0.0,0.0,0.0,0.0,0.0,0.0,0.0,0.0,0.0,0.0,0.0,0.0,0.0,0.0,0.0,0.0,0.0,0.0,0.0,0.0,0.0,0.0,0.0,0.0,0.0,0.0,0.0,0.0,0.0,0.0,0.0,0.0,0.0,0.0,0.0,0.0,0.0,0.0,0.0,0.0,0.0,0.0,0.0,0.0,0.0,4.2842,4.499,4.5902,4.5394,4.2646,3.9988,3.7803,3.6876,0.0,0.0,0.0,0.0,0.0,0.0,0.0,0.0,0.0,0.0,0.0,0.0,0.0,0.0,0.0,0.0,0.0,0.0,0.0,0.0,0.0,0.0,0.0,0.0,0.0,0.0,0.0,1.6168,0.0,0.0,0.0,0.0,0.0,0.0,0.0,0.0,0.0,0.0,0.0,0.0,0.0,0.0,2.0717,2.212,2.2214,2.2267,0.0,0.0,2.236,2.2523,2.1963,2.1652,0.0,0.0,0.0,0.0,0.0,0.0,0.0,0.0,0.0,0.0,0.0,0.0,0.0,0.0,0.0,0.0,0.0,0.0,0.0,0.0,0.0,0.0,0.0,0.0,0.0,0.0,0.0,0.0,0.0,0.0,0.0,0.0,0.0,0.0,0.0,0.0,0.0,0.0,0.0,0.0,0.0,0.0,0.0,0.0,0.0,0.0,0.0,0.0,0.0,0.0,0.0,0.0,0.0,0.0,3.6192,4.1414,4.3269,4.4439,4.5114,4.2536,4.038,3.8764,3.7044,3.4668,0.0,0.0,0.0,0.0,0.0,0.0,0.0,0.0,0.0,0.0,0.0,0.0,0.0,0.0,0.0,0.0,0.0,0.0,0.0,0.0,0.0,0.0,0.0,0.0,0.0,0.0,0.0,0.0,0.0,0.0,0.0,0.0,0.0,0.0,0.0,0.0,0.0,0.0,0.0,0.0,0.0,0.0,2.1768,2.1631,0.0,0.0,0.0,2.134,2.1784,0.0,0.0,0.0,0.0,0.0,0.0,0.0,0.0,0.0,0.0,0.0,0.0,0.0,0.0,0.0,0.0,0.0,0.0,0.0,0.0,0.0,0.0,0.0,0.0,0.0,0.0,0.0,0.0,0.0,0.0,0.0,0.0,0.0,0.0,0.0,0.0,0.0,0.0,0.0,0.0,0.0,0.0,0.0,0.0,0.0,0.0,0.0,0.0,0.0,0.0,0.0,0.0,0.0,0.0,0.0,0.0,0.0,3.8933,4.0703,4.2803,4.5086,4.3463,4.2073,4.1175,3.8338,3.5244,0.0,0.0,0.0,0.0,0.0,0.0,0.0,0.0,0.0,0.0,0.0,0.0,0.0,0.0,0.0,0.0,0.0,0.0,0.0,0.0,0.0,0.0,0.0,0.0,0.0,0.0,0.0,0.0,0.0,0.0,0.0,0.0,0.0,0.0,0.0,0.0,0.0,0.0,0.0,0.0,0.0,2.1917,2.0994,2.0867,2.1022,0.0,0.0,2.0495,2.0984,2.0586,0.0,0.0,0.0,0.0,0.0,0.0,0.0,0.0,0.0,0.0,0.0,0.0,0.0,0.0,0.0,0.0,0.0,0.0,0.0,0.0,0.0,0.0,0.0,0.0,0.0,0.0,0.0,0.0,0.0,0.0,0.0,0.0,0.0,0.0,0.0,0.0,0.0,0.0,0.0,0.0,0.0,0.0,0.0,0.0,0.0,0.0,0.0,0.0,0.0,0.0,0.0,0.0,0.0,0.0,0.0,0.0,3.8014,4.1848,4.3619,4.3046,4.2334,4.0986,3.9019,3.841,3.6285,0.0,0.0,0.0,0.0,0.0,0.0,0.0,0.0,0.0,0.0,0.0,0.0,0.0,0.0,0.0,0.0,0.0,0.0,0.0,0.0,0.0,0.0,0.0,0.0,0.0,0.0,0.0,0.0,0.0,0.0,0.0,0.0,0.0,0.0,0.0,0.0,0.0,0.0,0.0,0.0,0.0,2.133,2.0204,2.021,0.0,0.0,0.0,0.0,2.0356,1.9613,0.0,0.0,0.0,0.0,0.0,0.0,0.0,0.0,0.0,0.0,0.0,0.0,0.0,0.0,0.0,0.0,0.0,0.0,0.0,0.0,0.0,0.0,0.0,0.0,0.0,0.0,0.0,0.0,0.0,0.0,0.0,0.0,0.0,0.0,0.0,0.0,0.0,0.0,0.0,0.0,0.0,0.0,0.0,0.0,0.0,0.0,0.0,0.0,0.0,0.0,0.0,0.0,0.0,0.0,0.0,0.0,3.7613,3.9873,4.1504,4.2569,4.1537,4.0654,3.9931,3.7983,3.5616,0.0,0.0,0.0,0.0,0.0,0.0,0.0,0.0,0.0,0.0,0.0,0.0,0.0,0.0,0.0,0.0,0.0,0.0,0.0,0.0,0.0,0.0,0.0,0.0,0.0,0.0,0.0,0.0,0.0,0.0,0.0,0.0,0.0,0.0,0.0,0.0,0.0,0.0,0.0,0.0,2.0911,2.0867,2.0098,0.0,0.0,0.0,0.0,0.0,0.0,1.8467,1.804,0.0,0.0,0.0,0.0,0.0,0.0,0.0,0.0,0.0,0.0,0.0,0.0,0.0,0.0,0.0,0.0,0.0,0.0,0.0,0.0,0.0,0.0,0.0,0.0,0.0,0.0,0.0,0.0,0.0,0.0,0.0,0.0,0.0,0.0,0.0,0.0,0.0,0.0,0.0,0.0,0.0,0.0,0.0,0.0,0.0,0.0,0.0,0.0,0.0,0.0,0.0,0.0,0.0,0.0,0.0,3.6834,3.6996,3.8802,4.2379,4.0983,4.0605,4.1448,3.787,3.4963,3.3149,0.0,0.0,0.0,0.0,0.0,0.0,0.0,0.0,0.0,0.0,0.0,0.0,0.0,0.0,0.0,0.0,0.0,0.0,0.0,0.0,0.0,0.0,0.0,0.0,0.0,0.0,0.0,0.0,0.0,0.0,0.0,0.0,0.0,0.0,0.0,0.0,0.0,0.0,0.0,2.0812,2.0871,0.0,0.0,0.0,0.0,0.0,0.0,0.0,0.0,1.7446,0.0,0.0,0.0,0.0,0.0,0.0,0.0,0.0,0.0,0.0,0.0,0.0,0.0,0.0,0.0,0.0,0.0,0.0,0.0,0.0,0.0,0.0,0.0,0.0,0.0,0.0,0.0,0.0,0.0,0.0,0.0,0.0,0.0,0.0,0.0,0.0,0.0,0.0,0.0,0.0,0.0,0.0,0.0,0.0,0.0,0.0,0.0,0.0,0.0,0.0,0.0,0.0,0.0,0.0,0.0,0.0,3.5336,3.7985,4.0656,4.0609,4.0621,4.0774,3.9368,3.6619,3.2438,0.0,0.0,0.0,0.0,0.0,0.0,0.0,0.0,0.0,0.0,0.0,0.0,0.0,0.0,0.0,0.0,0.0,0.0,0.0,0.0,0.0,0.0,0.0,0.0,0.0,0.0,0.0,0.0,0.0,0.0,0.0,0.0,0.0,0.0,0.0,0.0,0.0,0.0,2.0255,2.204,0.0,0.0,0.0,0.0,0.0,0.0,0.0,0.0,1.7451,0.0,0.0,0.0,0.0,0.0,0.0,0.0,0.0,0.0,0.0,0.0,0.0,0.0,0.0,0.0,0.0,0.0,0.0,0.0,0.0,0.0,0.0,0.0,0.0,0.0,0.0,0.0,0.0,0.0,0.0,0.0,0.0,0.0,0.0,0.0,0.0,0.0,0.0,0.0,0.0,0.0,0.0,0.0,0.0,0.0,0.0,0.0,0.0,0.0,0.0,0.0,0.0,0.0,0.0,0.0,0.0,0.0,0.0,3.7201,3.9886,3.9671,3.9757,4.0199,3.826,3.551,0.0,0.0,0.0,0.0,0.0,0.0,0.0,0.0,0.0,0.0,0.0,0.0,0.0,0.0,0.0,0.0,0.0,0.0,0.0,0.0,0.0,0.0,0.0,0.0,0.0,0.0,0.0,0.0,0.0,0.0,0.0,0.0,0.0,0.0,0.0,0.0,0.0,0.0,0.0,0.0,0.0,0.0,0.0,0.0,0.0,0.0,0.0,0.0,0.0,0.0,0.0,0.0,0.0,0.0,0.0,0.0,0.0,0.0,0.0,0.0,0.0,0.0,0.0,0.0,0.0,0.0,0.0,0.0,0.0,0.0,0.0,0.0,0.0,0.0,0.0,0.0,0.0,0.0,0.0,0.0,0.0,0.0,0.0,0.0,0.0,0.0,0.0,0.0,0.0,0.0,0.0,0.0,0.0,0.0,0.0,0.0,0.0,0.0,0.0,0.0,0.0,0.0,0.0,0.0,0.0,0.0,0.0,0.0,3.6136,3.9036,3.8786,3.8986,3.9747,3.6476,3.3662,0.0,0.0,0.0,0.0,0.0,0.0,0.0,0.0,0.0,0.0,0.0,0.0,0.0,0.0,0.0,0.0,0.0,0.0,0.0,0.0,0.0,0.0,0.0,0.0,0.0,0.0,0.0,0.0,0.0,0.0,0.0,0.0,0.0,0.0,0.0,0.0,0.0,0.0,0.0,0.0,0.0,0.0,0.0,0.0,0.0,0.0,0.0,0.0,1.6693,0.0,0.0,0.0,0.0,0.0,0.0,0.0,0.0,0.0,0.0,0.0,0.0,0.0,0.0,0.0,0.0,0.0,0.0,0.0,0.0,0.0,0.0,0.0,0.0,0.0,0.0,0.0,0.0,0.0,0.0,0.0,0.0,0.0,0.0,0.0,0.0,0.0,0.0,0.0,0.0,0.0,0.0,0.0,0.0,0.0,0.0,0.0,0.0,0.0,0.0,0.0,0.0,0.0,0.0,0.0,0.0,0.0,0.0,0.0,3.4624,3.7333,3.8447,3.8973,3.8712,3.5202,3.1928,0.0,0.0,0.0,0.0,0.0,0.0,0.0,0.0,0.0,0.0,0.0,0.0,0.0,0.0,0.0,0.0,0.0,0.0,0.0,0.0,0.0,0.0,0.0,0.0,0.0,0.0,0.0,0.0,0.0,0.0,0.0,0.0,0.0,0.0,0.0,0.0,0.0,0.0,0.0,0.0,0.0,0.0,0.0,0.0,0.0,0.0,0.0,0.0,0.0,0.0,0.0,0.0,0.0,0.0,0.0,0.0,0.0,0.0,0.0,0.0,0.0,0.0,0.0,0.0,0.0,0.0,0.0,0.0,0.0,0.0,0.0,0.0,0.0,0.0,0.0,0.0,0.0,0.0,0.0,0.0,0.0,0.0,0.0,0.0,0.0,0.0,0.0,0.0,0.0,0.0,0.0,0.0,0.0,0.0,0.0,0.0,0.0,0.0,0.0,0.0,0.0,0.0,0.0,0.0,0.0,0.0,0.0,0.0,3.2343,3.551,3.6616,3.655,3.5259,3.2356,3.0087,0.0,0.0,0.0,0.0,0.0,0.0,0.0,0.0,0.0,0.0,0.0,0.0,0.0,0.0,0.0,0.0,0.0,0.0,0.0,0.0,0.0,0.0,0.0,0.0,0.0,0.0,0.0,0.0,0.0,0.0,0.0,0.0,0.0,0.0,0.0,0.0,0.0,0.0,0.0,0.0,0.0,0.0,0.0,0.0,0.0,0.0,0.0,0.0,0.0,0.0,0.0,0.0,0.0,0.0,0.0,0.0,0.0,0.0,0.0,0.0,0.0,0.0,0.0,0.0,0.0,0.0,0.0,0.0,0.0,0.0,0.0,0.0,0.0,0.0,0.0,0.0,0.0,0.0,0.0,0.0,0.0,0.0,0.0,0.0,0.0,0.0,0.0,0.0,0.0,0.0,0.0,0.0,0.0,0.0,0.0,0.0,0.0,0.0,0.0,0.0,0.0,0.0,0.0,0.0,0.0,0.0,0.0,0.0,0.0,3.2917,3.395,3.3459,3.1442,2.9511,2.7878,0.0,0.0,0.0,0.0,0.0,0.0,0.0,0.0,0.0,0.0,0.0,0.0,0.0,0.0,0.0,0.0,0.0,0.0,0.0,0.0,0.0,0.0,0.0,0.0,0.0,0.0,0.0,0.0,0.0,0.0,0.0,0.0,0.0,0.0,0.0,0.0,0.0,0.0,0.0,0.0,0.0,0.0,0.0,0.0,0.0,0.0,0.0,0.0,0.0,0.0,0.0,0.0,0.0,0.0,0.0,0.0,0.0,0.0,0.0,0.0,0.0,0.0,0.0,0.0,0.0,0.0,0.0,0.0,0.0,0.0,0.0,0.0,0.0,0.0,0.0,0.0,0.0,0.0,0.0,0.0,0.0,0.0,0.0,0.0,0.0,0.0,0.0,0.0,0.0,0.0,0.0,0.0,0.0,0.0,0.0,0.0,0.0,0.0,0.0,0.0,0.0,0.0,0.0,0.0,0.0,0.0,0.0,0.0,0.0,2.9454,3.0339,2.9937,2.8157,2.7093,2.5046,0.0,0.0,0.0,0.0,0.0,0.0,0.0,0.0,0.0,0.0,0.0,0.0,0.0,0.0,0.0,0.0,0.0,0.0,0.0,0.0,0.0,0.0,0.0,0.0,0.0,0.0,0.0,0.0,0.0,0.0,0.0,0.0,0.0,0.0,0.0,0.0,0.0,0.0,0.0,0.0,0.0,0.0,0.0,0.0,0.0,0.0,0.0,0.0,0.0,0.0,0.0,0.0,0.0,0.0,0.0,0.0,0.0,0.0,0.0,0.0,0.0,0.0,0.0,0.0,0.0,0.0,0.0,0.0,0.0,0.0,0.0,0.0,0.0,0.0,0.0,0.0,0.0,0.0,0.0,0.0,0.0,0.0,0.0,0.0,0.0,0.0,0.0,0.0,0.0,0.0,0.0,0.0,0.0,0.0,0.0,0.0,0.0,0.0,0.0,0.0,0.0,0.0,0.0,0.0,0.0,0.0,0.0,0.0,0.0,2.5112,2.6376,2.7056,2.6912,2.4462,2.3036,2.2855,0.0,0.0,0.0,0.0,0.0,0.0,0.0,0.0,0.0,0.0,0.0,0.0,0.0,0.0,0.0,0.0,0.0,0.0,0.0,0.0,0.0,0.0,0.0,0.0,0.0,0.0,0.0,0.0,0.0,0.0,0.0,0.0,0.0,0.0,0.0,0.0,0.0,0.0,0.0,0.0,0.0,0.0,0.0,0.0,0.0,0.0,0.0,0.0,0.0,0.0,0.0,0.0,0.0,0.0,0.0,0.0,0.0,0.0,0.0,0.0,0.0,0.0,0.0,0.0,0.0,0.0,0.0,0.0,0.0,0.0,0.0,0.0,0.0,0.0,0.0,0.0,0.0,0.0,0.0,0.0,0.0,0.0,0.0,0.0,0.0,0.0,0.0,0.0,0.0,0.0,0.0,0.0,0.0,0.0,0.0,0.0,0.0,0.0,0.0,0.0,0.0,0.0,0.0,0.0,0.0,0.0,0.0,0.0,2.217,2.3821,2.4745,2.4723,2.2434,2.1287,0.0,0.0,0.0,0.0,0.0,0.0,0.0,0.0,0.0,0.0,0.0,0.0,0.0,0.0,0.0,0.0,0.0,0.0,0.0,0.0,0.0,0.0,0.0,0.0,0.0,0.0,0.0,0.0,0.0,0.0,0.0,0.0,0.0,0.0,0.0,0.0,0.0,0.0,0.0,0.0,0.0,0.0,0.0,0.0,0.0,0.0,0.0,0.0,0.0,0.0,0.0,0.0,0.0,0.0,0.0,0.0,0.0,0.0,0.0,0.0,0.0,0.0,0.0,0.0,0.0,0.0,0.0,0.0,0.0,0.0,0.0,0.0,0.0,0.0,0.0,0.0,0.0,0.0,0.0,0.0,0.0,0.0,0.0,0.0,0.0,0.0,0.0,0.0,0.0,0.0,0.0,0.0,0.0,0.0,0.0,0.0,0.0,0.0,0.0,0.0,0.0,0.0,0.0,0.0,0.0,0.0,0.0,0.0,1.945,2.117,2.2955,2.3137,2.1389,2.123,1.9581,0.0,0.0,0.0,0.0,0.0,0.0,0.0,0.0,0.0,0.0,0.0,0.0,0.0,0.0,0.0,0.0,0.0,0.0,0.0,0.0,0.0,0.0,0.0,0.0,0.0,0.0,0.0,0.0,0.0,0.0,0.0,0.0,0.0,0.0,0.0,0.0,0.0,0.0,0.0,0.0,0.0,0.0,0.0,0.0,0.0,0.0,0.0,0.0,0.0,0.0,0.0,0.0,0.0,0.0,0.0,0.0,0.0,0.0,0.0,0.0,0.0,0.0,0.0,0.0,0.0,0.0,0.0,0.0,0.0,0.0,0.0,0.0,0.0,0.0,0.0,0.0,0.0,0.0,0.0,0.0,0.0,0.0,0.0,0.0,0.0,0.0,0.0,0.0,0.0,0.0,0.0,0.0,0.0,0.0,0.0,0.0,0.0,0.0,0.0,0.0,0.0,0.0,0.0,0.0,0.0,0.0,0.0,0.0,0.0,2.0287,0.0,2.2634,0.0,2.0929,1.9404,0.0,0.0,0.0,0.0,0.0,0.0,0.0,0.0,0.0,0.0,0.0,0.0,0.0,0.0,0.0,0.0,0.0,0.0,0.0,0.0,0.0,0.0,0.0,0.0,0.0,0.0,0.0,0.0,0.0,0.0,0.0,0.0,0.0,0.0,0.0,0.0,0.0,0.0,0.0,0.0,0.0,0.0,0.0,0.0,0.0,0.0,0.0,0.0,0.0,0.0,0.0,0.0,0.0,0.0,0.0,0.0,0.0,0.0,0.0,0.0,0.0,0.0,0.0,0.0,0.0,0.0,0.0,0.0,0.0,0.0,0.0,0.0,0.0,0.0,0.0,0.0,0.0,0.0,0.0,0.0,0.0,0.0,0.0,0.0,0.0,0.0,0.0,0.0,0.0,0.0,0.0,0.0,0.0,0.0,0.0,0.0,0.0,0.0,0.0,0.0,0.0,0.0,0.0,0.0,0.0,0.0,0.0,0.0,0.0,2.1208,2.1208,2.2133,2.4002,2.1448,2.0164,0.0,0.0,0.0,0.0,0.0,0.0,0.0,0.0,0.0,0.0,0.0,0.0,0.0,0.0,0.0,0.0,0.0,0.0,0.0,0.0,0.0,0.0,0.0,0.0,0.0,0.0,0.0,0.0,0.0,0.0,0.0,0.0,0.0,0.0,0.0,0.0,0.0,0.0,0.0,0.0,0.0,0.0,0.0,0.0,0.0,0.0,0.0,0.0,0.0,0.0,0.0,0.0,0.0,0.0,0.0,0.0,0.0,0.0,0.0,0.0,0.0,0.0,0.0,0.0,0.0,0.0,0.0,0.0,0.0,0.0,0.0,0.0,0.0,0.0,0.0,0.0,0.0,0.0,0.0,0.0,0.0,0.0,0.0,0.0,0.0,0.0,0.0,0.0,0.0,0.0,0.0,0.0,0.0,0.0,0.0,0.0,0.0,0.0,0.0,0.0,0.0,0.0,0.0,0.0,0.0,0.0,0.0,0.0,0.0,2.356,2.211,2.1669,2.2572,2.2471,2.1606,0.0,0.0,0.0,0.0,0.0,0.0,0.0,0.0,0.0,0.0,0.0,0.0,0.0,0.0,0.0,0.0,0.0,0.0,0.0,0.0,0.0,0.0,0.0,0.0,0.0,0.0,0.0,0.0,0.0,0.0,0.0,0.0,0.0,0.0,0.0,0.0,0.0,0.0,0.0,0.0,0.0,0.0,0.0,0.0,0.0,0.0,0.0,0.0,0.0,0.0,0.0,0.0,0.0,0.0,0.0,0.0,0.0,0.0,0.0,0.0,0.0,0.0,0.0,0.0,0.0,0.0,0.0,0.0,0.0,0.0,0.0,0.0,0.0,0.0,0.0,0.0,0.0,0.0,0.0,0.0,0.0,0.0,0.0,0.0,0.0,0.0,0.0,0.0,0.0,0.0,0.0,0.0,0.0,0.0,0.0,0.0,0.0,0.0,0.0,0.0,0.0,0.0,0.0,0.0,0.0,0.0,0.0,0.0,0.0,0.0,2.209,2.231,2.2491,2.1265,2.0327,1.9828,0.0,0.0,0.0,0.0,0.0,0.0,0.0,0.0,0.0,0.0,0.0,0.0,0.0,0.0,0.0,0.0,0.0,0.0,0.0,0.0,0.0,0.0,0.0,0.0,0.0,0.0,0.0,0.0,0.0,0.0,0.0,0.0,0.0,0.0,0.0,0.0,0.0,0.0,0.0,0.0,0.0,0.0,0.0,0.0,0.0,0.0,0.0,0.0,0.0,0.0,0.0,0.0,0.0,0.0,0.0,0.0,0.0,0.0,0.0,0.0,0.0,0.0,0.0,0.0,0.0,0.0,0.0,0.0,0.0,0.0,0.0,0.0,0.0,0.0,0.0,0.0,0.0,0.0,0.0,0.0,0.0,0.0,0.0,0.0,0.0,0.0,0.0,0.0,0.0,0.0,0.0,0.0,0.0,0.0,0.0,0.0,0.0,0.0,0.0,0.0,0.0,0.0,0.0,0.0,0.0,0.0,0.0,0.0,0.0,0.0,2.215,2.2531,2.1146,2.0227,0.0,0.0,0.0,0.0,0.0,0.0,0.0,0.0,0.0,0.0,0.0,0.0,0.0,0.0,0.0,0.0,0.0,0.0,0.0,0.0,0.0,0.0,0.0,0.0,0.0,0.0,0.0,0.0,0.0,0.0,0.0,0.0,0.0,0.0,0.0,0.0,0.0,0.0,0.0,0.0,0.0,0.0,0.0,0.0,0.0,0.0,0.0,0.0,0.0,0.0,0.0,0.0,0.0,0.0,0.0,0.0,0.0,0.0,0.0,0.0,0.0,0.0,0.0,0.0,0.0,0.0,0.0,0.0,0.0,0.0,0.0,0.0,0.0,0.0,0.0,0.0,0.0,0.0,0.0,0.0,0.0,0.0,0.0,0.0,0.0,0.0,0.0,0.0,0.0,0.0,0.0,0.0,0.0,0.0,0.0,0.0,0.0,0.0,0.0,0.0,0.0,0.0,0.0,0.0,0.0,0.0,0.0,0.0,0.0,0.0,0.0,2.1669,2.2391,2.1689,0.0,1.981,0.0,0.0,0.0,0.0,0.0,0.0,0.0,0.0,0.0,0.0,0.0,0.0,0.0,0.0,0.0,0.0,0.0,0.0,0.0,0.0,0.0,0.0,0.0,0.0,0.0,0.0,0.0,0.0,0.0,0.0,0.0,0.0,0.0,0.0,0.0,0.0,0.0,0.0,0.0,0.0,0.0,0.0,0.0,0.0,0.0,0.0,0.0,0.0,0.0,0.0,0.0,0.0,0.0,0.0,0.0,0.0,0.0,0.0,0.0,0.0,0.0,0.0,0.0,0.0,0.0,0.0,0.0,0.0,0.0,0.0,0.0,0.0,0.0,0.0,0.0,0.0,0.0,0.0,0.0,0.0,0.0,0.0,0.0,0.0,0.0,0.0,0.0,0.0,0.0,0.0,0.0,0.0,0.0,0.0,0.0,0.0,0.0,0.0,0.0,0.0,0.0,0.0,0.0,0.0,0.0,0.0,0.0,0.0,0.0,0.0,0.0,0.0,2.1989,2.1126,1.8889,0.0,0.0,0.0,0.0,0.0,0.0,0.0,0.0,0.0,0.0,0.0,0.0,0.0,0.0,0.0,0.0,0.0,0.0,0.0,0.0,0.0,0.0,0.0,0.0,0.0,0.0,0.0,0.0,0.0,0.0,0.0,0.0,0.0,0.0,0.0,0.0,0.0,0.0,0.0,0.0,0.0,0.0,0.0,0.0,0.0,0.0,0.0,0.0,0.0,0.0,0.0,0.0,0.0,0.0,0.0,0.0,0.0,0.0,0.0,0.0,0.0,0.0,0.0,0.0,0.0,0.0,0.0,0.0,0.0,0.0,0.0,0.0,0.0,0.0,0.0,0.0,0.0,0.0,0.0,0.0,0.0,0.0,0.0,0.0,0.0,0.0,0.0,0.0,0.0,0.0,0.0,0.0,0.0,0.0,0.0,0.0,0.0,0.0,0.0,0.0,0.0,0.0,0.0,0.0,0.0,0.0,0.0,0.0,0.0,0.0,2.1928,2.0628,2.1066,2.026,1.8051,0.0,0.0,0.0,0.0,0.0,0.0,0.0,0.0,0.0,0.0,0.0,0.0,0.0,0.0,0.0,0.0,0.0,0.0,0.0,0.0,0.0,0.0,0.0,0.0,0.0,0.0,0.0,0.0,0.0,0.0,0.0,0.0,0.0,0.0,0.0,0.0,0.0,0.0,0.0,0.0,0.0,0.0,0.0,0.0,0.0,0.0,0.0,0.0,0.0,0.0,0.0,0.0,0.0,0.0,0.0,0.0,0.0,0.0,0.0,0.0,0.0,0.0,0.0,0.0,0.0,0.0,0.0,0.0,0.0,0.0,0.0,0.0,0.0,0.0,0.0,0.0,0.0,0.0,0.0,0.0,0.0,0.0,0.0,0.0,0.0,0.0,0.0,0.0,0.0,0.0,0.0,0.0,0.0,0.0,0.0,0.0,0.0,0.0,0.0,0.0,0.0,0.0,0.0,0.0,0.0,0.0,0.0,0.0,0.0,0.0,0.0,0.0,0.0,0.0,1.7589,0.0,0.0,0.0,0.0,0.0,0.0,0.0,0.0,0.0,0.0,0.0,0.0,0.0,0.0,0.0,0.0,0.0,0.0,0.0,0.0,0.0,0.0,0.0,0.0,0.0,0.0,0.0,0.0,0.0,0.0,0.0,0.0,0.0,0.0,0.0,0.0,0.0,0.0,0.0,0.0,0.0,0.0,0.0,0.0,0.0,0.0,0.0,0.0,0.0,0.0,0.0,0.0,0.0,0.0,0.0,0.0,0.0,0.0,0.0,0.0,0.0,0.0,0.0,0.0,0.0,0.0,0.0,0.0,0.0,0.0,0.0,0.0,0.0,0.0,0.0,0.0,0.0,0.0,0.0,0.0,0.0,0.0,0.0,0.0,0.0,0.0,0.0,0.0,0.0,0.0,0.0,0.0,0.0,0.0,0.0,0.0,0.0,0.0,0.0,0.0,0.0,0.0,0.0,0.0,0.0,0.0,0.0,0.0,0.0,0.0,0.0,0.0,0.0,0.0,0.0,0.0,0.0,0.0,0.0,0.0,0.0,0.0,0.0,0.0,0.0,0.0,0.0,0.0,0.0,0.0,0.0,0.0,0.0,0.0,0.0,0.0,0.0,0.0,0.0,0.0,0.0,0.0,0.0,0.0,0.0,0.0,0.0,0.0,0.0,0.0,0.0,0.0,0.0,0.0,0.0,0.0,0.0,0.0,0.0,0.0,0.0,0.0,0.0,0.0,0.0,0.0,0.0,0.0,0.0,0.0,0.0,0.0,0.0,0.0,0.0,0.0,0.0,0.0,0.0,0.0,0.0,0.0,0.0,0.0,0.0,0.0,0.0,0.0,0.0,0.0,0.0,0.0,0.0,0.0,0.0,0.0,0.0,0.0,0.0,0.0,0.0,0.0,0.0,0.0,0.0,0.0,0.0,0.0,0.0,0.0,0.0,0.0,0.0,0.0,0.0,0.0,0.0,0.0,0.0,0.0,0.0,0.0,0.0,0.0,0.0,0.0,0.0,0.0,0.0,0.0,0.0,0.0,0.0,0.0,0.0,0.0,0.0,0.0,0.0,0.0,0.0,0.0,0.0,0.0,0.0,0.0,0.0,0.0,0.0,0.0,0.0,0.0,0.0,0.0,0.0,0.0,0.0,0.0,0.0,0.0,0.0,0.0,0.0,0.0,0.0,0.0,0.0,0.0,0.0,0.0,0.0,0.0,0.0,0.0,0.0,0.0,0.0,0.0,0.0,0.0,0.0,0.0,0.0,0.0,0.0,0.0,0.0,0.0,0.0,0.0,0.0,0.0,0.0,0.0,0.0,0.0,0.0,0.0,0.0,0.0,0.0,0.0,0.0,0.0,0.0,0.0,0.0,0.0,0.0,0.0,0.0,0.0,0.0,0.0,0.0,0.0,0.0,0.0,0.0,0.0,0.0,0.0,0.0,0.0,0.0,0.0,0.0,0.0,0.0,0.0,0.0,0.0,0.0,0.0,0.0,0.0,0.0,0.0,0.0,0.0,0.0,0.0,0.0,0.0,0.0,0.0,0.0,0.0,0.0,0.0,0.0,0.0,0.0,0.0,0.0,0.0,0.0,0.0,0.0,0.0,0.0,0.0,0.0,0.0,0.0,0.0,0.0,0.0,0.0,0.0,0.0,0.0,0.0,0.0,0.0,0.0,0.0,0.0,0.0,0.0,0.0,0.0,0.0,0.0,0.0,0.0,0.0,0.0,0.0,0.0,0.0,0.0,0.0,0.0,0.0,0.0,0.0,0.0,0.0,0.0,0.0,0.0,0.0,0.0,0.0,0.0,0.0,0.0,0.0,0.0,0.0,0.0,0.0,0.0,0.0,0.0,0.0,0.0,0.0,0.0,0.0,0.0,0.0,0.0,0.0,0.0,0.0,0.0,0.0,0.0,0.0,0.0,0.0,0.0,0.0,0.0,0.0,0.0,0.0,0.0,0.0,0.0,0.0,0.0,0.0,0.0,0.0,0.0,0.0,0.0,0.0,0.0,0.0,0.0,0.0,0.0,0.0,0.0,0.0,0.0,0.0,0.0,0.0,0.0,0.0,0.0,0.0,0.0,0.0,0.0,0.0,0.0,0.0,0.0,0.0,0.0,0.0,0.0,0.0,0.0,0.0,0.0,0.0,0.0,0.0,0.0,0.0,0.0,0.0,0.0,0.0,0.0,0.0,0.0,0.0,0.0,0.0,0.0,0.0,0.0,0.0,0.0,0.0,0.0,0.0,0.0,0.0,0.0,0.0,0.0,0.0,0.0,0.0,0.0,0.0,0.0,0.0,0.0,0.0,0.0,0.0,0.0,0.0,0.0,0.0,0.0,0.0,0.0,0.0,0.0,0.0,0.0,0.0,0.0,0.0,0.0,0.0,0.0,0.0,0.0,0.0,0.0,0.0,0.0,0.0,0.0,0.0,0.0,0.0,0.0,0.0,0.0,0.0,0.0,0.0,0.0,0.0,0.0,0.0,0.0,0.0,0.0,0.0,0.0,0.0,0.0,0.0,0.0,0.0,0.0,0.0,0.0,0.0,0.0,0.0,0.0,0.0,0.0,0.0,0.0,0.0,0.0,0.0,0.0,0.0,0.0,0.0,0.0,0.0,0.0,0.0,0.0,0.0,0.0,0.0,0.0,0.0,0.0,0.0,0.0,0.0,0.0,0.0,0.0,0.0,0.0,0.0,0.0,0.0,0.0,0.0,0.0,0.0,0.0,0.0,0.0,0.0,0.0,0.0,0.0,0.0,0.0,0.0,0.0,0.0,0.0,0.0,0.0,0.0,0.0,0.0,0.0,0.0,0.0,0.0,0.0,0.0,0.0,0.0,0.0,0.0,0.0,0.0,0.0,0.0,0.0,0.0,0.0,0.0,0.0,0.0,0.0,0.0,0.0,0.0,0.0,0.0,0.0,0.0,0.0,0.0,0.0,0.0,0.0,0.0,0.0,0.0,0.0,0.0,0.0,0.0,0.0,0.0,0.0,0.0,0.0,0.0,0.0,0.0,0.0,0.0,0.0,0.0,0.0,0.0,0.0,0.0,0.0,0.0,0.0,0.0,0.0,0.0,0.0,0.0,0.0,0.0,0.0,0.0,0.0,0.0,0.0,0.0,0.0,0.0,0.0,0.0,0.0,0.0,0.0,0.0,0.0,0.0,0.0,0.0,0.0,0.0,0.0,0.0,0.0,0.0,0.0,0.0,0.0,0.0,0.0,0.0,0.0,0.0,0.0,0.0,0.0,0.0,0.0,0.0,0.0,0.0,0.0,0.0,0.0,0.0,0.0,0.0,0.0,0.0,0.0,0.0,0.0,0.0,0.0,0.0,0.0,0.0,0.0,0.0,0.0,0.0,0.0,0.0,0.0,0.0,0.0,0.0,0.0,0.0,0.0,0.0,0.0,0.0,0.0,0.0,0.0,0.0,0.0,0.0,0.0,0.0,0.0,0.0,0.0,0.0,0.0,0.0,0.0,0.0,0.0,0.0,0.0,0.0,0.0,0.0,0.0,0.0,0.0,0.0,0.0,0.0,0.0,0.0,0.0,0.0,0.0,0.0,0.0,0.0,0.0,0.0,0.0,0.0,0.0,0.0,0.0,0.0,0.0,0.0,0.0,0.0,0.0,0.0,0.0,0.0,0.0,0.0,0.0,0.0,0.0,0.0,0.0,0.0,0.0,0.0,0.0,0.0,0.0,0.0,0.0,0.0,0.0,0.0,0.0,0.0,0.0,0.0,0.0,0.0,0.0,0.0,0.0,0.0,0.0,0.0,0.0,0.0,0.0,0.0,0.0,0.0,0.0,0.0,0.0,0.0,0.0,0.0,0.0,0.0,0.0,0.0,0.0,0.0,0.0,0.0,0.0,0.0,0.0,0.0,0.0,0.0,0.0,0.0,0.0,0.0,0.0,0.0,0.0,0.0,0.0,0.0,0.0,0.0,0.0,0.0,0.0,0.0,0.0,0.0,0.0,0.0,0.0,0.0,0.0,0.0,0.0,0.0,0.0,0.0,0.0,0.0,0.0,0.0,0.0,0.0,0.0,0.0,0.0,0.0,0.0,0.0,0.0,0.0,0.0,0.0,0.0,0.0,0.0,0.0,0.0,0.0,0.0,0.0,0.0,0.0,0.0,0.0,0.0,0.0,0.0,0.0,0.0,0.0,0.0,0.0,0.0,0.0,0.0,0.0,0.0,0.0,0.0,0.0,0.0,0.0,0.0,0.0,0.0,0.0,0.0,0.0,0.0,0.0,0.0,0.0,0.0,0.0,0.0,0.0,0.0,0.0,0.0,0.0,0.0,0.0,0.0,0.0,0.0,0.0,0.0,0.0,0.0,0.0,0.0,0.0,0.0,0.0,0.0,0.0,0.0,0.0,0.0]}],[{"header":{"parameterUnit":"kt","parameterCategory":2,"dx":1,"dy":1,"la1":29.587661999999998,"la2":31.0,"lo1":-88.76705300000003,"lo2":-86.6583820000003,"nx":115,"ny":88,"refTime":"2022-10-01T06:00:00:Z","depth":0,"parameterNumber":2,"parameterNumberName":"V-component_of_WINDS"},"data":[9.8923,9.8923,9.8923,9.8923,9.8923,9.8923,9.8923,9.8923,9.8923,9.8923,9.8923,9.8923,9.8923,9.8923,9.8923,9.8923,9.8923,9.8923,9.8923,9.8923,9.8923,9.8923,9.8923,9.8923,9.8923,9.8923,9.8923,9.8923,9.8923,9.8923,9.8923,9.8923,9.8923,9.8923,9.8923,9.8923,9.8923,9.8923,9.8923,9.9002,9.9123,9.9521,10.0074,10.0616,10.1173,10.2236,10.331,10.4859,10.6161,10.7794,10.948,11.0621,11.1547,11.2477,11.328,11.3956,11.4448,11.5032,11.5105,11.5251,11.5251,11.5251,11.5251,11.5251,11.5287,11.5287,11.5324,11.5324,11.6108,11.6108,11.66,11.764,11.848,11.912,12.0216,12.1843,12.3212,12.3998,12.4509,12.5256,12.604,12.6161,12.6269,12.6399,12.6508,12.6848,12.7034,12.7296,12.7833,12.8073,12.8325,12.8491,12.8604,12.8692,12.8692,12.8692,12.8692,12.8692,12.8634,12.8604,12.8604,12.8644,12.8502,12.7942,12.8004,12.8148,12.8101,12.8206,12.7981,12.7724,12.7138,12.6703,12.6266,12.5996,12.5908,9.8855,9.8923,9.895,9.8923,9.8923,9.8923,9.8923,9.8923,9.8923,9.8923,9.8923,9.8923,9.8923,9.8923,9.8923,9.8923,9.8923,9.8923,9.8923,9.8923,9.8923,9.8923,9.8923,9.8923,9.8923,9.8923,9.8923,9.8923,9.8923,9.8923,9.8923,9.8923,9.8923,9.8923,9.8923,9.8923,9.8923,9.8923,9.9002,9.9081,9.9358,9.9741,10.0058,10.0709,10.1521,10.2416,10.3049,10.4147,10.5684,10.7777,11.0391,11.179,11.2972,11.3864,11.4485,11.4703,11.5105,11.5178,11.5251,11.5251,11.5251,11.5251,11.5251,11.5287,11.5287,11.536,11.5433,11.598,11.722,11.7767,11.8243,11.8974,11.9742,12.0492,12.1883,12.3347,12.4408,12.5394,12.5646,12.5878,12.6215,12.6345,12.6492,12.6678,12.6946,12.7385,12.768,12.7882,12.8097,12.8336,12.8491,12.8584,12.8692,12.8692,12.8692,12.8692,12.8692,12.8692,12.8692,12.8692,12.8692,12.8692,12.8553,12.8281,12.827,12.8352,12.833,12.8259,12.7956,12.7702,12.7375,12.715,12.6721,12.6564,12.6317,9.6713,9.7755,9.8574,9.8923,9.8923,9.8923,9.8923,9.8923,9.8923,9.8923,9.8923,9.8923,9.8923,9.8923,9.8923,9.8923,9.8923,9.8923,9.8923,9.8923,9.8923,9.8923,9.8923,9.8923,9.8923,9.8923,9.8923,9.8923,9.8923,9.8923,9.8923,9.8923,9.8923,9.8923,9.8923,9.8923,9.8923,9.895,9.9141,9.9392,9.9826,10.0043,10.0257,10.1249,10.2371,10.3689,10.45,10.6023,10.7399,10.9263,11.1246,11.2792,11.4139,11.4849,11.5214,11.5251,11.5251,11.5251,11.5251,11.5251,11.5251,11.5251,11.5251,11.5433,11.547,11.6565,11.6638,11.7642,11.8847,11.9249,11.9724,12.0785,12.1608,12.2175,12.3347,12.4263,12.5122,12.5833,12.5975,12.6184,12.6399,12.6504,12.6756,12.6931,12.7389,12.7795,12.7907,12.8087,12.8325,12.8574,12.8604,12.8692,12.8692,12.8692,12.8692,12.8692,12.8692,12.8692,12.8692,12.8692,12.8692,12.8682,12.8682,12.8553,12.8512,12.8543,12.8543,12.8533,12.827,12.7858,12.7681,12.7561,12.7488,12.7301,12.8336,9.4788,9.6159,9.7354,9.8096,9.8404,9.8779,9.8923,9.8923,9.8923,9.8923,9.8923,9.8923,9.8923,9.8923,9.8923,9.8923,9.8923,9.8923,9.8923,9.8923,9.8923,9.8923,9.8923,9.8923,9.8923,9.8923,9.8923,9.8923,9.8923,9.8923,9.8923,9.8923,9.8923,9.8923,9.8923,9.8923,9.9036,9.9175,9.976,10.0637,10.1475,10.1518,10.1787,10.2853,10.4068,10.5588,10.6428,10.7963,10.9189,11.0497,11.2027,11.3484,11.5087,11.5214,11.5251,11.5251,11.5251,11.5251,11.5251,11.5251,11.5251,11.5251,11.5324,11.5506,11.6273,11.755,11.87,11.9741,12.0491,12.0729,12.1296,12.2578,12.3732,12.4135,12.4703,12.5178,12.5652,12.5886,12.601,12.6246,12.652,12.6749,12.699,12.7348,12.7808,12.804,12.818,12.8281,12.8553,12.8624,12.8654,12.8692,12.8692,12.8692,12.8692,12.8692,12.8692,12.8692,12.8692,12.8692,12.8692,12.8692,12.8692,12.8692,12.8692,12.8624,12.8614,12.8692,12.8523,12.812,12.7932,12.8105,12.8068,12.9709,13.1024,9.4301,9.4496,9.4701,9.5639,9.6902,9.8267,9.8779,9.8923,9.8779,9.8889,9.8847,9.895,9.8923,9.8923,9.8923,9.8923,9.8923,9.8923,9.8923,9.8923,9.8923,9.8923,9.8923,9.8923,9.8923,9.8923,9.8923,9.8923,9.8923,9.8923,9.8923,9.8923,9.8923,9.8923,9.8923,9.8923,9.9286,9.9837,10.1075,10.2288,10.3648,10.4813,10.5764,10.5838,10.6806,10.7954,10.8297,10.9139,11.023,11.1512,11.2663,11.3447,11.4632,11.5251,11.5251,11.5251,11.5251,11.5251,11.5251,11.5251,11.5251,11.5251,11.5324,11.6273,11.7641,11.912,12.016,12.1183,12.2211,12.2632,12.2796,12.384,12.4483,12.4868,12.5106,12.5399,12.5762,12.5923,12.6044,12.6232,12.6573,12.7093,12.7348,12.777,12.8203,12.846,12.8564,12.8553,12.8644,12.8644,12.8692,12.8692,12.8692,12.8692,12.8692,12.8692,12.8692,12.8692,12.8692,12.8692,12.8692,12.8692,12.8692,12.8692,12.8692,12.8692,12.8692,12.8719,12.8601,12.8577,12.8857,12.8829,13.0349,13.2552,13.3828,9.1961,9.2927,9.3045,9.3873,9.534,9.6868,9.697,9.6467,9.7149,9.7516,9.7619,9.8506,9.8923,9.895,9.8923,9.8923,9.8923,9.8923,9.8923,9.8923,9.8923,9.8923,9.8923,9.8923,9.8923,9.8923,9.8923,9.8923,9.8923,9.8923,9.8958,9.8992,9.8923,9.8923,9.906,9.9317,9.9767,10.1177,10.2469,10.3694,10.4444,10.5025,10.6067,10.6741,10.82,10.9434,11.0389,11.1982,11.2789,11.3566,11.3955,11.4485,11.4887,11.5251,11.5251,11.5251,11.5251,11.5251,11.5251,11.5251,11.5251,11.5506,11.6273,11.755,11.9138,12.071,12.1769,12.2555,12.362,12.4409,12.4591,12.481,12.5086,12.5362,12.5473,12.5564,12.5745,12.5923,12.6079,12.6269,12.6684,12.7236,12.777,12.8203,12.8533,12.8614,12.8692,12.8692,12.8692,12.8692,12.8692,12.8692,12.8692,12.8692,12.8692,12.8692,12.8692,12.8692,12.8692,12.8692,12.8692,12.8692,12.8692,12.8692,12.8692,12.8692,12.8692,12.8719,12.9198,12.9909,13.0299,13.1315,13.3145,13.4923,13.5688,9.0301,9.145,9.1485,9.2313,9.3643,9.4351,9.4351,9.4044,9.5306,9.6287,9.6629,9.7789,9.8438,9.895,9.8923,9.8923,9.8923,9.8923,9.8923,9.8923,9.8923,9.8923,9.8923,9.8923,9.8923,9.8923,9.8923,9.8923,9.8992,9.8923,9.8992,9.9503,9.9776,9.9742,9.9845,10.0076,10.1705,10.3189,10.4327,10.5567,10.6348,10.7045,10.7637,10.8645,11.0004,11.0955,11.1966,11.3261,11.4004,11.449,11.4808,11.5069,11.5215,11.5251,11.5251,11.5251,11.5251,11.5251,11.5251,11.5251,11.5251,11.5543,11.7915,11.9448,12.0891,12.2373,12.3746,12.4204,12.4866,12.4996,12.5124,12.5216,12.5363,12.5547,12.5619,12.5745,12.5905,12.6099,12.6249,12.6432,12.6647,12.725,12.7919,12.8336,12.8564,12.8624,12.8692,12.8692,12.8692,12.8692,12.8692,12.8692,12.8692,12.8692,12.8692,12.8692,12.8692,12.8692,12.8692,12.8692,12.8692,12.8692,12.8692,12.8692,12.8692,12.8692,12.8729,12.9444,13.0073,13.0852,13.2093,13.3945,13.5551,13.6242,13.6981,8.9809,8.9901,8.9867,9.0812,9.1792,9.0992,9.1153,9.2406,9.3814,9.5315,9.6629,9.6833,9.7789,9.8813,9.8923,9.8923,9.8923,9.8923,9.8923,9.8923,9.8923,9.8923,9.8923,9.8984,9.9189,9.9086,9.9196,9.9538,9.9162,9.9701,10.0288,10.08,10.1073,10.1278,10.1858,10.2629,10.4125,10.5129,10.6116,10.7135,10.8176,10.9314,10.9597,11.0166,11.1118,11.1982,11.2676,11.3457,11.4148,11.4519,11.4731,11.4995,11.5124,11.5251,11.5251,11.5251,11.5251,11.5251,11.5287,11.5579,11.5616,11.6674,11.974,12.1638,12.2845,12.3691,12.4627,12.5178,12.5436,12.551,12.5528,12.5601,12.5619,12.5673,12.578,12.5923,12.6064,12.6249,12.6395,12.6652,12.6871,12.7393,12.8085,12.838,12.8624,12.8692,12.8692,12.8692,12.8692,12.8692,12.8692,12.8692,12.8692,12.8692,12.8692,12.8692,12.8692,12.8692,12.8692,12.8692,12.8692,12.8692,12.8692,12.8692,12.8692,12.8804,12.8955,12.9669,13.0872,13.2301,13.3531,13.5309,13.6963,13.7634,13.7762,8.9809,8.9809,8.9809,9.014,9.0447,9.0037,9.0676,9.2406,9.4692,9.6083,9.6731,9.7687,9.8438,9.8745,9.8923,9.8923,9.8923,9.8923,9.8923,9.8923,9.8923,9.9026,9.8992,9.9018,9.9598,10.022,10.0432,10.0937,10.151,10.1783,10.2022,10.2302,10.2609,10.3052,10.4178,10.5059,10.6348,10.6339,10.7431,10.8365,10.9143,10.9838,11.0262,11.0794,11.136,11.1873,11.2404,11.3026,11.372,11.4072,11.4505,11.505,11.5197,11.5251,11.5251,11.5251,11.5251,11.5251,11.5689,11.6054,11.755,11.8243,12.0871,12.2517,12.3051,12.4445,12.5124,12.5436,12.5601,12.5619,12.562,12.5692,12.5727,12.5799,12.5905,12.6029,12.6221,12.6439,12.6625,12.6916,12.7236,12.7808,12.8401,12.8574,12.8692,12.8692,12.8692,12.8692,12.8692,12.8692,12.8692,12.8692,12.8692,12.8692,12.8692,12.8692,12.8692,12.8692,12.8692,12.8692,12.8692,12.8692,12.8692,12.8692,12.8917,12.9143,12.9256,13.0346,13.2188,13.3767,13.5045,13.6587,13.8166,13.8445,13.8311,8.9809,8.9809,8.9809,9.0106,9.0573,9.0573,9.1485,9.3054,9.4829,9.6117,9.6765,9.7584,9.8335,9.8855,9.8923,9.8923,9.8923,9.8923,9.8923,9.8923,9.8923,9.9128,9.964,10.0015,10.0561,10.1483,10.1926,10.2499,10.3523,10.308,10.3284,10.366,10.3831,10.4895,10.626,10.7045,10.7699,10.7222,10.7877,10.8869,10.9204,10.9527,10.989,11.0348,11.1018,11.1577,11.2084,11.3321,11.3905,11.4175,11.4655,11.5123,11.5251,11.5251,11.5251,11.5251,11.5251,11.5251,11.5725,11.8061,11.9776,12.0981,12.2533,12.3558,12.3638,12.4941,12.5363,12.5656,12.5817,12.5871,12.5782,12.5889,12.5888,12.594,12.6012,12.6135,12.6303,12.6552,12.6864,12.7165,12.7551,12.8134,12.8502,12.8634,12.8692,12.8692,12.8692,12.8692,12.8692,12.8692,12.8692,12.8692,12.8692,12.8692,12.8692,12.8692,12.8692,12.8692,12.8692,12.8692,12.8692,12.8692,12.8729,12.888,12.9218,12.9632,13.0421,13.1474,13.3429,13.5233,13.6624,13.8091,13.8579,13.8579,13.8579,8.9809,8.9809,8.9809,9.0676,9.1894,9.2133,9.302,9.4326,9.4667,9.5545,9.6868,9.7004,9.7789,9.8745,9.8923,9.8923,9.8923,9.8923,9.9128,9.9265,9.9469,10.0084,10.0698,10.138,10.196,10.3114,10.3489,10.3592,10.3933,10.4274,10.4104,10.4343,10.5236,10.6232,10.7664,10.7903,10.8041,10.8194,10.8371,10.8814,10.9088,10.942,10.9714,11.0254,11.1003,11.1577,11.2188,11.3299,11.4007,11.4274,11.4769,11.5124,11.5269,11.5251,11.5251,11.5251,11.5251,11.536,11.5725,12.0068,12.1966,12.2769,12.3664,12.4544,12.4991,12.5344,12.5583,12.5764,12.5977,12.6101,12.6135,12.6135,12.6135,12.6135,12.6118,12.6204,12.6369,12.6604,12.7027,12.7371,12.7833,12.8248,12.8512,12.8692,12.8692,12.8692,12.8692,12.8692,12.8692,12.8692,12.8692,12.8692,12.8692,12.8692,12.8692,12.8692,12.8692,12.8692,12.8692,12.8692,12.8692,12.8692,12.8842,12.9068,12.9669,13.0647,13.1587,13.2602,13.4481,13.6324,13.7903,13.8579,13.8579,13.8579,13.8579,8.9809,8.9809,8.9809,9.0676,9.2167,9.3225,9.4496,9.5716,9.5886,9.6833,9.8233,9.8267,9.8574,9.8813,9.8923,9.8923,9.9086,9.9026,9.9572,10.0084,10.0561,10.1414,10.2233,10.2943,10.3462,10.4588,10.4997,10.5543,10.6192,10.6499,10.6294,10.6396,10.7016,10.7255,10.7903,10.7903,10.7926,10.8035,10.829,10.8537,10.8869,10.9251,10.9634,11.0577,11.1003,11.1553,11.2326,11.3206,11.3915,11.4235,11.4696,11.5142,11.5233,11.5251,11.5251,11.5251,11.5397,11.5944,11.755,12.047,12.2951,12.3774,12.4723,12.4966,12.5174,12.5399,12.5619,12.578,12.6012,12.6189,12.6153,12.6189,12.6189,12.6189,12.6189,12.6187,12.6369,12.6793,12.7188,12.7521,12.8064,12.8512,12.8692,12.8692,12.8692,12.8692,12.8692,12.8692,12.8692,12.8692,12.8692,12.8692,12.8692,12.8692,12.8692,12.8767,12.8842,12.888,12.9218,12.903,12.9218,12.8692,12.8767,13.0045,13.1098,13.1737,13.2902,13.4331,13.5872,13.7376,13.794,13.8579,13.8579,13.8579,13.8579,8.9809,8.9935,9.1061,9.2415,9.3932,9.4794,9.6057,9.738,9.7516,9.8131,9.8889,9.8923,9.8923,9.8923,9.8923,9.9162,9.9674,9.9265,10.0357,10.121,10.166,10.2438,10.3701,10.4445,10.4991,10.6192,10.647,10.7084,10.7801,10.7562,10.7869,10.7903,10.7699,10.7869,10.7903,10.7903,10.7932,10.8041,10.8425,10.8889,10.9208,10.9715,11.0501,11.1238,11.1384,11.1955,11.2404,11.3383,11.3797,11.4215,11.4847,11.5142,11.5251,11.5251,11.5652,11.6273,11.6382,11.7185,11.89,11.9813,12.1893,12.3372,12.4669,12.5019,12.5155,12.5399,12.5619,12.5799,12.6029,12.6153,12.6189,12.6189,12.6189,12.6189,12.6189,12.6189,12.6468,12.6998,12.744,12.7601,12.8099,12.8614,12.8692,12.8692,12.8692,12.8692,12.8692,12.8692,12.8692,12.8692,12.8692,12.8692,12.8692,12.8692,12.8692,12.8804,12.8955,12.9368,12.9857,13.0571,13.1323,13.0534,13.0459,13.1662,13.2817,13.3617,13.4632,13.6023,13.7,13.779,13.8316,13.8579,13.8579,13.8579,13.8579,8.9979,9.0272,9.3209,9.517,9.6458,9.6663,9.7584,9.8711,9.8847,9.8855,9.8923,9.8923,9.8923,9.8923,9.9026,9.9674,10.091,9.9572,10.1032,10.2131,10.237,10.3325,10.4929,10.5919,10.6431,10.7494,10.7562,10.7596,10.7903,10.7903,10.7767,10.7767,10.7767,10.7767,10.763,10.7664,10.7903,10.8069,10.8752,10.9362,11.015,11.0759,11.1553,11.2002,11.2562,11.3004,11.3091,11.3951,11.4483,11.4524,11.4977,11.5233,11.5269,11.5251,11.5762,11.6455,11.6784,11.7806,11.9046,11.9557,12.0068,12.2075,12.3737,12.4525,12.4586,12.5124,12.54,12.5359,12.5865,12.6062,12.6189,12.6189,12.6189,12.6189,12.6189,12.6189,12.6436,12.7027,12.7443,12.7629,12.804,12.8523,12.8692,12.8692,12.8692,12.8692,12.8692,12.8692,12.8692,12.8692,12.8692,12.8796,12.8786,12.9097,12.905,12.9756,13.0688,13.1262,13.1468,13.2201,13.2988,13.3193,13.279,13.3767,13.4256,13.5346,13.6372,13.7076,13.7752,13.8354,13.8579,13.8579,13.8579,13.8579,13.8579,9.1796,9.2356,9.4915,9.6219,9.6697,9.7857,9.8574,9.8923,9.8923,9.8923,9.8923,9.8923,9.8923,9.8923,9.9026,9.9708,10.091,9.9606,10.1517,10.3387,10.407,10.4485,10.6089,10.7084,10.7323,10.7869,10.7903,10.7801,10.7835,10.7699,10.7119,10.6226,10.7187,10.7187,10.6812,10.7221,10.7903,10.7955,10.8662,10.9593,11.0583,11.1151,11.1814,11.2427,11.2859,11.3235,11.3756,11.432,11.4594,11.4693,11.5012,11.5179,11.5269,11.5287,11.5689,11.6163,11.6419,11.7514,11.9083,11.9886,12.0762,12.2002,12.3153,12.3555,12.367,12.4794,12.5363,12.4335,12.5262,12.6008,12.6189,12.6189,12.6189,12.6189,12.6189,12.6189,12.6303,12.6938,12.7403,12.7642,12.8028,12.8481,12.8644,12.8682,12.8692,12.8692,12.8692,12.8692,12.8692,12.8692,12.8834,12.9174,12.9701,13.0774,13.1075,13.1752,13.2599,13.3192,13.3249,13.3661,13.4023,13.4293,13.482,13.5196,13.5544,13.6447,13.7312,13.794,13.8579,13.8579,13.8579,13.8579,13.8579,13.8579,13.8579,9.3302,9.4091,9.6083,9.7177,9.7729,9.854,9.8923,9.8923,9.8923,9.8923,9.8923,9.8923,9.8923,9.8923,9.8923,9.9742,10.05,9.9572,10.1073,10.3592,10.3291,10.3905,10.6232,10.688,10.7391,10.763,10.7869,10.7699,10.6948,10.6709,10.6539,10.5754,10.6362,10.6266,10.5953,10.7119,10.7699,10.8007,10.8363,10.9228,11.0329,11.1007,11.1589,11.2427,11.2472,11.2873,11.3406,11.3839,11.4164,11.4693,11.4938,11.5142,11.5233,11.5324,11.5725,11.6127,11.6346,11.755,11.9649,12.005,12.1017,12.2148,12.2696,12.2988,12.3776,12.4735,12.4959,12.4263,12.5339,12.5956,12.6135,12.6189,12.6189,12.6189,12.6189,12.6189,12.6319,12.6908,12.7375,12.7681,12.8016,12.8347,12.8614,12.8634,12.8692,12.8692,12.8692,12.8767,12.8842,12.8917,12.9201,12.9729,13.115,13.243,13.3021,13.3585,13.4322,13.4896,13.4914,13.5072,13.5292,13.576,13.6549,13.7048,13.6984,13.7435,13.8203,13.859,13.8611,13.8601,13.8579,13.8579,13.8579,13.8579,13.8601,9.4316,9.5306,9.6708,9.7931,9.8644,9.8829,9.8923,9.8923,9.8923,9.8923,9.8923,9.8923,9.8923,9.8923,9.8923,9.9776,10.0262,9.9811,10.0656,10.3148,10.2506,10.3223,10.5003,10.5441,10.6777,10.6635,10.746,10.6982,10.6505,10.5959,10.5509,10.5202,10.5202,10.5066,10.4656,10.5885,10.7357,10.7557,10.7699,10.8428,10.969,11.0709,11.136,11.1814,11.2026,11.2326,11.2821,11.3221,11.3936,11.4698,11.5025,11.5178,11.5507,11.547,11.6273,11.7477,11.8225,11.8718,11.9813,12.016,12.0871,12.2258,12.2659,12.3535,12.4214,12.486,12.4738,12.5271,12.5727,12.5958,12.6135,12.6153,12.6189,12.6189,12.6189,12.6189,12.6306,12.6786,12.7236,12.7577,12.7956,12.8281,12.8614,12.8634,12.8692,12.8692,12.8729,12.8917,12.9105,12.9406,12.9709,13.1394,13.29,13.3917,13.4631,13.5168,13.5838,13.6505,13.6597,13.6762,13.6984,13.7376,13.8166,13.8149,13.8283,13.8509,13.8673,13.8684,13.8642,13.8663,13.8742,13.8711,13.8611,13.8601,13.8622,9.3551,9.4933,9.6642,9.7507,9.7815,9.8537,9.8923,9.8923,9.8923,9.8923,9.8923,9.8923,9.8923,9.8923,9.9094,9.9674,10.0842,9.9572,10.0588,10.2534,10.267,10.2943,10.4485,10.568,10.6362,10.5646,10.6669,10.7664,10.6846,10.5919,10.4895,10.4315,10.3871,10.3325,10.2848,10.4178,10.4963,10.5835,10.6696,10.7813,10.9218,11.0457,11.1336,11.1495,11.1803,11.2038,11.2549,11.2999,11.411,11.5214,11.5534,11.5666,11.6747,11.6017,11.6711,11.9046,11.9594,11.9776,12.0214,12.0379,12.1309,12.2732,12.2732,12.3535,12.4377,12.4252,12.3563,12.3896,12.4954,12.6064,12.6116,12.6153,12.6189,12.6189,12.6189,12.6204,12.6369,12.6715,12.7165,12.7524,12.7907,12.8225,12.8574,12.8692,12.8917,12.8955,12.9293,12.9481,13.0609,13.0684,13.1333,13.3058,13.433,13.5329,13.6194,13.674,13.7231,13.7693,13.7775,13.777,13.8218,13.859,13.8573,13.8482,13.869,13.8762,13.8841,13.887,13.8821,13.8811,13.8898,13.8878,13.8782,13.8742,13.8742,9.359,9.476,9.5683,9.6548,9.7363,9.7985,9.8423,9.8897,9.8923,9.8923,9.8923,9.8923,9.8923,9.8923,9.8923,9.9299,9.9776,9.9162,9.9837,10.0793,10.1305,10.1544,10.2575,10.452,10.4752,10.5339,10.6533,10.7494,10.6641,10.5304,10.4206,10.3489,10.3387,10.2609,10.1858,10.3052,10.4417,10.4398,10.4933,10.5548,10.6303,10.7913,10.9564,11.0443,11.1179,11.2216,11.3192,11.4053,11.5244,11.6941,11.7235,11.7734,11.8201,11.8352,11.8773,12.0798,12.1382,12.1601,12.235,12.2533,12.2752,12.3645,12.3847,12.4248,12.4504,12.434,12.4071,12.4428,12.5489,12.5993,12.6116,12.6153,12.6189,12.6189,12.6189,12.6189,12.6303,12.6793,12.7159,12.7494,12.7883,12.8263,12.8601,12.903,12.918,12.9481,12.9857,13.0947,13.2301,13.2639,13.3015,13.4392,13.5355,13.6497,13.768,13.8113,13.8519,13.8644,13.8653,13.8556,13.8721,13.8622,13.8659,13.8731,13.8829,13.886,13.8955,13.8992,13.8983,13.9002,13.9011,13.8964,13.8917,13.8888,13.8841,9.3747,9.4458,9.4578,9.5625,9.7057,9.7335,9.8012,9.8844,9.8923,9.8923,9.8923,9.8923,9.8923,9.8923,9.8923,9.8958,9.9094,9.9026,9.906,9.9257,9.9776,9.9913,10.1312,10.3291,10.4212,10.5236,10.647,10.6675,10.5612,10.4178,10.3626,10.3319,10.2738,10.1892,10.1524,10.3127,10.3837,10.3756,10.4186,10.4844,10.5598,10.6893,10.8539,11.1039,11.165,11.3064,11.5032,11.5859,11.6947,11.9142,11.947,11.9912,12.0528,12.0922,12.1601,12.2696,12.3024,12.3389,12.4212,12.4686,12.4905,12.4978,12.4832,12.4942,12.4978,12.4925,12.4821,12.5178,12.5509,12.5833,12.6135,12.6189,12.6189,12.6189,12.6189,12.6189,12.6218,12.6536,12.6976,12.7467,12.7908,12.8338,12.914,12.9744,13.0421,13.1173,13.1511,13.2414,13.3692,13.4369,13.482,13.5651,13.6501,13.7702,13.8838,13.9045,13.9129,13.9066,13.8964,13.8831,13.8792,13.8711,13.8742,13.8907,13.9021,13.901,13.9029,13.9047,13.9056,13.9053,13.9056,13.9066,13.9039,13.903,13.8974,9.3369,9.3559,9.4335,9.5269,9.6262,9.7029,9.7897,9.8844,9.8923,9.8923,9.8923,9.8923,9.8923,9.8923,9.8923,9.8923,9.8923,9.8923,9.8923,9.906,9.9845,9.9947,10.0322,10.2506,10.3905,10.2206,10.4594,10.5856,10.5236,10.4178,10.3421,10.3011,10.1168,10.0152,9.9879,10.1039,10.2424,10.3353,10.4173,10.5351,10.7284,10.8025,10.9681,11.1907,11.2862,11.4473,11.6403,11.7433,11.8491,12.0554,11.9973,12.12,12.3003,12.4111,12.4504,12.4467,12.4431,12.4613,12.4942,12.4905,12.4905,12.4978,12.4942,12.4942,12.4978,12.4998,12.5152,12.5379,12.5547,12.5728,12.6118,12.6189,12.6189,12.6189,12.6189,12.6189,12.6255,12.6525,12.7005,12.7501,12.8007,12.914,12.9983,13.0496,13.1802,13.2892,13.3193,13.3842,13.5056,13.5958,13.656,13.7333,13.7637,13.8586,13.8917,13.9122,13.912,13.9038,13.8992,13.8955,13.8936,13.8889,13.8927,13.9102,13.9146,13.9143,13.9122,13.9114,13.9122,13.9134,13.9156,13.9097,13.9146,13.9166,13.9084,9.3306,9.3338,9.3746,9.4488,9.5388,9.6262,9.7202,9.8067,9.8678,9.8923,9.8923,9.8923,9.8923,9.8923,9.8923,9.8923,9.8923,9.8923,9.8923,9.9128,9.9503,9.9572,9.9769,10.1483,10.265,10.1763,10.3394,10.4827,10.5031,10.4212,10.3319,10.3148,10.2158,10.0486,9.9428,10.0432,10.1739,10.2908,10.3541,10.4935,10.7102,10.8056,10.957,11.0697,11.3337,11.58,11.816,11.9106,12.0664,12.2019,12.2437,12.3125,12.4582,12.4919,12.4978,12.4978,12.4978,12.4978,12.4686,12.4302,12.4156,12.4869,12.4119,12.4338,12.4759,12.4978,12.5133,12.5342,12.5528,12.5728,12.6101,12.6153,12.6189,12.6189,12.6189,12.6189,12.6204,12.6299,12.6884,12.8265,12.8191,12.9548,13.0862,13.1132,13.2338,13.4594,13.497,13.5309,13.6484,13.6973,13.7763,13.8176,13.8519,13.8799,13.8983,13.9066,13.9111,13.9091,13.9056,13.9047,13.9047,13.9091,13.9126,13.9122,13.9147,13.9151,13.9151,13.9167,13.9167,13.9175,13.9167,13.9151,13.9164,13.9177,13.9126,9.3306,9.3306,9.3306,9.3809,9.47,9.5414,9.6377,9.748,9.8263,9.8678,9.8923,9.8923,9.8923,9.8923,9.8923,9.8923,9.8923,9.8923,9.8923,9.8923,9.8923,9.8923,9.9265,10.0049,10.0603,10.091,10.2131,10.3428,10.4042,10.3257,10.2909,10.2841,10.2261,10.1714,10.0049,10.138,10.244,10.2942,10.3503,10.4981,10.6848,10.7923,10.8675,10.9506,11.2616,11.6049,11.8872,12.0673,12.1804,12.2683,12.3096,12.3352,12.4075,12.4338,12.4577,12.4759,12.4759,12.4613,12.4723,12.4119,12.3718,12.4759,12.4175,12.3681,12.4905,12.4978,12.5056,12.5192,12.5435,12.5674,12.5994,12.6099,12.6153,12.6189,12.6189,12.6189,12.617,12.617,12.7032,12.8398,12.8605,12.944,13.2976,13.2544,13.3955,13.592,13.671,13.6936,13.7349,13.7763,13.8139,13.8391,13.868,13.8829,13.8993,13.9075,13.9117,13.9131,13.9114,13.9143,13.9114,13.9139,13.9156,13.9151,13.9175,13.9175,13.9167,13.9175,13.9175,13.9175,13.9175,13.9167,13.9167,13.9167,13.9142,9.3306,9.3306,9.3306,9.3809,9.4547,9.4758,9.5797,9.7169,9.7562,9.8121,9.8784,9.8923,9.8923,9.8923,9.8923,9.8923,9.8923,9.8923,9.8923,9.8923,9.8923,9.8923,9.8984,9.9333,9.9401,9.9606,10.0637,10.1456,10.1865,10.1729,10.1387,10.179,10.166,10.1114,10.1421,10.3359,10.4889,10.52,10.6023,10.7141,10.8296,10.8785,10.9247,11.0031,11.2293,11.4932,11.7957,12.0184,12.0678,11.9064,12.0369,12.1853,12.2855,12.2951,12.3628,12.4577,12.4083,12.3883,12.4613,12.465,12.4686,12.4796,12.4759,12.4905,12.4905,12.4978,12.5056,12.5155,12.5454,12.5638,12.5852,12.6083,12.6153,12.6189,12.6189,12.6189,12.6189,12.617,12.655,12.7566,12.9036,13.0724,13.307,13.482,13.5996,13.6136,13.6136,13.6549,13.7188,13.7349,13.7575,13.8273,13.8742,13.8869,13.9002,13.9102,13.916,13.9188,13.9172,13.9172,13.918,13.9188,13.9167,13.9175,13.9175,13.9175,13.9175,13.9175,13.9175,13.9175,13.9175,13.9175,13.9175,13.9175,13.9175,9.3306,9.3306,9.3306,9.3496,9.3903,9.4458,9.5418,9.6553,9.7141,9.7985,9.8791,9.8923,9.8923,9.8923,9.8923,9.8923,9.8923,9.8923,9.8923,9.8923,9.8923,9.8923,9.8923,9.8923,9.8923,9.9052,9.9572,10.0288,10.0944,10.108,10.1619,10.2199,10.2438,10.2465,10.2575,10.3831,10.4871,10.6242,10.6929,10.8163,10.9603,10.9751,10.9951,11.0385,11.1397,11.3029,11.552,11.7697,11.8409,11.8191,11.9661,12.1401,12.237,12.3368,12.4321,12.4832,12.4431,12.4175,12.4759,12.4102,12.4083,12.4686,12.4029,12.4175,12.4759,12.4978,12.5056,12.5155,12.5399,12.5619,12.5762,12.6029,12.6153,12.6189,12.6189,12.6189,12.6189,12.6189,12.6887,12.8178,12.9396,13.072,13.2934,13.4028,13.4939,13.5459,13.5233,13.5797,13.6662,13.6484,13.6656,13.8054,13.8859,13.8983,13.9075,13.9134,13.9159,13.9167,13.9159,13.9167,13.9167,13.9167,13.9175,13.9175,13.9175,13.9175,13.9175,13.9175,13.9175,13.9175,13.9175,13.9175,13.9175,13.9175,13.9175,9.3146,9.3179,9.3274,9.3306,9.3401,9.3996,9.4821,9.5742,9.6634,9.7541,9.8423,9.881,9.8923,9.8923,9.8923,9.8923,9.8923,9.8923,9.8923,9.8923,9.8923,9.8923,9.8923,9.8923,9.8923,9.8923,9.906,9.964,10.0978,10.108,10.1858,10.3353,10.3694,10.394,10.4104,10.4547,10.5584,10.6935,10.7161,10.8045,10.933,10.9514,10.9619,10.9671,11.0191,11.1206,11.2583,11.4298,11.5218,11.5198,11.7894,12.0058,12.0729,12.2124,12.3069,12.342,12.3287,12.3117,12.3226,12.255,12.2805,12.4029,12.3316,12.3134,12.4321,12.4723,12.4856,12.4626,12.5271,12.5619,12.578,12.5993,12.6153,12.6189,12.6189,12.6189,12.6189,12.6207,12.6722,12.8343,12.9268,13.0441,13.1993,13.3093,13.3907,13.388,13.3654,13.3654,13.4933,13.5281,13.5651,13.7266,13.8794,13.8964,13.9138,13.9164,13.9175,13.9175,13.9175,13.9175,13.9175,13.9175,13.9175,13.9175,13.9175,13.9175,13.9175,13.9175,13.9175,13.9175,13.9175,13.9175,13.9175,13.9175,13.9175,9.2762,9.2794,9.3147,9.3274,9.3338,9.3401,9.3996,9.4851,9.5742,9.6667,9.759,9.8457,9.8871,9.8923,9.8923,9.8923,9.8923,9.8923,9.8923,9.8923,9.8923,9.8923,9.8923,9.8923,9.8923,9.8923,9.8923,9.964,10.0773,10.1012,10.1892,10.3387,10.4616,10.5373,10.568,10.6908,10.7415,10.7722,10.7802,10.783,10.8115,10.8121,10.8149,10.8183,10.8518,10.9165,11.0273,11.1394,11.1407,11.0751,11.4066,11.6603,11.7582,11.8445,12.035,12.1534,11.9428,11.981,12.0233,12.0616,12.1182,12.255,12.2477,12.2604,12.2915,12.3883,12.4289,12.3437,12.4648,12.5619,12.578,12.5993,12.6153,12.6189,12.6189,12.6189,12.6189,12.628,12.6755,12.7407,12.8718,13.018,13.1096,13.2878,13.3651,13.3606,13.2677,13.2855,13.3767,13.4717,13.4956,13.6325,13.8239,13.868,13.9143,13.9188,13.9175,13.9175,13.9175,13.9175,13.9175,13.9175,13.9175,13.9175,13.9175,13.9175,13.9175,13.9175,13.9175,13.9175,13.9175,13.9175,13.9175,13.9175,13.9175,9.2568,9.273,9.2858,9.3051,9.3306,9.3306,9.3841,9.4639,9.5032,9.6034,9.7258,9.7815,9.8316,9.8871,9.8923,9.8923,9.8923,9.8923,9.8923,9.8923,9.8923,9.8923,9.8923,9.8923,9.8923,9.8923,9.8923,9.923,9.9776,10.0637,10.1892,10.3421,10.4827,10.5959,10.7016,10.7562,10.7903,10.7903,10.7903,10.7903,10.7903,10.7903,10.7903,10.7961,10.8149,10.853,10.9073,10.9835,11.0082,11.0106,11.1455,11.4079,11.6973,11.982,12.1408,12.1254,12.0836,12.0433,12.0123,11.9941,12.0488,12.0871,12.1017,12.1017,12.1346,12.2586,12.3376,12.3145,12.4428,12.5656,12.5743,12.5993,12.6153,12.6153,12.6116,12.6189,12.63,12.7,12.7698,12.8698,13.0853,13.227,13.2718,13.3817,13.4772,13.387,13.3193,13.3231,13.3644,13.4519,13.5355,13.6478,13.7938,13.8754,13.9093,13.918,13.9175,13.9175,13.9175,13.9175,13.9175,13.9175,13.9175,13.9175,13.9175,13.9175,13.9175,13.9175,13.9175,13.9175,13.9175,13.9175,13.9175,13.9175,13.9175,9.2242,9.2406,9.2633,9.289,9.3114,9.3242,9.3622,9.4212,9.458,9.5358,9.6491,9.7113,9.7788,9.8404,9.8844,9.8923,9.8923,9.8923,9.8923,9.8923,9.8923,9.8923,9.8923,9.8923,9.8923,9.8923,9.8923,9.9154,9.9803,10.0603,10.2165,10.3871,10.51,10.6362,10.7733,10.7903,10.7903,10.7903,10.7903,10.7903,10.7903,10.7903,10.7903,10.7926,10.8234,10.8509,10.8635,10.9278,10.9599,10.9599,11.0177,11.2086,11.5671,11.9182,12.0546,11.9948,11.9968,11.9399,11.8699,11.8572,11.8681,11.9302,11.9411,11.9411,11.9594,12.0944,12.1659,12.1462,12.2908,12.4391,12.4899,12.5204,12.522,12.531,12.5347,12.5384,12.6079,12.7017,12.8101,12.9344,13.1611,13.3129,13.328,13.4053,13.4659,13.3832,13.3682,13.3637,13.3996,13.5004,13.6165,13.6609,13.7955,13.9073,13.9139,13.9167,13.9175,13.9175,13.9175,13.9175,13.9175,13.9175,13.9175,13.9175,13.9175,13.9175,13.9175,13.9175,13.9175,13.9175,13.9175,13.9175,13.9175,13.9175,13.9175,9.1782,9.1881,9.2438,9.2665,9.2762,9.3115,9.3306,9.3496,9.4212,9.4669,9.5242,9.6577,9.7335,9.7672,9.8537,9.8923,9.8923,9.8923,9.8923,9.8923,9.8923,9.8923,9.8923,9.8923,9.8923,9.8923,9.8923,9.964,10.0637,10.1012,10.2377,10.4799,10.5174,10.6055,10.7767,10.7664,10.7767,10.7903,10.7903,10.7903,10.7903,10.7903,10.7903,10.7926,10.8369,10.8641,10.8662,10.9374,10.9842,10.9799,10.9853,11.1118,11.4187,11.6003,11.6481,11.6995,11.5531,11.4859,11.5379,11.5616,11.6492,11.7422,11.7806,11.7787,11.7988,11.9229,11.9796,11.9285,12.0273,12.1644,12.3286,12.3501,12.3501,12.3519,12.3571,12.4285,12.5529,12.6133,12.6943,12.8889,13.0369,13.0927,13.2493,13.4091,13.4724,13.4481,13.4331,13.4399,13.4452,13.5638,13.6346,13.686,13.7997,13.9042,13.9156,13.9175,13.9175,13.9175,13.9175,13.9175,13.9175,13.9175,13.9175,13.9175,13.9175,13.9175,13.9175,13.9175,13.9175,13.9175,13.9175,13.9175,13.9175,13.9175,13.9175,9.1485,9.1782,9.198,9.221,9.2438,9.2794,9.2922,9.2954,9.3527,9.412,9.4821,9.5914,9.6832,9.748,9.8484,9.8923,9.8923,9.8923,9.8923,9.8923,9.8923,9.8923,9.8923,9.8923,9.8923,9.8923,9.8923,9.9154,9.9708,10.0603,10.1558,10.2643,10.366,10.4827,10.6055,10.63,10.688,10.7767,10.7903,10.7869,10.7903,10.7903,10.7903,10.7955,10.8397,10.8814,10.9068,11.0451,11.1222,11.1222,11.1222,11.2582,11.5475,11.7675,11.8018,11.646,11.6638,11.6353,11.479,11.494,11.5543,11.6054,11.609,11.609,11.62,11.7587,11.8791,11.9669,12.1004,12.223,12.2724,12.219,12.2077,12.2995,12.2507,12.2626,12.4064,12.439,12.585,12.8291,13.0904,13.3213,13.4615,13.6005,13.6743,13.7038,13.7,13.6488,13.5939,13.6834,13.7758,13.6999,13.8212,13.898,13.9188,13.9175,13.9175,13.9175,13.9175,13.9175,13.9175,13.9175,13.9175,13.9175,13.9175,13.9175,13.9175,13.9175,13.9175,13.9175,13.9175,13.9175,13.9167,13.9175,13.9164,9.1086,9.1352,9.165,9.1881,9.2176,9.247,9.2665,9.273,9.2987,9.3527,9.4243,9.5152,9.603,9.6945,9.7849,9.8289,9.8431,9.8784,9.8923,9.8923,9.8923,9.8923,9.8923,9.8923,9.8923,9.8923,9.8923,9.8923,9.9086,9.9845,10.0535,10.1149,10.2131,10.3325,10.452,10.4758,10.5543,10.6846,10.7016,10.7357,10.7801,10.7903,10.7926,10.8007,10.8419,10.8869,10.9273,11.0436,11.143,11.1916,11.195,11.331,11.6176,11.8028,11.8116,11.6762,11.7127,11.6945,11.5879,11.6154,11.6377,11.6218,11.62,11.6273,11.6346,11.713,11.8407,11.9868,12.1314,12.221,12.2338,12.1992,12.1864,12.2761,12.246,12.2507,12.3279,12.4135,12.5011,12.6896,13.027,13.3625,13.5014,13.7281,13.8542,13.8579,13.8542,13.8126,13.7625,13.8088,13.854,13.8023,13.8451,13.9185,13.9175,13.9175,13.9175,13.9175,13.9175,13.9175,13.9175,13.9175,13.9175,13.9175,13.9175,13.9175,13.9175,13.9175,13.9175,13.9175,13.9175,13.9167,13.9172,13.9185,13.9143,9.0583,9.075,9.1387,9.1716,9.1718,9.2016,9.231,9.2633,9.2569,9.2826,9.3369,9.4243,9.5024,9.5748,9.6258,9.6928,9.7474,9.8377,9.8818,9.8923,9.8923,9.8923,9.8923,9.8923,9.8923,9.8923,9.8923,9.8923,9.8923,9.9018,9.964,10.0876,10.0978,10.179,10.308,10.3319,10.4035,10.5543,10.5714,10.6362,10.7699,10.7903,10.7978,10.8284,10.8564,10.8834,10.9266,10.9604,11.0493,11.1916,11.195,11.3269,11.5884,11.6252,11.6691,11.7346,11.6429,11.6424,11.7717,11.8062,11.8103,11.7853,11.7675,11.7805,11.7878,11.8061,11.8827,12.0196,12.0617,12.1292,12.2642,12.2682,12.2665,12.2852,12.2963,12.3068,12.3374,12.467,12.5067,12.4764,12.7206,13.063,13.4527,13.7158,13.8359,13.8579,13.8579,13.8578,13.8662,13.8842,13.9,13.898,13.9083,13.9175,13.9175,13.9175,13.9175,13.9175,13.9175,13.9175,13.9175,13.9175,13.9175,13.9175,13.9175,13.9175,13.9175,13.9175,13.9175,13.9175,13.9175,13.9147,13.9117,13.9146,13.9102,9.075,9.1019,9.1252,9.1319,9.1257,9.064,9.0995,9.1855,9.1192,9.1545,9.2633,9.3557,9.3499,9.2892,9.2974,9.46,9.6872,9.7403,9.8019,9.8897,9.8923,9.8923,9.8923,9.8923,9.8923,9.8923,9.8923,9.8923,9.8923,9.8923,9.9128,9.9462,9.9503,10.0288,10.1585,10.1756,10.2984,10.527,10.5543,10.6294,10.7664,10.7903,10.8092,10.8502,10.8641,10.8917,10.95,11.0682,11.1534,11.195,11.195,11.2852,11.4566,11.3761,11.3795,11.5,11.5435,11.5465,11.4779,11.6413,11.7707,11.8258,11.8345,11.87,11.9297,11.9484,12.0251,12.1674,12.1966,12.255,12.392,12.3395,12.2812,12.2683,12.1954,12.2076,12.3142,12.3809,12.4237,12.3886,12.5749,12.8196,13.1382,13.5483,13.8445,13.8542,13.8579,13.8642,13.8829,13.8927,13.9048,13.9164,13.9172,13.9167,13.9175,13.9175,13.9175,13.9175,13.9175,13.9175,13.9175,13.9175,13.9175,13.9175,13.9175,13.9175,13.9175,13.9175,13.9175,13.9167,13.9156,13.9155,13.9066,13.9048,13.9002,8.9024,8.9254,8.945,8.9452,8.939,8.8829,8.9182,9.0008,8.9408,8.9695,9.0587,9.0874,9.0614,9.0031,9.0365,9.1845,9.4218,9.552,9.6631,9.7562,9.8545,9.8923,9.8923,9.8923,9.8923,9.8923,9.8923,9.8923,9.8923,9.8923,9.8923,9.8923,9.8923,9.9359,10.0125,10.022,10.1687,10.4554,10.469,10.5748,10.7596,10.7903,10.8149,10.8614,10.8669,10.8979,10.9623,11.0493,11.1326,11.1916,11.195,11.2644,11.4018,11.3283,11.3214,11.4039,11.4702,11.4769,11.4343,11.5622,11.689,11.7967,11.8401,11.9219,12.038,12.0243,12.0835,12.2331,12.2659,12.328,12.4613,12.4216,12.3724,12.3595,12.3164,12.2885,12.3218,12.4051,12.4311,12.3832,12.5138,12.7195,12.9931,13.3504,13.6454,13.8359,13.8579,13.867,13.8772,13.8907,13.9039,13.9129,13.916,13.9172,13.9175,13.9175,13.9175,13.9175,13.9175,13.9175,13.9175,13.9175,13.9175,13.9175,13.9175,13.9175,13.9167,13.9159,13.9156,13.9177,13.9155,13.9066,13.8927,13.8907,13.8869,8.6544,8.661,8.7058,8.7091,8.7154,8.6997,8.722,8.7632,8.7442,8.7505,8.7502,8.6936,8.7031,8.7505,8.8248,8.9164,9.0317,9.3098,9.4729,9.5431,9.7627,9.8745,9.8642,9.8881,9.8923,9.8923,9.8923,9.8923,9.8923,9.8923,9.8923,9.8923,9.8923,9.8958,9.8958,9.8992,10.0417,10.3319,10.325,10.4582,10.7255,10.7596,10.7944,10.8463,10.8566,10.9006,10.9607,10.9626,11.032,11.1603,11.1673,11.2305,11.3422,11.3602,11.3664,11.363,11.363,11.4172,11.5168,11.5438,11.5964,11.7032,11.7989,11.9163,12.0591,12.0146,12.0484,12.1856,12.2221,12.2623,12.4265,12.4321,12.4029,12.3902,12.4298,12.463,12.3529,12.4749,12.5342,12.3795,12.5121,12.6998,12.903,13.1141,13.3764,13.6988,13.771,13.8208,13.8629,13.8878,13.9011,13.9084,13.9175,13.9189,13.9172,13.9167,13.9175,13.9175,13.9175,13.9167,13.9151,13.9159,13.9159,13.9147,13.9134,13.9126,13.9156,13.9168,13.9138,13.9129,13.9029,13.8889,13.8849,13.8772,13.8731,8.6706,8.6963,8.706,8.7091,8.6997,8.5927,8.6147,8.7061,8.6021,8.495,8.4035,8.3849,8.4447,8.5517,8.5736,8.7111,8.9254,9.096,9.2284,9.3526,9.595,9.7141,9.7277,9.8404,9.8923,9.8923,9.8923,9.8923,9.8923,9.8923,9.8923,9.8923,9.8923,9.8923,9.8923,9.8923,10.0417,10.3114,10.2233,10.2506,10.4377,10.5509,10.6404,10.7018,10.8043,10.9006,10.9607,10.9626,10.9773,11.012,11.0181,11.0328,11.0605,11.0674,11.064,11.064,11.0674,11.126,11.2675,11.3797,11.4899,11.5904,11.6973,11.808,11.9004,11.7974,11.8099,12.0101,11.9666,11.9612,12.1054,12.1328,12.1219,12.1219,12.1498,12.2102,12.3016,12.3634,12.3863,12.3926,12.5121,12.6497,12.7613,12.9227,13.1465,13.4,13.5685,13.7151,13.8358,13.8752,13.8849,13.8917,13.9057,13.9146,13.9172,13.9164,13.9167,13.9175,13.9175,13.9172,13.916,13.9181,13.9164,13.9065,13.9047,13.9056,13.9009,13.902,13.9001,13.8992,13.8927,13.8774,13.8696,13.8608,13.8611,8.4825,8.5108,8.5108,8.5108,8.5045,8.429,8.4416,8.5014,8.429,8.3535,8.2844,8.2812,8.3253,8.3944,8.3976,8.4909,8.6552,8.8777,9.0232,9.124,9.4121,9.5579,9.5775,9.7115,9.7892,9.7926,9.8608,9.8923,9.8923,9.8923,9.8923,9.8923,9.8923,9.8923,9.8923,9.8923,10.0076,10.2233,10.0761,10.0332,10.1177,10.1981,10.2347,10.22,10.3855,10.4937,10.5437,10.5437,10.5472,10.5437,10.5437,10.5784,10.6434,10.6538,10.6816,10.7449,10.7492,10.7839,10.8732,10.9469,11.0776,11.2749,11.4517,11.5183,11.4308,11.4432,11.5605,11.8013,11.762,11.7884,11.9903,12.0123,12.0123,12.0123,12.0364,12.0913,12.1882,12.2775,12.3426,12.3659,12.505,12.6299,12.6771,12.8446,13.0196,13.1771,13.422,13.65,13.8306,13.8041,13.7791,13.8631,13.8907,13.8992,13.9075,13.9091,13.9088,13.905,13.9088,13.9071,13.9102,13.9122,13.9066,13.9021,13.9011,13.9011,13.9011,13.8936,13.8907,13.8898,13.8782,13.827,13.7846,13.8143,13.794,8.266,8.2812,8.2812,8.2812,8.2812,8.2812,8.2812,8.2812,8.2812,8.2812,8.2812,8.2812,8.2812,8.2812,8.2812,8.2995,8.3513,8.6653,8.8298,8.8831,9.2151,9.3868,9.418,9.5639,9.6287,9.6424,9.7857,9.8642,9.8642,9.8847,9.8923,9.8923,9.8923,9.8923,9.8923,9.8923,9.9409,10.023,9.8912,9.8295,9.8465,9.8867,9.8405,9.7164,9.9291,10.038,10.02,10.0467,10.0374,10.019,10.0165,10.0616,10.1786,10.1855,10.2385,10.3574,10.3653,10.3861,10.4337,10.4337,10.5654,10.8716,11.1414,11.1439,10.8315,11.0252,11.2738,11.4957,11.5429,11.6599,11.8752,11.9156,11.9229,11.932,11.956,11.9889,12.0163,12.1566,12.2602,12.2967,12.4704,12.584,12.6213,12.7713,12.9135,13.0349,13.253,13.5308,13.6502,13.6484,13.6563,13.7914,13.8584,13.8821,13.8927,13.8955,13.8992,13.9011,13.8983,13.8983,13.8993,13.8983,13.8974,13.8927,13.8568,13.8465,13.8427,13.8332,13.7831,13.7698,13.761,13.7247,13.6081,13.671,13.6785,8.275,8.2812,8.2812,8.2812,8.2812,8.2812,8.2812,8.2812,0.0,0.0,0.0,8.2812,8.2812,8.2812,8.2812,8.2874,8.3026,8.4551,8.582,8.6943,8.9717,9.1614,9.2586,9.4019,9.4701,9.4769,9.6262,9.7004,9.7072,9.8335,9.8923,9.8923,9.8923,9.8923,9.8923,9.8923,9.8235,9.6833,9.6448,9.6861,9.8046,9.9755,9.9499,9.7045,10.0152,10.0865,9.8685,9.9819,9.9947,9.8674,9.8605,9.8119,9.7159,9.709,9.7194,9.7436,9.7471,9.8581,10.1102,10.1275,10.2593,10.5585,10.8212,10.7798,10.3406,10.6052,10.8616,11.0318,11.1857,11.3092,11.4121,11.5324,11.6127,11.6127,11.6163,11.6838,11.8206,11.8967,12.0002,12.1352,12.3014,12.4141,12.4331,12.5981,12.7399,12.8256,13.025,13.1809,13.2481,13.3569,13.4717,13.6215,13.7527,13.8631,13.8784,13.8719,13.8964,13.87,13.8776,13.8936,13.8869,13.8811,13.8782,13.843,13.7439,13.6744,13.6509,13.5709,13.469,13.4652,13.4605,13.4471,13.4256,13.4433,13.3955,8.2197,8.2812,8.2812,8.2812,0.0,8.2812,8.2465,8.1898,8.2498,8.2812,8.2812,8.2812,8.2812,8.2812,8.2812,8.2812,8.2873,8.4031,8.4868,8.5518,8.8014,8.9543,9.0142,9.2227,9.3191,9.3259,9.4692,9.5477,9.5579,9.7004,9.6927,9.5367,9.6831,9.6745,9.5161,9.584,9.5337,9.3593,9.5048,9.5766,9.5759,9.6973,9.6654,9.4712,9.7445,0.0,0.0,0.0,0.0,0.0,0.0,0.0,0.0,0.0,0.0,9.1069,8.8295,8.7623,8.9864,9.0038,9.205,9.65,9.809,9.7466,9.4446,9.8571,10.2253,10.441,10.5665,10.7343,10.981,11.0988,11.162,11.173,11.3116,11.4393,11.5431,11.707,11.8582,11.9709,12.1239,12.2753,12.3521,12.4598,12.5616,12.6975,12.8904,13.0462,13.0891,13.1811,13.2667,13.3504,13.5097,13.6218,13.6218,13.6306,13.6307,13.6318,13.629,13.6327,13.6327,13.6337,13.628,13.6157,13.5533,13.4901,13.4826,13.4299,13.3725,13.3725,13.3725,13.3113,13.0431,13.0609,13.0722,8.1229,8.216,8.216,8.2094,8.2026,8.1843,8.1245,8.0572,8.1836,8.2465,8.2465,8.2687,8.2812,8.2812,8.2812,8.2812,8.2842,8.383,8.4192,8.428,8.6162,8.7082,8.7408,8.9801,9.1109,9.1416,9.3054,9.3916,9.401,9.5502,9.4855,9.2381,9.4626,9.4396,9.1631,0.0,0.0,0.0,9.3497,9.4383,9.3403,9.3963,9.3473,9.1816,9.4115,0.0,9.4593,9.4801,9.4871,9.4558,9.346,0.0,0.0,0.0,0.0,0.0,0.0,0.0,0.0,0.0,0.0,0.0,8.6188,8.5841,8.5612,9.0501,9.4614,9.6808,9.9069,10.1605,10.4642,10.5868,10.6671,10.7138,10.947,11.1184,11.1674,11.426,11.6427,11.693,11.8879,12.0776,12.2305,12.3022,12.3975,12.594,12.7788,12.9034,12.9402,12.9832,13.0524,13.1211,13.2526,13.3343,13.3644,13.3863,13.4074,13.3737,13.3775,13.3945,13.4085,13.4094,13.4019,13.354,13.3371,13.3229,13.2796,13.2505,13.2147,13.2683,13.2457,13.1018,12.6898,12.6906,12.7376,7.9787,7.9774,7.9774,7.9548,7.9164,7.8397,7.8454,7.9126,8.048,8.1139,8.1172,8.2308,8.2812,8.2812,8.2812,8.2812,8.2843,8.2933,8.2957,8.287,8.3175,8.3683,8.4389,8.6097,8.7352,8.8322,9.1041,9.243,9.2508,9.401,9.4462,9.3969,9.4344,9.357,9.1712,9.0059,8.9165,8.9031,9.0449,9.1728,9.2801,9.3758,9.2961,9.0393,9.2586,9.2696,9.0107,9.1217,9.1287,9.0003,8.976,8.908,8.7901,8.5786,8.2804,0.0,7.684,0.0,0.0,0.0,0.0,0.0,0.0,0.0,0.0,8.3983,8.5905,8.5709,9.3277,9.7687,9.6538,9.9059,10.1563,10.3435,10.4085,10.4936,10.6548,10.8428,11.0293,11.176,11.4856,11.7498,11.9101,12.0718,12.2335,12.4302,12.498,12.4997,12.5614,12.6228,12.7732,13.0872,13.1399,13.1501,13.2677,13.3264,13.3257,13.3465,13.3296,13.3935,13.3425,13.3501,13.3247,13.1903,13.1272,13.0962,12.9596,12.8232,12.7894,12.9069,12.811,12.6474,12.465,12.4321,12.4349,7.5557,7.5377,7.6083,7.4793,7.2329,7.3299,7.3895,7.4569,7.7357,7.8619,7.8714,8.0009,8.0515,8.0576,8.0515,8.0955,8.1646,8.0922,8.0934,8.161,8.1528,8.1608,8.2029,8.4152,8.5724,8.6855,8.8917,9.0239,9.089,9.2406,9.222,9.0438,9.2072,8.9835,8.4186,8.5446,8.7077,8.8601,8.9215,9.0798,9.3276,9.3963,9.3768,9.2796,9.4118,9.4235,9.2859,9.3484,9.3518,9.2825,9.2015,9.0927,8.924,8.2234,7.7968,0.0,0.0,0.0,0.0,0.0,0.0,0.0,0.0,0.0,0.0,0.0,7.8434,7.9053,8.7894,9.2631,9.0295,9.2402,9.4076,9.4533,9.5374,9.7391,10.1162,10.3106,10.444,10.5232,10.8303,11.1483,11.4202,11.5946,11.8337,12.2173,11.8865,11.6493,11.7758,12.0086,12.2211,12.4055,12.5928,12.715,12.6802,12.6841,12.686,12.7029,12.7752,12.7796,12.6048,12.6434,12.6538,12.5064,12.5313,12.5589,12.4913,12.4753,12.5242,12.544,12.3163,12.0663,11.9959,12.1162,12.2075,7.2031,7.1502,6.9999,6.7873,6.5607,6.7706,6.9123,7.0169,7.3478,7.5076,7.5402,7.7087,7.7362,7.6535,7.5935,7.678,7.8753,7.7368,7.784,7.9812,7.9332,7.9212,7.957,8.2141,8.3949,8.506,8.6402,8.7807,8.9274,8.9796,8.8543,8.5986,8.7932,8.5207,7.8136,8.142,8.4878,8.8088,8.8442,8.9848,9.2452,9.2975,9.3432,9.3798,9.4407,9.4766,9.4766,9.4766,9.4766,9.4732,9.2349,9.0441,8.9123,7.8265,0.0,0.0,0.0,0.0,0.0,0.0,0.0,0.0,0.0,6.6592,5.7852,0.0,7.228,0.0,8.2476,8.7139,8.5773,8.6254,0.0,0.0,8.6215,8.8025,9.2919,9.5618,9.7469,9.8303,10.17,10.5345,10.8905,11.0403,11.2628,11.6411,11.2024,10.8949,11.0617,11.4079,11.6634,11.7326,11.9332,12.0502,11.9401,11.9425,12.0199,12.1069,12.2685,12.2911,12.0473,12.1055,12.1122,11.9373,12.0138,12.075,12.0186,12.1022,12.1688,12.1115,11.8072,11.5218,11.5554,11.7469,11.8877,7.1167,6.9311,5.9978,5.7823,6.0691,6.1988,6.4381,6.7473,6.909,7.0184,7.1112,7.4007,7.3542,7.0348,6.7873,0.0,7.2936,7.1502,7.3053,7.7044,7.5714,7.5588,7.6648,7.9178,8.0982,8.2018,8.3441,8.5417,8.7637,8.5383,8.3132,8.1246,8.1218,8.0169,7.8262,7.9508,8.2374,8.6596,8.771,8.8456,8.8708,8.9678,9.0202,9.0284,9.1195,9.1725,9.1725,9.1703,9.1703,9.1517,8.6209,8.3072,8.267,0.0,0.0,0.0,0.0,0.0,0.0,0.0,0.0,0.0,0.0,0.0,0.0,0.0,0.0,0.0,7.6967,0.0,8.3427,8.1068,0.0,0.0,0.0,7.5729,7.9515,8.3945,8.8062,9.1545,0.0,0.0,10.3607,10.4151,10.4465,10.5126,10.6321,10.7026,10.6982,11.0061,11.2713,11.2377,11.2734,11.2895,11.3122,11.4191,11.6114,11.8963,12.1834,12.2239,12.1812,12.2074,12.1194,11.8108,11.9259,11.9434,11.6269,11.5671,11.5487,11.3905,11.3175,11.2854,11.2886,11.3282,11.3708,6.2611,5.8945,5.3951,5.2727,5.4148,5.5322,5.7919,6.1478,6.3485,6.4169,6.3934,6.5944,6.4402,6.0252,5.9467,0.0,0.0,0.0,6.6519,7.1425,7.0102,7.1075,7.3972,7.5909,7.7813,7.9717,8.2522,8.4803,8.652,8.6691,7.9775,6.6274,0.0,0.0,6.7924,7.4718,7.9999,8.3527,8.6645,8.8278,8.827,8.896,8.9635,9.0285,9.0985,9.1378,9.1378,9.1378,8.9678,8.5966,8.2636,7.8716,0.0,0.0,0.0,0.0,0.0,0.0,0.0,0.0,0.0,0.0,0.0,5.5432,5.0682,0.0,0.0,0.0,6.5678,6.8844,7.1653,7.3932,0.0,0.0,0.0,0.0,0.0,0.0,0.0,8.3017,8.7985,9.2682,9.6911,9.6434,9.6128,9.7307,9.7149,9.6993,9.7256,0.0,10.3474,10.5873,10.6974,10.7915,10.9056,10.8907,10.9118,11.0618,11.3086,11.4363,11.2599,11.3887,11.4356,11.2667,11.3141,11.3775,11.2448,10.9416,10.6972,10.6629,10.6492,10.6936,10.8115,10.9081,11.0171,5.3618,0.0,0.0,0.0,0.0,4.9418,5.1738,5.5063,5.6797,5.6963,5.6226,5.7575,0.0,0.0,0.0,0.0,0.0,0.0,6.0827,6.6169,6.6631,6.8558,7.1788,7.3173,7.4698,7.6499,7.9046,8.0507,8.0959,8.1286,7.2433,5.52,0.0,0.0,0.0,0.0,7.6396,8.0418,8.5556,8.8278,8.8278,8.8761,8.9466,9.0355,9.1008,9.1378,9.1343,8.9678,8.6521,8.1714,7.6754,0.0,0.0,0.0,0.0,0.0,0.0,0.0,0.0,0.0,0.0,0.0,0.0,0.0,0.0,0.0,0.0,0.0,0.0,0.0,6.3282,6.8147,6.9688,0.0,0.0,0.0,0.0,0.0,0.0,0.0,0.0,0.0,8.9042,8.9404,9.0216,0.0,0.0,9.1932,9.1166,9.3974,9.6842,9.8729,9.9838,0.0,10.2373,10.189,10.1702,10.2712,10.5392,10.6686,10.4351,10.5959,10.6963,10.4922,10.6234,10.7335,10.6245,10.2162,9.9348,9.9699,9.9531,9.9904,10.1634,10.3364,10.4848,0.0,0.0,0.0,0.0,0.0,0.0,0.0,0.0,4.868,4.856,0.0,4.984,0.0,0.0,0.0,0.0,4.7198,5.1568,0.0,0.0,6.607,6.8923,6.9966,7.1107,7.1785,7.1931,7.1675,7.0816,6.9288,6.5364,0.0,0.0,0.0,0.0,0.0,0.0,7.0922,7.7279,8.4551,8.8278,8.8304,8.8727,8.9295,8.985,9.0815,9.1309,9.1101,8.5585,8.1699,7.9806,6.7216,0.0,0.0,0.0,0.0,0.0,0.0,0.0,0.0,0.0,0.0,0.0,0.0,0.0,0.0,0.0,0.0,0.0,0.0,0.0,0.0,6.458,0.0,0.0,0.0,0.0,0.0,0.0,0.0,0.0,0.0,0.0,7.9723,8.3637,8.7788,9.0974,0.0,0.0,0.0,0.0,9.481,9.1515,9.0866,9.1026,9.1167,9.2593,9.4843,9.8138,0.0,0.0,10.1508,10.1433,10.0382,9.7257,9.9608,10.065,9.7213,9.368,9.2093,9.3387,9.2514,9.2253,9.3716,9.5102,9.6507,0.0,0.0,0.0,0.0,0.0,0.0,0.0,0.0,0.0,4.2912,0.0,4.2693,0.0,0.0,0.0,0.0,0.0,0.0,0.0,0.0,5.5452,5.8828,6.1913,6.4083,6.4681,0.0,6.514,6.1444,0.0,0.0,0.0,0.0,0.0,0.0,0.0,0.0,6.9472,7.3827,8.3614,8.8761,8.8786,8.9271,8.9778,9.0308,9.0655,8.8658,8.4038,7.9945,7.5228,0.0,0.0,0.0,0.0,0.0,0.0,0.0,0.0,0.0,0.0,0.0,0.0,0.0,0.0,0.0,0.0,0.0,0.0,0.0,0.0,0.0,0.0,0.0,6.0933,0.0,0.0,0.0,0.0,0.0,0.0,0.0,0.0,0.0,7.3927,7.9218,8.423,8.7725,8.9996,9.1275,9.1159,0.0,0.0,0.0,0.0,0.0,0.0,0.0,9.0491,9.1561,9.0506,9.0306,9.2588,9.4763,9.5896,9.4785,0.0,0.0,8.3846,8.1957,8.2169,8.2668,8.2352,8.251,8.4107,8.4888,8.5951,0.0,0.0,0.0,0.0,0.0,0.0,0.0,0.0,0.0,3.6912,3.5663,0.0,0.0,0.0,0.0,0.0,0.0,0.0,0.0,0.0,0.0,0.0,5.5401,5.7236,0.0,0.0,0.0,0.0,0.0,0.0,0.0,0.0,0.0,0.0,0.0,0.0,6.7458,7.133,8.2267,8.8313,8.8752,8.9441,8.9729,8.9553,8.9863,8.6752,7.9789,0.0,0.0,0.0,0.0,0.0,0.0,0.0,0.0,0.0,0.0,0.0,0.0,0.0,0.0,0.0,0.0,0.0,0.0,0.0,0.0,0.0,0.0,0.0,0.0,0.0,5.5979,0.0,0.0,0.0,0.0,0.0,0.0,0.0,0.0,0.0,0.0,0.0,7.9283,8.3225,8.6224,8.8422,8.9586,9.0171,9.1154,0.0,0.0,0.0,0.0,0.0,0.0,0.0,0.0,0.0,0.0,0.0,0.0,0.0,0.0,8.4767,7.507,7.3388,7.3651,7.4198,0.0,0.0,0.0,0.0,0.0,0.0,0.0,0.0,0.0,0.0,0.0,0.0,0.0,0.0,0.0,2.8785,0.0,0.0,2.6221,0.0,0.0,0.0,0.0,0.0,0.0,0.0,0.0,0.0,0.0,0.0,0.0,0.0,0.0,0.0,0.0,0.0,0.0,0.0,0.0,0.0,0.0,6.4633,6.9568,8.0471,8.6771,8.8128,8.9203,8.8996,8.763,8.8447,8.5776,7.9054,0.0,0.0,0.0,0.0,0.0,0.0,0.0,0.0,0.0,0.0,0.0,0.0,0.0,0.0,0.0,0.0,0.0,0.0,0.0,0.0,0.0,0.0,0.0,0.0,0.0,0.0,5.2848,5.9543,6.2764,0.0,0.0,0.0,0.0,0.0,0.0,0.0,0.0,0.0,7.77,8.3281,8.6814,8.6733,8.7907,8.8455,8.7054,8.7794,8.8618,8.891,9.0171,9.0162,0.0,0.0,0.0,0.0,0.0,0.0,0.0,0.0,0.0,0.0,0.0,0.0,0.0,0.0,0.0,0.0,0.0,0.0,0.0,0.0,0.0,0.0,0.0,0.0,0.0,0.0,0.0,0.0,0.0,0.0,0.0,0.0,0.0,0.0,0.0,0.0,0.0,0.0,0.0,0.0,0.0,0.0,0.0,0.0,0.0,0.0,0.0,0.0,0.0,0.0,0.0,0.0,0.0,0.0,6.2767,6.7792,7.9181,8.5576,8.6719,8.7324,8.7399,8.6916,8.6262,8.3381,0.0,0.0,0.0,0.0,0.0,0.0,0.0,0.0,0.0,0.0,0.0,0.0,0.0,0.0,0.0,0.0,0.0,0.0,0.0,0.0,0.0,0.0,0.0,0.0,0.0,0.0,0.0,0.0,5.7984,5.861,5.6612,0.0,0.0,0.0,0.0,0.0,0.0,0.0,0.0,0.0,0.0,8.3281,8.7898,8.8924,8.9058,8.8618,8.8845,8.8641,8.7373,8.7754,8.7351,8.4881,0.0,0.0,0.0,0.0,0.0,0.0,0.0,0.0,0.0,0.0,0.0,0.0,0.0,0.0,0.0,0.0,0.0,0.0,0.0,0.0,0.0,0.0,0.0,0.0,0.0,0.0,0.0,0.0,0.0,0.0,0.0,0.0,0.0,0.0,0.0,0.0,0.0,0.0,0.0,0.0,0.0,0.0,0.0,0.0,0.0,0.0,0.0,0.0,0.0,0.0,0.0,0.0,0.0,6.1547,6.7446,7.7711,8.3896,8.5732,8.5702,8.5505,8.5148,8.3872,8.0193,0.0,0.0,0.0,0.0,0.0,0.0,0.0,0.0,0.0,0.0,0.0,0.0,0.0,0.0,0.0,0.0,0.0,0.0,0.0,0.0,0.0,0.0,0.0,0.0,0.0,0.0,0.0,0.0,5.2377,5.4144,5.4993,0.0,0.0,0.0,0.0,0.0,0.0,0.0,0.0,0.0,0.0,7.8294,8.3831,8.5136,0.0,0.0,8.7474,8.7224,8.6743,8.7916,8.7109,8.1901,7.8945,0.0,0.0,0.0,0.0,0.0,0.0,0.0,0.0,0.0,0.0,0.0,0.0,0.0,0.0,0.0,0.0,0.0,0.0,0.0,0.0,0.0,0.0,0.0,0.0,0.0,0.0,0.0,0.0,0.0,0.0,0.0,0.0,0.0,0.0,0.0,0.0,0.0,0.0,0.0,0.0,0.0,0.0,0.0,0.0,0.0,0.0,0.0,0.0,0.0,0.0,0.0,0.0,6.063,6.7768,7.6021,8.1784,8.4832,8.416,8.3378,8.2619,8.1308,7.643,0.0,0.0,0.0,0.0,0.0,0.0,0.0,0.0,0.0,0.0,0.0,0.0,0.0,0.0,0.0,0.0,0.0,0.0,0.0,0.0,0.0,0.0,0.0,0.0,0.0,0.0,0.0,0.0,0.0,0.0,0.0,0.0,0.0,0.0,0.0,0.0,0.0,0.0,0.0,0.0,0.0,7.2529,7.6396,7.7989,8.0032,0.0,8.3852,8.4264,8.5725,8.8926,8.802,7.8353,0.0,0.0,0.0,0.0,0.0,0.0,0.0,0.0,0.0,0.0,0.0,0.0,0.0,0.0,0.0,0.0,0.0,0.0,0.0,0.0,0.0,0.0,0.0,0.0,0.0,0.0,0.0,0.0,0.0,0.0,0.0,0.0,0.0,0.0,0.0,0.0,0.0,0.0,0.0,0.0,0.0,0.0,0.0,0.0,0.0,0.0,0.0,0.0,0.0,0.0,0.0,0.0,0.0,0.0,6.5113,7.3507,7.9106,8.1578,8.138,8.1536,8.2237,7.8188,0.0,0.0,0.0,0.0,0.0,0.0,0.0,0.0,0.0,0.0,0.0,0.0,0.0,0.0,0.0,0.0,0.0,0.0,0.0,0.0,0.0,0.0,0.0,0.0,0.0,0.0,0.0,3.6313,0.0,0.0,0.0,0.0,0.0,0.0,0.0,0.0,0.0,0.0,0.0,0.0,0.0,0.0,7.0363,7.6044,7.6057,7.6239,0.0,0.0,7.8464,7.743,8.0388,8.0984,0.0,0.0,0.0,0.0,0.0,0.0,0.0,0.0,0.0,0.0,0.0,0.0,0.0,0.0,0.0,0.0,0.0,0.0,0.0,0.0,0.0,0.0,0.0,0.0,0.0,0.0,0.0,0.0,0.0,0.0,0.0,0.0,0.0,0.0,0.0,0.0,0.0,0.0,0.0,0.0,0.0,0.0,0.0,0.0,0.0,0.0,0.0,0.0,0.0,0.0,0.0,0.0,0.0,0.0,5.54,6.2644,6.9751,7.5255,7.9034,7.8038,7.8193,7.981,7.5326,7.0106,0.0,0.0,0.0,0.0,0.0,0.0,0.0,0.0,0.0,0.0,0.0,0.0,0.0,0.0,0.0,0.0,0.0,0.0,0.0,0.0,0.0,0.0,0.0,0.0,0.0,0.0,0.0,0.0,0.0,0.0,0.0,0.0,0.0,0.0,0.0,0.0,0.0,0.0,0.0,0.0,0.0,0.0,7.3932,7.2587,0.0,0.0,0.0,7.4728,7.4284,0.0,0.0,0.0,0.0,0.0,0.0,0.0,0.0,0.0,0.0,0.0,0.0,0.0,0.0,0.0,0.0,0.0,0.0,0.0,0.0,0.0,0.0,0.0,0.0,0.0,0.0,0.0,0.0,0.0,0.0,0.0,0.0,0.0,0.0,0.0,0.0,0.0,0.0,0.0,0.0,0.0,0.0,0.0,0.0,0.0,0.0,0.0,0.0,0.0,0.0,0.0,0.0,0.0,0.0,0.0,0.0,0.0,6.0455,6.5936,7.1413,7.6637,7.4903,7.4648,7.653,7.2965,6.8155,0.0,0.0,0.0,0.0,0.0,0.0,0.0,0.0,0.0,0.0,0.0,0.0,0.0,0.0,0.0,0.0,0.0,0.0,0.0,0.0,0.0,0.0,0.0,0.0,0.0,0.0,0.0,0.0,0.0,0.0,0.0,0.0,0.0,0.0,0.0,0.0,0.0,0.0,0.0,0.0,0.0,6.7328,7.0875,6.8654,6.7573,0.0,0.0,7.1771,7.333,7.4703,0.0,0.0,0.0,0.0,0.0,0.0,0.0,0.0,0.0,0.0,0.0,0.0,0.0,0.0,0.0,0.0,0.0,0.0,0.0,0.0,0.0,0.0,0.0,0.0,0.0,0.0,0.0,0.0,0.0,0.0,0.0,0.0,0.0,0.0,0.0,0.0,0.0,0.0,0.0,0.0,0.0,0.0,0.0,0.0,0.0,0.0,0.0,0.0,0.0,0.0,0.0,0.0,0.0,0.0,0.0,0.0,5.9241,6.5847,7.0918,7.4091,7.3976,7.4515,7.5862,7.2239,6.6916,0.0,0.0,0.0,0.0,0.0,0.0,0.0,0.0,0.0,0.0,0.0,0.0,0.0,0.0,0.0,0.0,0.0,0.0,0.0,0.0,0.0,0.0,0.0,0.0,0.0,0.0,0.0,0.0,0.0,0.0,0.0,0.0,0.0,0.0,0.0,0.0,0.0,0.0,0.0,0.0,0.0,6.5164,6.7664,6.6234,0.0,0.0,0.0,0.0,6.8173,6.6612,0.0,0.0,0.0,0.0,0.0,0.0,0.0,0.0,0.0,0.0,0.0,0.0,0.0,0.0,0.0,0.0,0.0,0.0,0.0,0.0,0.0,0.0,0.0,0.0,0.0,0.0,0.0,0.0,0.0,0.0,0.0,0.0,0.0,0.0,0.0,0.0,0.0,0.0,0.0,0.0,0.0,0.0,0.0,0.0,0.0,0.0,0.0,0.0,0.0,0.0,0.0,0.0,0.0,0.0,0.0,0.0,5.8686,6.3502,6.7895,7.1819,7.1763,7.2223,7.3448,7.0875,6.5681,0.0,0.0,0.0,0.0,0.0,0.0,0.0,0.0,0.0,0.0,0.0,0.0,0.0,0.0,0.0,0.0,0.0,0.0,0.0,0.0,0.0,0.0,0.0,0.0,0.0,0.0,0.0,0.0,0.0,0.0,0.0,0.0,0.0,0.0,0.0,0.0,0.0,0.0,0.0,0.0,5.9775,6.2478,6.5356,0.0,0.0,0.0,0.0,0.0,0.0,6.2596,6.0782,0.0,0.0,0.0,0.0,0.0,0.0,0.0,0.0,0.0,0.0,0.0,0.0,0.0,0.0,0.0,0.0,0.0,0.0,0.0,0.0,0.0,0.0,0.0,0.0,0.0,0.0,0.0,0.0,0.0,0.0,0.0,0.0,0.0,0.0,0.0,0.0,0.0,0.0,0.0,0.0,0.0,0.0,0.0,0.0,0.0,0.0,0.0,0.0,0.0,0.0,0.0,0.0,0.0,0.0,0.0,5.7472,6.0372,6.4339,6.9496,6.9316,6.9714,7.0716,6.9296,6.4394,5.5997,0.0,0.0,0.0,0.0,0.0,0.0,0.0,0.0,0.0,0.0,0.0,0.0,0.0,0.0,0.0,0.0,0.0,0.0,0.0,0.0,0.0,0.0,0.0,0.0,0.0,0.0,0.0,0.0,0.0,0.0,0.0,0.0,0.0,0.0,0.0,0.0,0.0,0.0,0.0,5.6988,5.9869,0.0,0.0,0.0,0.0,0.0,0.0,0.0,0.0,5.8661,0.0,0.0,0.0,0.0,0.0,0.0,0.0,0.0,0.0,0.0,0.0,0.0,0.0,0.0,0.0,0.0,0.0,0.0,0.0,0.0,0.0,0.0,0.0,0.0,0.0,0.0,0.0,0.0,0.0,0.0,0.0,0.0,0.0,0.0,0.0,0.0,0.0,0.0,0.0,0.0,0.0,0.0,0.0,0.0,0.0,0.0,0.0,0.0,0.0,0.0,0.0,0.0,0.0,0.0,0.0,0.0,5.7382,6.2215,6.6589,6.8258,6.9133,6.9307,6.793,6.3028,5.4388,0.0,0.0,0.0,0.0,0.0,0.0,0.0,0.0,0.0,0.0,0.0,0.0,0.0,0.0,0.0,0.0,0.0,0.0,0.0,0.0,0.0,0.0,0.0,0.0,0.0,0.0,0.0,0.0,0.0,0.0,0.0,0.0,0.0,0.0,0.0,0.0,0.0,0.0,4.6792,5.3456,0.0,0.0,0.0,0.0,0.0,0.0,0.0,0.0,5.6637,0.0,0.0,0.0,0.0,0.0,0.0,0.0,0.0,0.0,0.0,0.0,0.0,0.0,0.0,0.0,0.0,0.0,0.0,0.0,0.0,0.0,0.0,0.0,0.0,0.0,0.0,0.0,0.0,0.0,0.0,0.0,0.0,0.0,0.0,0.0,0.0,0.0,0.0,0.0,0.0,0.0,0.0,0.0,0.0,0.0,0.0,0.0,0.0,0.0,0.0,0.0,0.0,0.0,0.0,0.0,0.0,0.0,0.0,6.0558,6.4612,6.5943,6.6909,6.7485,6.3912,5.9319,0.0,0.0,0.0,0.0,0.0,0.0,0.0,0.0,0.0,0.0,0.0,0.0,0.0,0.0,0.0,0.0,0.0,0.0,0.0,0.0,0.0,0.0,0.0,0.0,0.0,0.0,0.0,0.0,0.0,0.0,0.0,0.0,0.0,0.0,0.0,0.0,0.0,0.0,0.0,0.0,0.0,0.0,0.0,0.0,0.0,0.0,0.0,0.0,0.0,0.0,0.0,0.0,0.0,0.0,0.0,0.0,0.0,0.0,0.0,0.0,0.0,0.0,0.0,0.0,0.0,0.0,0.0,0.0,0.0,0.0,0.0,0.0,0.0,0.0,0.0,0.0,0.0,0.0,0.0,0.0,0.0,0.0,0.0,0.0,0.0,0.0,0.0,0.0,0.0,0.0,0.0,0.0,0.0,0.0,0.0,0.0,0.0,0.0,0.0,0.0,0.0,0.0,0.0,0.0,0.0,0.0,0.0,0.0,5.8538,6.2547,6.3683,6.4804,6.5986,5.9889,5.5201,0.0,0.0,0.0,0.0,0.0,0.0,0.0,0.0,0.0,0.0,0.0,0.0,0.0,0.0,0.0,0.0,0.0,0.0,0.0,0.0,0.0,0.0,0.0,0.0,0.0,0.0,0.0,0.0,0.0,0.0,0.0,0.0,0.0,0.0,0.0,0.0,0.0,0.0,0.0,0.0,0.0,0.0,0.0,0.0,0.0,0.0,0.0,0.0,5.4923,0.0,0.0,0.0,0.0,0.0,0.0,0.0,0.0,0.0,0.0,0.0,0.0,0.0,0.0,0.0,0.0,0.0,0.0,0.0,0.0,0.0,0.0,0.0,0.0,0.0,0.0,0.0,0.0,0.0,0.0,0.0,0.0,0.0,0.0,0.0,0.0,0.0,0.0,0.0,0.0,0.0,0.0,0.0,0.0,0.0,0.0,0.0,0.0,0.0,0.0,0.0,0.0,0.0,0.0,0.0,0.0,0.0,0.0,0.0,5.5545,5.9672,6.251,6.4147,6.4349,5.7375,5.1722,0.0,0.0,0.0,0.0,0.0,0.0,0.0,0.0,0.0,0.0,0.0,0.0,0.0,0.0,0.0,0.0,0.0,0.0,0.0,0.0,0.0,0.0,0.0,0.0,0.0,0.0,0.0,0.0,0.0,0.0,0.0,0.0,0.0,0.0,0.0,0.0,0.0,0.0,0.0,0.0,0.0,0.0,0.0,0.0,0.0,0.0,0.0,0.0,0.0,0.0,0.0,0.0,0.0,0.0,0.0,0.0,0.0,0.0,0.0,0.0,0.0,0.0,0.0,0.0,0.0,0.0,0.0,0.0,0.0,0.0,0.0,0.0,0.0,0.0,0.0,0.0,0.0,0.0,0.0,0.0,0.0,0.0,0.0,0.0,0.0,0.0,0.0,0.0,0.0,0.0,0.0,0.0,0.0,0.0,0.0,0.0,0.0,0.0,0.0,0.0,0.0,0.0,0.0,0.0,0.0,0.0,0.0,0.0,5.1822,5.6827,5.8956,5.9354,5.7963,5.235,4.862,0.0,0.0,0.0,0.0,0.0,0.0,0.0,0.0,0.0,0.0,0.0,0.0,0.0,0.0,0.0,0.0,0.0,0.0,0.0,0.0,0.0,0.0,0.0,0.0,0.0,0.0,0.0,0.0,0.0,0.0,0.0,0.0,0.0,0.0,0.0,0.0,0.0,0.0,0.0,0.0,0.0,0.0,0.0,0.0,0.0,0.0,0.0,0.0,0.0,0.0,0.0,0.0,0.0,0.0,0.0,0.0,0.0,0.0,0.0,0.0,0.0,0.0,0.0,0.0,0.0,0.0,0.0,0.0,0.0,0.0,0.0,0.0,0.0,0.0,0.0,0.0,0.0,0.0,0.0,0.0,0.0,0.0,0.0,0.0,0.0,0.0,0.0,0.0,0.0,0.0,0.0,0.0,0.0,0.0,0.0,0.0,0.0,0.0,0.0,0.0,0.0,0.0,0.0,0.0,0.0,0.0,0.0,0.0,0.0,5.2806,5.4265,5.3676,5.0996,4.7458,4.4941,0.0,0.0,0.0,0.0,0.0,0.0,0.0,0.0,0.0,0.0,0.0,0.0,0.0,0.0,0.0,0.0,0.0,0.0,0.0,0.0,0.0,0.0,0.0,0.0,0.0,0.0,0.0,0.0,0.0,0.0,0.0,0.0,0.0,0.0,0.0,0.0,0.0,0.0,0.0,0.0,0.0,0.0,0.0,0.0,0.0,0.0,0.0,0.0,0.0,0.0,0.0,0.0,0.0,0.0,0.0,0.0,0.0,0.0,0.0,0.0,0.0,0.0,0.0,0.0,0.0,0.0,0.0,0.0,0.0,0.0,0.0,0.0,0.0,0.0,0.0,0.0,0.0,0.0,0.0,0.0,0.0,0.0,0.0,0.0,0.0,0.0,0.0,0.0,0.0,0.0,0.0,0.0,0.0,0.0,0.0,0.0,0.0,0.0,0.0,0.0,0.0,0.0,0.0,0.0,0.0,0.0,0.0,0.0,0.0,4.7136,4.8553,4.7909,4.517,4.3463,4.0131,0.0,0.0,0.0,0.0,0.0,0.0,0.0,0.0,0.0,0.0,0.0,0.0,0.0,0.0,0.0,0.0,0.0,0.0,0.0,0.0,0.0,0.0,0.0,0.0,0.0,0.0,0.0,0.0,0.0,0.0,0.0,0.0,0.0,0.0,0.0,0.0,0.0,0.0,0.0,0.0,0.0,0.0,0.0,0.0,0.0,0.0,0.0,0.0,0.0,0.0,0.0,0.0,0.0,0.0,0.0,0.0,0.0,0.0,0.0,0.0,0.0,0.0,0.0,0.0,0.0,0.0,0.0,0.0,0.0,0.0,0.0,0.0,0.0,0.0,0.0,0.0,0.0,0.0,0.0,0.0,0.0,0.0,0.0,0.0,0.0,0.0,0.0,0.0,0.0,0.0,0.0,0.0,0.0,0.0,0.0,0.0,0.0,0.0,0.0,0.0,0.0,0.0,0.0,0.0,0.0,0.0,0.0,0.0,0.0,4.009,4.221,4.3351,4.3173,3.9242,3.6955,3.6531,0.0,0.0,0.0,0.0,0.0,0.0,0.0,0.0,0.0,0.0,0.0,0.0,0.0,0.0,0.0,0.0,0.0,0.0,0.0,0.0,0.0,0.0,0.0,0.0,0.0,0.0,0.0,0.0,0.0,0.0,0.0,0.0,0.0,0.0,0.0,0.0,0.0,0.0,0.0,0.0,0.0,0.0,0.0,0.0,0.0,0.0,0.0,0.0,0.0,0.0,0.0,0.0,0.0,0.0,0.0,0.0,0.0,0.0,0.0,0.0,0.0,0.0,0.0,0.0,0.0,0.0,0.0,0.0,0.0,0.0,0.0,0.0,0.0,0.0,0.0,0.0,0.0,0.0,0.0,0.0,0.0,0.0,0.0,0.0,0.0,0.0,0.0,0.0,0.0,0.0,0.0,0.0,0.0,0.0,0.0,0.0,0.0,0.0,0.0,0.0,0.0,0.0,0.0,0.0,0.0,0.0,0.0,0.0,3.5436,3.8121,3.9648,3.9661,3.6033,3.4108,0.0,0.0,0.0,0.0,0.0,0.0,0.0,0.0,0.0,0.0,0.0,0.0,0.0,0.0,0.0,0.0,0.0,0.0,0.0,0.0,0.0,0.0,0.0,0.0,0.0,0.0,0.0,0.0,0.0,0.0,0.0,0.0,0.0,0.0,0.0,0.0,0.0,0.0,0.0,0.0,0.0,0.0,0.0,0.0,0.0,0.0,0.0,0.0,0.0,0.0,0.0,0.0,0.0,0.0,0.0,0.0,0.0,0.0,0.0,0.0,0.0,0.0,0.0,0.0,0.0,0.0,0.0,0.0,0.0,0.0,0.0,0.0,0.0,0.0,0.0,0.0,0.0,0.0,0.0,0.0,0.0,0.0,0.0,0.0,0.0,0.0,0.0,0.0,0.0,0.0,0.0,0.0,0.0,0.0,0.0,0.0,0.0,0.0,0.0,0.0,0.0,0.0,0.0,0.0,0.0,0.0,0.0,0.0,3.1316,3.4002,3.6647,3.6981,3.4313,3.4099,3.1413,0.0,0.0,0.0,0.0,0.0,0.0,0.0,0.0,0.0,0.0,0.0,0.0,0.0,0.0,0.0,0.0,0.0,0.0,0.0,0.0,0.0,0.0,0.0,0.0,0.0,0.0,0.0,0.0,0.0,0.0,0.0,0.0,0.0,0.0,0.0,0.0,0.0,0.0,0.0,0.0,0.0,0.0,0.0,0.0,0.0,0.0,0.0,0.0,0.0,0.0,0.0,0.0,0.0,0.0,0.0,0.0,0.0,0.0,0.0,0.0,0.0,0.0,0.0,0.0,0.0,0.0,0.0,0.0,0.0,0.0,0.0,0.0,0.0,0.0,0.0,0.0,0.0,0.0,0.0,0.0,0.0,0.0,0.0,0.0,0.0,0.0,0.0,0.0,0.0,0.0,0.0,0.0,0.0,0.0,0.0,0.0,0.0,0.0,0.0,0.0,0.0,0.0,0.0,0.0,0.0,0.0,0.0,0.0,0.0,3.2584,0.0,3.6266,0.0,3.3615,3.1166,0.0,0.0,0.0,0.0,0.0,0.0,0.0,0.0,0.0,0.0,0.0,0.0,0.0,0.0,0.0,0.0,0.0,0.0,0.0,0.0,0.0,0.0,0.0,0.0,0.0,0.0,0.0,0.0,0.0,0.0,0.0,0.0,0.0,0.0,0.0,0.0,0.0,0.0,0.0,0.0,0.0,0.0,0.0,0.0,0.0,0.0,0.0,0.0,0.0,0.0,0.0,0.0,0.0,0.0,0.0,0.0,0.0,0.0,0.0,0.0,0.0,0.0,0.0,0.0,0.0,0.0,0.0,0.0,0.0,0.0,0.0,0.0,0.0,0.0,0.0,0.0,0.0,0.0,0.0,0.0,0.0,0.0,0.0,0.0,0.0,0.0,0.0,0.0,0.0,0.0,0.0,0.0,0.0,0.0,0.0,0.0,0.0,0.0,0.0,0.0,0.0,0.0,0.0,0.0,0.0,0.0,0.0,0.0,0.0,3.4023,3.4023,3.5549,3.8411,3.4366,3.2347,0.0,0.0,0.0,0.0,0.0,0.0,0.0,0.0,0.0,0.0,0.0,0.0,0.0,0.0,0.0,0.0,0.0,0.0,0.0,0.0,0.0,0.0,0.0,0.0,0.0,0.0,0.0,0.0,0.0,0.0,0.0,0.0,0.0,0.0,0.0,0.0,0.0,0.0,0.0,0.0,0.0,0.0,0.0,0.0,0.0,0.0,0.0,0.0,0.0,0.0,0.0,0.0,0.0,0.0,0.0,0.0,0.0,0.0,0.0,0.0,0.0,0.0,0.0,0.0,0.0,0.0,0.0,0.0,0.0,0.0,0.0,0.0,0.0,0.0,0.0,0.0,0.0,0.0,0.0,0.0,0.0,0.0,0.0,0.0,0.0,0.0,0.0,0.0,0.0,0.0,0.0,0.0,0.0,0.0,0.0,0.0,0.0,0.0,0.0,0.0,0.0,0.0,0.0,0.0,0.0,0.0,0.0,0.0,0.0,3.7567,3.5384,3.472,3.5991,3.583,3.4535,0.0,0.0,0.0,0.0,0.0,0.0,0.0,0.0,0.0,0.0,0.0,0.0,0.0,0.0,0.0,0.0,0.0,0.0,0.0,0.0,0.0,0.0,0.0,0.0,0.0,0.0,0.0,0.0,0.0,0.0,0.0,0.0,0.0,0.0,0.0,0.0,0.0,0.0,0.0,0.0,0.0,0.0,0.0,0.0,0.0,0.0,0.0,0.0,0.0,0.0,0.0,0.0,0.0,0.0,0.0,0.0,0.0,0.0,0.0,0.0,0.0,0.0,0.0,0.0,0.0,0.0,0.0,0.0,0.0,0.0,0.0,0.0,0.0,0.0,0.0,0.0,0.0,0.0,0.0,0.0,0.0,0.0,0.0,0.0,0.0,0.0,0.0,0.0,0.0,0.0,0.0,0.0,0.0,0.0,0.0,0.0,0.0,0.0,0.0,0.0,0.0,0.0,0.0,0.0,0.0,0.0,0.0,0.0,0.0,0.0,3.5352,3.5617,3.5863,3.4032,3.2649,3.1886,0.0,0.0,0.0,0.0,0.0,0.0,0.0,0.0,0.0,0.0,0.0,0.0,0.0,0.0,0.0,0.0,0.0,0.0,0.0,0.0,0.0,0.0,0.0,0.0,0.0,0.0,0.0,0.0,0.0,0.0,0.0,0.0,0.0,0.0,0.0,0.0,0.0,0.0,0.0,0.0,0.0,0.0,0.0,0.0,0.0,0.0,0.0,0.0,0.0,0.0,0.0,0.0,0.0,0.0,0.0,0.0,0.0,0.0,0.0,0.0,0.0,0.0,0.0,0.0,0.0,0.0,0.0,0.0,0.0,0.0,0.0,0.0,0.0,0.0,0.0,0.0,0.0,0.0,0.0,0.0,0.0,0.0,0.0,0.0,0.0,0.0,0.0,0.0,0.0,0.0,0.0,0.0,0.0,0.0,0.0,0.0,0.0,0.0,0.0,0.0,0.0,0.0,0.0,0.0,0.0,0.0,0.0,0.0,0.0,0.0,3.5404,3.5927,3.3882,3.2487,0.0,0.0,0.0,0.0,0.0,0.0,0.0,0.0,0.0,0.0,0.0,0.0,0.0,0.0,0.0,0.0,0.0,0.0,0.0,0.0,0.0,0.0,0.0,0.0,0.0,0.0,0.0,0.0,0.0,0.0,0.0,0.0,0.0,0.0,0.0,0.0,0.0,0.0,0.0,0.0,0.0,0.0,0.0,0.0,0.0,0.0,0.0,0.0,0.0,0.0,0.0,0.0,0.0,0.0,0.0,0.0,0.0,0.0,0.0,0.0,0.0,0.0,0.0,0.0,0.0,0.0,0.0,0.0,0.0,0.0,0.0,0.0,0.0,0.0,0.0,0.0,0.0,0.0,0.0,0.0,0.0,0.0,0.0,0.0,0.0,0.0,0.0,0.0,0.0,0.0,0.0,0.0,0.0,0.0,0.0,0.0,0.0,0.0,0.0,0.0,0.0,0.0,0.0,0.0,0.0,0.0,0.0,0.0,0.0,0.0,0.0,3.472,3.5746,3.4752,0.0,3.1897,0.0,0.0,0.0,0.0,0.0,0.0,0.0,0.0,0.0,0.0,0.0,0.0,0.0,0.0,0.0,0.0,0.0,0.0,0.0,0.0,0.0,0.0,0.0,0.0,0.0,0.0,0.0,0.0,0.0,0.0,0.0,0.0,0.0,0.0,0.0,0.0,0.0,0.0,0.0,0.0,0.0,0.0,0.0,0.0,0.0,0.0,0.0,0.0,0.0,0.0,0.0,0.0,0.0,0.0,0.0,0.0,0.0,0.0,0.0,0.0,0.0,0.0,0.0,0.0,0.0,0.0,0.0,0.0,0.0,0.0,0.0,0.0,0.0,0.0,0.0,0.0,0.0,0.0,0.0,0.0,0.0,0.0,0.0,0.0,0.0,0.0,0.0,0.0,0.0,0.0,0.0,0.0,0.0,0.0,0.0,0.0,0.0,0.0,0.0,0.0,0.0,0.0,0.0,0.0,0.0,0.0,0.0,0.0,0.0,0.0,0.0,0.0,3.5147,3.385,3.0413,0.0,0.0,0.0,0.0,0.0,0.0,0.0,0.0,0.0,0.0,0.0,0.0,0.0,0.0,0.0,0.0,0.0,0.0,0.0,0.0,0.0,0.0,0.0,0.0,0.0,0.0,0.0,0.0,0.0,0.0,0.0,0.0,0.0,0.0,0.0,0.0,0.0,0.0,0.0,0.0,0.0,0.0,0.0,0.0,0.0,0.0,0.0,0.0,0.0,0.0,0.0,0.0,0.0,0.0,0.0,0.0,0.0,0.0,0.0,0.0,0.0,0.0,0.0,0.0,0.0,0.0,0.0,0.0,0.0,0.0,0.0,0.0,0.0,0.0,0.0,0.0,0.0,0.0,0.0,0.0,0.0,0.0,0.0,0.0,0.0,0.0,0.0,0.0,0.0,0.0,0.0,0.0,0.0,0.0,0.0,0.0,0.0,0.0,0.0,0.0,0.0,0.0,0.0,0.0,0.0,0.0,0.0,0.0,0.0,0.0,3.505,3.3132,3.3754,3.2422,2.8922,0.0,0.0,0.0,0.0,0.0,0.0,0.0,0.0,0.0,0.0,0.0,0.0,0.0,0.0,0.0,0.0,0.0,0.0,0.0,0.0,0.0,0.0,0.0,0.0,0.0,0.0,0.0,0.0,0.0,0.0,0.0,0.0,0.0,0.0,0.0,0.0,0.0,0.0,0.0,0.0,0.0,0.0,0.0,0.0,0.0,0.0,0.0,0.0,0.0,0.0,0.0,0.0,0.0,0.0,0.0,0.0,0.0,0.0,0.0,0.0,0.0,0.0,0.0,0.0,0.0,0.0,0.0,0.0,0.0,0.0,0.0,0.0,0.0,0.0,0.0,0.0,0.0,0.0,0.0,0.0,0.0,0.0,0.0,0.0,0.0,0.0,0.0,0.0,0.0,0.0,0.0,0.0,0.0,0.0,0.0,0.0,0.0,0.0,0.0,0.0,0.0,0.0,0.0,0.0,0.0,0.0,0.0,0.0,0.0,0.0,0.0,0.0,0.0,0.0,2.8047,0.0,0.0,0.0,0.0,0.0,0.0,0.0,0.0,0.0,0.0,0.0,0.0,0.0,0.0,0.0,0.0,0.0,0.0,0.0,0.0,0.0,0.0,0.0,0.0,0.0,0.0,0.0,0.0,0.0,0.0,0.0,0.0,0.0,0.0,0.0,0.0,0.0,0.0,0.0,0.0,0.0,0.0,0.0,0.0,0.0,0.0,0.0,0.0,0.0,0.0,0.0,0.0,0.0,0.0,0.0,0.0,0.0,0.0,0.0,0.0,0.0,0.0,0.0,0.0,0.0,0.0,0.0,0.0,0.0,0.0,0.0,0.0,0.0,0.0,0.0,0.0,0.0,0.0,0.0,0.0,0.0,0.0,0.0,0.0,0.0,0.0,0.0,0.0,0.0,0.0,0.0,0.0,0.0,0.0,0.0,0.0,0.0,0.0,0.0,0.0,0.0,0.0,0.0,0.0,0.0,0.0,0.0,0.0,0.0,0.0,0.0,0.0,0.0,0.0,0.0,0.0,0.0,0.0,0.0,0.0,0.0,0.0,0.0,0.0,0.0,0.0,0.0,0.0,0.0,0.0,0.0,0.0,0.0,0.0,0.0,0.0,0.0,0.0,0.0,0.0,0.0,0.0,0.0,0.0,0.0,0.0,0.0,0.0,0.0,0.0,0.0,0.0,0.0,0.0,0.0,0.0,0.0,0.0,0.0,0.0,0.0,0.0,0.0,0.0,0.0,0.0,0.0,0.0,0.0,0.0,0.0,0.0,0.0,0.0,0.0,0.0,0.0,0.0,0.0,0.0,0.0,0.0,0.0,0.0,0.0,0.0,0.0,0.0,0.0,0.0,0.0,0.0,0.0,0.0,0.0,0.0,0.0,0.0,0.0,0.0,0.0,0.0,0.0,0.0,0.0,0.0,0.0,0.0,0.0,0.0,0.0,0.0,0.0,0.0,0.0,0.0,0.0,0.0,0.0,0.0,0.0,0.0,0.0,0.0,0.0,0.0,0.0,0.0,0.0,0.0,0.0,0.0,0.0,0.0,0.0,0.0,0.0,0.0,0.0,0.0,0.0,0.0,0.0,0.0,0.0,0.0,0.0,0.0,0.0,0.0,0.0,0.0,0.0,0.0,0.0,0.0,0.0,0.0,0.0,0.0,0.0,0.0,0.0,0.0,0.0,0.0,0.0,0.0,0.0,0.0,0.0,0.0,0.0,0.0,0.0,0.0,0.0,0.0,0.0,0.0,0.0,0.0,0.0,0.0,0.0,0.0,0.0,0.0,0.0,0.0,0.0,0.0,0.0,0.0,0.0,0.0,0.0,0.0,0.0,0.0,0.0,0.0,0.0,0.0,0.0,0.0,0.0,0.0,0.0,0.0,0.0,0.0,0.0,0.0,0.0,0.0,0.0,0.0,0.0,0.0,0.0,0.0,0.0,0.0,0.0,0.0,0.0,0.0,0.0,0.0,0.0,0.0,0.0,0.0,0.0,0.0,0.0,0.0,0.0,0.0,0.0,0.0,0.0,0.0,0.0,0.0,0.0,0.0,0.0,0.0,0.0,0.0,0.0,0.0,0.0,0.0,0.0,0.0,0.0,0.0,0.0,0.0,0.0,0.0,0.0,0.0,0.0,0.0,0.0,0.0,0.0,0.0,0.0,0.0,0.0,0.0,0.0,0.0,0.0,0.0,0.0,0.0,0.0,0.0,0.0,0.0,0.0,0.0,0.0,0.0,0.0,0.0,0.0,0.0,0.0,0.0,0.0,0.0,0.0,0.0,0.0,0.0,0.0,0.0,0.0,0.0,0.0,0.0,0.0,0.0,0.0,0.0,0.0,0.0,0.0,0.0,0.0,0.0,0.0,0.0,0.0,0.0,0.0,0.0,0.0,0.0,0.0,0.0,0.0,0.0,0.0,0.0,0.0,0.0,0.0,0.0,0.0,0.0,0.0,0.0,0.0,0.0,0.0,0.0,0.0,0.0,0.0,0.0,0.0,0.0,0.0,0.0,0.0,0.0,0.0,0.0,0.0,0.0,0.0,0.0,0.0,0.0,0.0,0.0,0.0,0.0,0.0,0.0,0.0,0.0,0.0,0.0,0.0,0.0,0.0,0.0,0.0,0.0,0.0,0.0,0.0,0.0,0.0,0.0,0.0,0.0,0.0,0.0,0.0,0.0,0.0,0.0,0.0,0.0,0.0,0.0,0.0,0.0,0.0,0.0,0.0,0.0,0.0,0.0,0.0,0.0,0.0,0.0,0.0,0.0,0.0,0.0,0.0,0.0,0.0,0.0,0.0,0.0,0.0,0.0,0.0,0.0,0.0,0.0,0.0,0.0,0.0,0.0,0.0,0.0,0.0,0.0,0.0,0.0,0.0,0.0,0.0,0.0,0.0,0.0,0.0,0.0,0.0,0.0,0.0,0.0,0.0,0.0,0.0,0.0,0.0,0.0,0.0,0.0,0.0,0.0,0.0,0.0,0.0,0.0,0.0,0.0,0.0,0.0,0.0,0.0,0.0,0.0,0.0,0.0,0.0,0.0,0.0,0.0,0.0,0.0,0.0,0.0,0.0,0.0,0.0,0.0,0.0,0.0,0.0,0.0,0.0,0.0,0.0,0.0,0.0,0.0,0.0,0.0,0.0,0.0,0.0,0.0,0.0,0.0,0.0,0.0,0.0,0.0,0.0,0.0,0.0,0.0,0.0,0.0,0.0,0.0,0.0,0.0,0.0,0.0,0.0,0.0,0.0,0.0,0.0,0.0,0.0,0.0,0.0,0.0,0.0,0.0,0.0,0.0,0.0,0.0,0.0,0.0,0.0,0.0,0.0,0.0,0.0,0.0,0.0,0.0,0.0,0.0,0.0,0.0,0.0,0.0,0.0,0.0,0.0,0.0,0.0,0.0,0.0,0.0,0.0,0.0,0.0,0.0,0.0,0.0,0.0,0.0,0.0,0.0,0.0,0.0,0.0,0.0,0.0,0.0,0.0,0.0,0.0,0.0,0.0,0.0,0.0,0.0,0.0,0.0,0.0,0.0,0.0,0.0,0.0,0.0,0.0,0.0,0.0,0.0,0.0,0.0,0.0,0.0,0.0,0.0,0.0,0.0,0.0,0.0,0.0,0.0,0.0,0.0,0.0,0.0,0.0,0.0,0.0,0.0,0.0,0.0,0.0,0.0,0.0,0.0,0.0,0.0,0.0,0.0,0.0,0.0,0.0,0.0,0.0,0.0,0.0,0.0,0.0,0.0,0.0,0.0,0.0,0.0,0.0,0.0,0.0,0.0,0.0,0.0,0.0,0.0,0.0,0.0,0.0,0.0,0.0,0.0,0.0,0.0,0.0,0.0,0.0,0.0,0.0,0.0,0.0,0.0,0.0,0.0,0.0,0.0,0.0,0.0,0.0,0.0,0.0,0.0,0.0,0.0,0.0,0.0,0.0,0.0,0.0,0.0,0.0,0.0,0.0,0.0,0.0,0.0,0.0,0.0,0.0,0.0,0.0,0.0,0.0,0.0,0.0,0.0,0.0,0.0,0.0,0.0,0.0,0.0,0.0,0.0,0.0,0.0,0.0,0.0,0.0,0.0,0.0,0.0,0.0,0.0,0.0,0.0,0.0,0.0,0.0,0.0,0.0,0.0,0.0,0.0,0.0,0.0,0.0,0.0,0.0,0.0,0.0,0.0,0.0,0.0,0.0,0.0,0.0,0.0,0.0,0.0,0.0,0.0,0.0,0.0,0.0,0.0,0.0,0.0,0.0,0.0,0.0,0.0,0.0,0.0,0.0,0.0,0.0,0.0,0.0,0.0,0.0,0.0,0.0,0.0,0.0,0.0,0.0,0.0,0.0,0.0,0.0,0.0,0.0,0.0,0.0,0.0,0.0,0.0,0.0,0.0,0.0,0.0,0.0,0.0,0.0,0.0,0.0,0.0,0.0,0.0,0.0,0.0,0.0,0.0,0.0,0.0,0.0,0.0,0.0,0.0,0.0,0.0,0.0,0.0,0.0,0.0,0.0,0.0,0.0,0.0,0.0,0.0,0.0,0.0,0.0,0.0,0.0,0.0,0.0,0.0,0.0,0.0,0.0,0.0,0.0,0.0,0.0,0.0,0.0,0.0,0.0,0.0,0.0,0.0,0.0,0.0,0.0,0.0,0.0,0.0,0.0,0.0,0.0,0.0,0.0,0.0,0.0,0.0,0.0,0.0,0.0,0.0,0.0,0.0,0.0,0.0,0.0,0.0,0.0,0.0,0.0,0.0,0.0,0.0,0.0,0.0,0.0,0.0,0.0,0.0,0.0,0.0,0.0,0.0,0.0,0.0,0.0,0.0,0.0,0.0,0.0,0.0,0.0,0.0,0.0,0.0,0.0,0.0,0.0,0.0]}]]]